[[{"header":{"parameterUnit":"m.s-1","parameterCategory":1,"la1":30.6,"la2":29.2853,"lo1":-89.7004,"lo2":-87.6739,"dy":0.0162,"dx":0.0183,"nx":112,"ny":82,"refTime":"2023-06-24T12:00:00:Z","depth":0,"parameterNumber":2,"parameterNumberName":"U-component_of_WINDS"},"data":[0.0,0.0,0.0,0.0,0.0,0.0,0.0,0.0,0.0,0.0,0.0,0.0,0.0,0.0,0.0,0.0,0.0,0.0,0.0,0.0,0.0,0.0,0.0,0.0,0.0,0.0,0.0,0.0,0.0,0.0,0.0,0.0,0.0,0.0,0.0,0.0,0.0,0.0,0.0,0.0,0.0,0.0,0.0,0.0,0.0,0.0,0.0,0.0,0.0,0.0,0.0,0.0,0.0,0.0,0.0,0.0,0.0,0.0,0.0,0.0,0.0,0.0,0.0,0.0,0.0,0.0,0.0,0.0,0.0,0.0,0.0,0.0,0.0,0.0,0.0,0.0,0.0,0.0,0.0,0.0,0.0,0.0,0.0,0.0,0.0,0.0,0.0,0.0,0.0,0.0,-2.4107,-2.4147,-2.4357,-2.4486,-2.4486,-2.4486,-2.4486,-2.4486,0.0,0.0,0.0,0.0,0.0,0.0,0.0,0.0,0.0,0.0,0.0,0.0,0.0,0.0,0.0,0.0,0.0,0.0,0.0,0.0,0.0,0.0,0.0,0.0,0.0,0.0,0.0,0.0,0.0,0.0,0.0,0.0,0.0,0.0,0.0,0.0,0.0,0.0,0.0,0.0,0.0,0.0,0.0,0.0,0.0,0.0,0.0,0.0,0.0,0.0,0.0,0.0,0.0,0.0,0.0,0.0,0.0,0.0,0.0,0.0,0.0,0.0,0.0,0.0,0.0,0.0,0.0,0.0,0.0,0.0,0.0,0.0,0.0,0.0,0.0,0.0,0.0,0.0,0.0,0.0,0.0,0.0,0.0,0.0,0.0,0.0,0.0,0.0,0.0,0.0,0.0,0.0,0.0,0.0,0.0,0.0,0.0,0.0,0.0,0.0,0.0,0.0,0.0,0.0,-2.4187,-2.4396,-2.4486,-2.4486,-2.4486,-2.4486,-2.4486,-2.4486,0.0,0.0,0.0,0.0,0.0,0.0,0.0,0.0,0.0,0.0,0.0,0.0,0.0,0.0,0.0,0.0,0.0,0.0,0.0,0.0,0.0,0.0,0.0,0.0,0.0,0.0,0.0,0.0,0.0,0.0,0.0,0.0,0.0,0.0,0.0,0.0,0.0,0.0,0.0,0.0,0.0,0.0,0.0,0.0,0.0,0.0,0.0,0.0,0.0,0.0,0.0,0.0,0.0,0.0,0.0,0.0,0.0,0.0,0.0,0.0,0.0,0.0,0.0,0.0,0.0,0.0,0.0,0.0,0.0,0.0,0.0,0.0,0.0,0.0,0.0,0.0,0.0,0.0,0.0,0.0,0.0,0.0,0.0,0.0,0.0,0.0,0.0,0.0,0.0,0.0,0.0,0.0,0.0,0.0,0.0,0.0,0.0,0.0,0.0,0.0,0.0,0.0,0.0,-2.4531,-2.4779,-2.5087,-2.5169,-2.5251,-2.5251,-2.5251,-2.5251,-2.5251,-2.5251,0.0,0.0,0.0,0.0,0.0,0.0,0.0,0.0,0.0,0.0,0.0,0.0,0.0,0.0,0.0,0.0,0.0,0.0,0.0,0.0,0.0,0.0,0.0,0.0,0.0,0.0,0.0,0.0,0.0,0.0,0.0,0.0,0.0,0.0,0.0,0.0,0.0,0.0,0.0,0.0,0.0,0.0,0.0,0.0,0.0,0.0,0.0,0.0,0.0,0.0,0.0,0.0,0.0,0.0,0.0,0.0,0.0,0.0,0.0,0.0,0.0,0.0,0.0,0.0,0.0,0.0,0.0,0.0,0.0,0.0,0.0,0.0,0.0,0.0,0.0,0.0,0.0,0.0,0.0,0.0,0.0,0.0,0.0,0.0,0.0,0.0,0.0,0.0,0.0,0.0,0.0,0.0,0.0,0.0,0.0,0.0,0.0,0.0,0.0,0.0,0.0,0.0,-2.5358,-2.5573,-2.5904,-2.6032,-2.6107,-2.6234,-2.6202,-2.616,-2.616,-2.6192,0.0,0.0,0.0,0.0,0.0,0.0,0.0,0.0,0.0,0.0,0.0,0.0,0.0,0.0,0.0,0.0,0.0,0.0,0.0,0.0,0.0,0.0,0.0,0.0,0.0,0.0,0.0,0.0,0.0,0.0,0.0,0.0,0.0,0.0,0.0,0.0,0.0,0.0,0.0,0.0,0.0,0.0,0.0,0.0,0.0,0.0,0.0,0.0,0.0,0.0,0.0,0.0,0.0,0.0,0.0,0.0,0.0,0.0,0.0,0.0,0.0,0.0,0.0,0.0,0.0,0.0,0.0,0.0,0.0,0.0,0.0,0.0,0.0,0.0,0.0,0.0,0.0,0.0,0.0,0.0,0.0,0.0,0.0,0.0,0.0,0.0,0.0,0.0,0.0,0.0,0.0,0.0,0.0,0.0,0.0,0.0,0.0,0.0,0.0,0.0,0.0,0.0,-2.6141,-2.633,-2.6852,-2.6708,-2.6742,-2.7173,-2.7018,-2.6896,-2.6896,-2.7096,0.0,0.0,0.0,0.0,0.0,0.0,0.0,0.0,0.0,0.0,0.0,0.0,0.0,0.0,0.0,0.0,0.0,0.0,0.0,0.0,0.0,0.0,0.0,0.0,0.0,0.0,0.0,0.0,0.0,0.0,0.0,0.0,0.0,0.0,0.0,0.0,0.0,0.0,0.0,0.0,0.0,0.0,0.0,0.0,0.0,0.0,0.0,0.0,0.0,0.0,0.0,0.0,0.0,0.0,0.0,0.0,0.0,0.0,0.0,0.0,0.0,0.0,0.0,0.0,0.0,0.0,0.0,0.0,0.0,0.0,0.0,0.0,0.0,0.0,0.0,0.0,0.0,0.0,0.0,0.0,0.0,0.0,0.0,0.0,0.0,0.0,0.0,0.0,0.0,0.0,0.0,0.0,0.0,0.0,0.0,0.0,0.0,0.0,0.0,0.0,0.0,0.0,-2.61,-2.628,0.0,-2.657,-2.666,-2.6838,-2.6793,-2.676,-2.676,0.0,0.0,0.0,0.0,0.0,0.0,0.0,0.0,0.0,0.0,0.0,0.0,0.0,0.0,0.0,0.0,0.0,0.0,0.0,0.0,0.0,0.0,0.0,0.0,0.0,0.0,0.0,0.0,0.0,0.0,0.0,0.0,0.0,0.0,0.0,0.0,0.0,0.0,0.0,0.0,0.0,0.0,0.0,0.0,0.0,0.0,0.0,0.0,0.0,0.0,0.0,0.0,0.0,0.0,0.0,0.0,0.0,0.0,0.0,0.0,0.0,0.0,0.0,0.0,0.0,0.0,0.0,0.0,0.0,0.0,0.0,0.0,0.0,0.0,0.0,0.0,0.0,0.0,0.0,0.0,0.0,0.0,0.0,0.0,0.0,0.0,0.0,0.0,0.0,0.0,0.0,0.0,0.0,0.0,0.0,0.0,0.0,0.0,0.0,0.0,0.0,0.0,-2.6366,-2.6447,-2.6585,0.0,-2.6732,-2.688,-2.7006,-2.6971,-2.6925,-2.6925,0.0,0.0,0.0,0.0,0.0,0.0,0.0,0.0,0.0,0.0,0.0,0.0,0.0,0.0,0.0,0.0,0.0,0.0,0.0,0.0,0.0,0.0,0.0,0.0,0.0,0.0,0.0,0.0,0.0,0.0,0.0,0.0,0.0,0.0,0.0,0.0,0.0,0.0,0.0,0.0,0.0,0.0,0.0,0.0,0.0,0.0,0.0,0.0,0.0,0.0,0.0,0.0,0.0,0.0,0.0,0.0,0.0,0.0,0.0,0.0,0.0,0.0,0.0,0.0,0.0,0.0,0.0,0.0,0.0,0.0,0.0,0.0,0.0,0.0,0.0,0.0,0.0,0.0,0.0,0.0,0.0,0.0,0.0,0.0,0.0,0.0,0.0,0.0,0.0,0.0,0.0,0.0,0.0,0.0,0.0,0.0,0.0,0.0,0.0,0.0,0.0,0.0,-2.732,-2.732,-2.7367,-2.7605,-2.7415,-2.751,-2.7961,-2.7783,-2.7605,0.0,0.0,0.0,0.0,0.0,0.0,0.0,0.0,0.0,0.0,0.0,0.0,0.0,0.0,0.0,0.0,0.0,0.0,0.0,0.0,0.0,0.0,0.0,0.0,0.0,0.0,0.0,0.0,0.0,0.0,0.0,0.0,0.0,0.0,0.0,0.0,0.0,0.0,0.0,0.0,0.0,0.0,0.0,0.0,0.0,0.0,0.0,0.0,0.0,0.0,0.0,0.0,0.0,0.0,0.0,0.0,0.0,0.0,0.0,0.0,0.0,0.0,0.0,0.0,0.0,0.0,0.0,0.0,0.0,0.0,0.0,0.0,0.0,0.0,0.0,0.0,0.0,0.0,0.0,0.0,0.0,0.0,0.0,0.0,0.0,0.0,0.0,0.0,0.0,0.0,0.0,0.0,0.0,0.0,0.0,0.0,0.0,0.0,0.0,0.0,0.0,0.0,0.0,-2.8173,-2.8214,-2.8214,-2.8312,-2.8263,-2.8263,-2.84,-2.8362,-2.8312,-2.8312,0.0,0.0,0.0,0.0,0.0,0.0,0.0,0.0,0.0,0.0,0.0,0.0,0.0,0.0,0.0,0.0,0.0,0.0,0.0,0.0,0.0,0.0,0.0,0.0,0.0,0.0,0.0,0.0,0.0,0.0,0.0,0.0,0.0,0.0,0.0,0.0,0.0,0.0,0.0,0.0,0.0,0.0,0.0,0.0,0.0,0.0,0.0,0.0,0.0,0.0,0.0,0.0,0.0,0.0,0.0,0.0,0.0,0.0,0.0,0.0,0.0,0.0,0.0,0.0,0.0,0.0,0.0,0.0,0.0,0.0,0.0,0.0,0.0,0.0,0.0,0.0,0.0,0.0,0.0,0.0,0.0,0.0,0.0,0.0,0.0,0.0,0.0,0.0,0.0,0.0,0.0,0.0,0.0,0.0,0.0,0.0,0.0,0.0,0.0,0.0,0.0,0.0,-2.8576,-2.8618,-2.8618,-2.8618,-2.8618,-2.8618,-2.8618,-2.8618,-2.8618,-2.8618,0.0,0.0,0.0,0.0,0.0,0.0,0.0,0.0,0.0,0.0,0.0,0.0,0.0,0.0,0.0,0.0,0.0,0.0,0.0,0.0,0.0,0.0,0.0,0.0,0.0,0.0,0.0,0.0,0.0,0.0,0.0,0.0,0.0,0.0,0.0,0.0,0.0,0.0,0.0,0.0,0.0,0.0,0.0,0.0,0.0,0.0,0.0,0.0,0.0,0.0,0.0,0.0,0.0,0.0,0.0,0.0,0.0,0.0,0.0,0.0,0.0,0.0,0.0,0.0,0.0,0.0,0.0,0.0,0.0,0.0,0.0,0.0,0.0,0.0,0.0,0.0,0.0,0.0,0.0,0.0,0.0,0.0,0.0,0.0,0.0,0.0,0.0,0.0,0.0,0.0,0.0,0.0,0.0,0.0,0.0,0.0,0.0,0.0,0.0,0.0,0.0,0.0,-2.8742,-2.8742,-2.8742,-2.8742,-2.8742,-2.8742,-2.8742,-2.8742,-2.8742,-2.8742,0.0,0.0,0.0,0.0,0.0,0.0,0.0,0.0,0.0,0.0,0.0,0.0,0.0,0.0,0.0,0.0,0.0,0.0,0.0,0.0,0.0,0.0,0.0,0.0,0.0,0.0,0.0,0.0,0.0,0.0,0.0,0.0,0.0,0.0,0.0,0.0,0.0,0.0,0.0,0.0,0.0,0.0,0.0,0.0,0.0,0.0,0.0,0.0,0.0,0.0,0.0,0.0,0.0,0.0,0.0,0.0,0.0,0.0,0.0,0.0,-2.1451,0.0,0.0,0.0,0.0,0.0,0.0,0.0,0.0,0.0,0.0,0.0,0.0,0.0,0.0,0.0,0.0,0.0,0.0,0.0,0.0,0.0,0.0,0.0,0.0,0.0,0.0,0.0,0.0,0.0,0.0,0.0,0.0,0.0,0.0,0.0,0.0,0.0,0.0,0.0,0.0,0.0,-2.9653,-2.9704,-2.9704,-2.9704,-2.9704,-2.9704,-2.9704,-2.9704,-2.9704,-2.9704,-2.9704,0.0,0.0,0.0,0.0,0.0,0.0,0.0,0.0,0.0,0.0,0.0,0.0,0.0,0.0,0.0,0.0,0.0,0.0,0.0,0.0,0.0,0.0,0.0,0.0,0.0,0.0,0.0,0.0,0.0,0.0,0.0,0.0,0.0,0.0,0.0,0.0,0.0,0.0,0.0,0.0,0.0,0.0,0.0,0.0,0.0,0.0,0.0,0.0,0.0,0.0,0.0,0.0,0.0,0.0,0.0,0.0,0.0,0.0,0.0,0.0,-2.2465,0.0,0.0,0.0,0.0,0.0,0.0,0.0,0.0,0.0,0.0,0.0,0.0,0.0,0.0,0.0,0.0,0.0,0.0,0.0,0.0,0.0,0.0,0.0,0.0,0.0,0.0,0.0,0.0,0.0,0.0,0.0,0.0,0.0,0.0,0.0,0.0,0.0,0.0,0.0,0.0,-2.9963,-2.9994,-2.9994,-2.9994,-2.9994,-2.9994,-2.9994,-2.9994,-2.9994,-2.9994,-2.9994,0.0,0.0,0.0,0.0,0.0,0.0,0.0,0.0,0.0,0.0,0.0,0.0,0.0,0.0,0.0,0.0,0.0,0.0,0.0,0.0,0.0,0.0,0.0,0.0,0.0,0.0,0.0,0.0,0.0,0.0,0.0,0.0,0.0,0.0,0.0,0.0,0.0,0.0,0.0,0.0,0.0,0.0,0.0,0.0,0.0,0.0,0.0,0.0,0.0,0.0,0.0,0.0,0.0,-2.3109,-2.2849,-2.2857,-2.3187,-2.2852,-2.2033,-2.2525,-2.2816,-2.312,-2.4914,0.0,0.0,0.0,0.0,0.0,0.0,0.0,0.0,0.0,0.0,0.0,0.0,0.0,0.0,0.0,0.0,0.0,0.0,0.0,0.0,0.0,0.0,0.0,0.0,-2.9994,-2.9787,0.0,0.0,0.0,0.0,0.0,0.0,0.0,0.0,0.0,0.0,0.0,0.0,-2.9994,-2.9994,-2.9994,-2.9994,-2.9994,-2.9994,-2.9994,-2.9994,-2.9994,-2.9994,-2.9994,-2.9994,0.0,0.0,0.0,0.0,0.0,0.0,0.0,0.0,0.0,0.0,0.0,0.0,0.0,0.0,0.0,0.0,0.0,0.0,0.0,0.0,0.0,0.0,0.0,0.0,0.0,0.0,0.0,0.0,0.0,0.0,0.0,0.0,-2.0925,-2.0925,0.0,0.0,0.0,0.0,0.0,0.0,0.0,0.0,0.0,0.0,0.0,0.0,0.0,-2.2135,-2.2286,-2.2135,-2.2135,-2.2286,-2.2183,-2.2154,-2.2154,-2.2202,-2.2119,-2.2057,-2.3106,0.0,-2.4945,-2.5255,0.0,0.0,0.0,0.0,0.0,0.0,0.0,0.0,0.0,0.0,0.0,0.0,0.0,0.0,0.0,0.0,0.0,0.0,0.0,0.0,0.0,0.0,-2.9922,-2.9984,-2.9994,-2.9963,0.0,-2.986,-2.9901,-2.9911,-2.9953,0.0,0.0,0.0,0.0,0.0,0.0,0.0,-2.9994,-2.9994,-2.9994,-2.9994,-2.9994,-2.9994,-2.9994,-2.9994,-2.9994,-2.9994,-2.9994,-2.9994,-2.9994,-2.9994,0.0,0.0,0.0,0.0,0.0,0.0,0.0,0.0,0.0,0.0,0.0,0.0,0.0,0.0,0.0,0.0,0.0,0.0,0.0,0.0,0.0,0.0,0.0,0.0,0.0,0.0,0.0,0.0,0.0,-2.0925,-2.0945,-2.1143,-2.1167,-2.1298,0.0,0.0,0.0,0.0,0.0,0.0,0.0,0.0,0.0,-2.2003,-2.2011,-2.2011,-2.2011,-2.2011,-2.2011,-2.2019,-2.2218,-2.2251,-2.2314,-2.2458,-2.2931,-2.3582,-2.411,-2.5281,-2.6893,-2.6437,-2.681,-2.7763,0.0,0.0,0.0,0.0,-2.9394,-2.9394,-2.9394,-2.9394,0.0,-2.9394,0.0,0.0,0.0,0.0,0.0,0.0,0.0,0.0,0.0,0.0,-2.9994,-2.9994,-2.9994,-2.9994,-2.9994,-2.9994,-2.9994,0.0,-2.9994,-2.9994,-2.9994,0.0,0.0,0.0,0.0,-2.9994,-2.9994,-2.9994,-2.9994,-2.9994,-2.9994,-2.9994,-2.9994,-2.9994,-2.9994,-2.9994,-2.9994,-2.9994,-2.9994,-2.9994,-2.9994,0.0,0.0,0.0,0.0,0.0,0.0,0.0,0.0,0.0,0.0,0.0,0.0,0.0,0.0,0.0,0.0,0.0,0.0,0.0,0.0,0.0,0.0,0.0,0.0,0.0,0.0,0.0,0.0,-2.1187,-2.1282,-2.1491,-2.1523,-2.1679,0.0,0.0,0.0,0.0,0.0,0.0,-2.2147,-2.2147,-2.2186,-2.2227,-2.2315,-2.2363,-2.2363,-2.2505,-2.2545,-2.2553,-2.2815,-2.2887,-2.2895,-2.3165,-2.395,-2.5117,-2.5396,-2.671,-2.8496,-2.7637,-2.7501,-2.7859,-2.9034,-2.9477,-2.9528,-2.987,-2.9994,-2.9994,-2.9994,-2.9994,-2.9994,-2.9994,0.0,-2.9994,-2.9994,0.0,0.0,0.0,0.0,-2.9994,-2.9994,-2.9994,-2.9994,-2.9994,-2.9994,-2.9994,-2.9994,-2.9994,-2.9994,0.0,-2.9994,-2.9994,-2.9994,0.0,0.0,0.0,0.0,-2.9994,-2.9994,-2.9994,-2.9994,-2.9994,-2.9994,-2.9994,-2.9994,-2.9994,-2.9994,-2.9994,-2.9994,-2.9994,-2.9994,-2.9994,-2.9994,-2.9994,0.0,0.0,0.0,0.0,0.0,0.0,0.0,0.0,0.0,0.0,0.0,0.0,0.0,0.0,0.0,0.0,0.0,0.0,0.0,0.0,0.0,0.0,0.0,0.0,0.0,0.0,0.0,0.0,0.0,-2.1987,-2.1987,0.0,0.0,0.0,0.0,-2.2011,-2.2011,-2.2154,-2.2442,-2.2458,-2.2617,-2.295,-2.3235,-2.3409,-2.3409,-2.3785,-2.4002,-2.4002,-2.4018,-2.4034,-2.4034,-2.405,-2.4745,-2.5996,-2.7077,-2.8324,-2.945,-2.8525,-2.882,-2.988,-2.9953,-2.9953,-2.9963,-2.9984,-2.9994,-2.9994,-2.9994,-2.9994,-2.9994,-2.9994,-2.9994,-2.9994,-2.9994,-2.9994,0.0,0.0,-2.9994,-2.9994,-2.9994,-2.9994,-2.9994,-2.9994,-2.9994,-2.9994,-2.9994,-2.9994,-2.9994,0.0,-2.9994,-2.9994,-2.9994,0.0,-2.9994,-2.9994,-2.9994,-2.9994,-2.9994,-2.9994,-2.9994,-2.9994,-2.9994,-2.9994,-2.9994,-2.9994,-2.9994,-2.9994,-2.9994,-2.9994,-2.9994,-2.9994,-2.9994,-2.9994,-2.9994,0.0,0.0,0.0,0.0,0.0,0.0,0.0,0.0,0.0,0.0,0.0,0.0,0.0,0.0,0.0,0.0,0.0,0.0,0.0,0.0,0.0,0.0,0.0,0.0,0.0,0.0,0.0,0.0,-2.233,-2.2299,0.0,-2.2617,-2.2633,-2.2633,-2.2633,-2.2847,-2.303,-2.3165,-2.3371,-2.3604,-2.3673,-2.3808,-2.3872,-2.3872,-2.4213,-2.4388,-2.4396,-2.4627,-2.473,-2.473,-2.473,-2.5911,-2.7885,-2.7973,-2.9193,-3.1111,-3.0502,-3.0486,-3.0853,-3.0553,-3.0439,-3.0398,-3.0108,-2.9994,-2.9994,-2.9994,-2.9994,-2.9994,-2.9994,-2.9994,-2.9994,-2.9994,-3.0201,-3.0439,-3.0439,-3.0657,-3.0884,-3.0884,-3.0884,-3.0884,-3.0884,-3.0884,-3.0884,-3.0884,-3.0884,-3.0884,-3.0884,-3.0398,-2.9994,-2.9994,-2.9994,-2.9994,-2.9994,-3.0253,-3.0439,-3.0439,-3.0698,-3.0884,-3.0884,-3.0884,-3.0884,-3.0884,-3.0884,-3.0884,-3.0884,-3.0884,-3.0884,-3.0884,-3.0884,-3.0884,-3.0884,-3.0884,-3.0884,0.0,0.0,0.0,0.0,0.0,0.0,0.0,0.0,0.0,0.0,0.0,0.0,0.0,0.0,0.0,0.0,0.0,0.0,0.0,0.0,0.0,0.0,0.0,0.0,0.0,0.0,-2.2402,-2.2633,-2.2768,-2.2934,-2.3173,-2.33,-2.3363,-2.3363,-2.3586,-2.3769,-2.3888,-2.411,-2.4344,-2.4404,-2.4523,-2.4587,-2.4587,-2.4936,-2.5173,-2.5111,-2.5342,-2.5461,-2.5461,-2.5951,-2.7276,-2.9296,-2.9505,-3.0752,-3.2706,-3.2406,-3.2282,-3.2199,-3.1278,-3.0915,-3.0884,-3.0574,-3.046,-3.046,-3.046,-3.046,-3.046,-3.046,-3.046,-3.046,-3.046,-3.0677,-3.0915,-3.0915,-3.1143,-3.1381,-3.1381,-3.1381,-3.1381,-3.1381,-3.1381,-3.1381,-3.1381,-3.1381,-3.1381,-3.1381,-3.0884,-3.046,-3.046,-3.046,-3.046,-3.046,-3.0729,-3.0915,-3.0915,-3.1184,-3.1381,-3.1381,-3.1381,-3.1381,-3.1381,-3.1381,-3.1381,-3.1381,-3.1516,-3.1598,-3.1598,-3.1598,-3.1598,-3.1598,-3.1598,-3.1681,-3.1836,0.0,0.0,0.0,0.0,0.0,0.0,0.0,0.0,0.0,0.0,0.0,0.0,0.0,0.0,0.0,0.0,0.0,0.0,0.0,0.0,0.0,0.0,0.0,-2.3014,-2.3022,-2.303,-2.303,-2.329,-2.3504,-2.3504,-2.3864,-2.4129,-2.4129,-2.4145,-2.4313,-2.4595,-2.4627,-2.4785,-2.5127,-2.5477,-2.5588,-2.5588,-2.5993,-2.6232,-2.6232,-2.624,-2.624,-2.6304,-2.7626,-2.8922,-3.0192,-3.1613,-3.2965,-3.4142,-3.4132,-3.4132,-3.3896,-3.2126,-3.1433,-3.1422,-3.1402,-3.1391,-3.1381,-3.1381,-3.1381,-3.1381,-3.1381,-3.1381,-3.1381,-3.1381,-3.1391,-3.1391,-3.1391,-3.1412,-3.1422,-3.1422,-3.1422,-3.1422,-3.1422,-3.1422,-3.1422,-3.1422,-3.1422,-3.1422,-3.1422,-3.1422,-3.1412,-3.1381,-3.1381,-3.1381,-3.1381,-3.1391,0.0,-3.1391,-3.1412,-3.1422,-3.1422,-3.1422,-3.1422,-3.1422,-3.1422,-3.1422,-3.1422,-3.1826,-3.2008,-3.2019,-3.2029,-3.2039,-3.205,-3.205,-3.2266,-3.2721,0.0,0.0,0.0,0.0,0.0,0.0,0.0,0.0,0.0,0.0,0.0,0.0,0.0,0.0,0.0,0.0,0.0,0.0,0.0,0.0,0.0,0.0,-2.3251,-2.3054,-2.3236,-2.3338,-2.3338,-2.3705,-2.3912,-2.3912,-2.4229,-2.4436,-2.4436,-2.4913,-2.5246,-2.5342,-2.558,-2.5826,-2.5921,-2.6017,-2.6073,-2.6073,-2.6423,-2.6525,-2.6598,-2.6787,-2.6914,-2.698,-2.8389,-2.9722,-3.1028,-3.2119,-3.3365,-3.4608,-3.4266,-3.4132,-3.4049,-3.3151,-3.2633,-3.2313,-3.1981,-3.165,-3.1381,-3.1381,-3.1381,-3.1381,-3.1381,-3.1381,-3.1381,-3.1381,-3.1598,-3.1857,-3.1857,-3.2095,-3.2364,-3.2364,-3.2364,-3.2364,-3.2364,-3.2364,-3.2364,-3.2364,-3.2364,-3.2364,-3.2364,-3.2364,-3.2147,-3.1485,-3.1381,-3.1381,-3.1381,-3.165,0.0,-3.1857,-3.2147,-3.2364,-3.2364,-3.2364,-3.2364,-3.2364,-3.2364,-3.2364,-3.2364,-3.2478,-3.2685,-3.2996,-3.3006,-3.3172,-3.3503,-3.3513,-3.3575,0.0,0.0,0.0,0.0,0.0,0.0,0.0,0.0,0.0,0.0,0.0,0.0,0.0,0.0,0.0,0.0,0.0,0.0,0.0,0.0,0.0,0.0,-2.3346,-2.3512,-2.3657,-2.3721,-2.3816,-2.3959,-2.4285,-2.4555,-2.4706,-2.5032,-2.53,-2.53,-2.562,-2.5914,-2.6064,-2.6263,-2.6503,-2.6581,-2.6589,-2.6589,-2.6589,-2.6795,-2.6899,-2.6899,-2.7105,-2.72,-2.7267,-2.8691,-3.0039,-3.1368,-3.2468,-3.3763,-3.5014,-3.4745,-3.4631,0.0,0.0,0.0,0.0,0.0,-3.2727,-3.2478,-3.2282,-3.2219,-3.2188,-3.2002,-3.194,-3.194,-3.194,-3.2126,-3.2277,-3.2277,-3.2463,-3.2669,-3.2669,-3.2669,-3.2669,-3.2669,-3.2669,-3.2669,-3.2669,-3.2669,-3.2669,-3.2669,-3.2669,0.0,-3.2033,-3.194,-3.194,-3.194,-3.2168,-3.2277,-3.2277,-3.2504,-3.2669,-3.2669,-3.2669,-3.2669,-3.2669,-3.2669,0.0,0.0,0.0,-3.311,-3.3368,-3.3379,0.0,0.0,0.0,-3.3875,-3.4132,0.0,0.0,0.0,-3.1264,-2.9612,0.0,0.0,0.0,0.0,0.0,0.0,0.0,0.0,0.0,0.0,0.0,0.0,0.0,0.0,0.0,0.0,-2.3639,-2.3951,-2.4611,-2.452,-2.4448,-2.4666,-2.5008,-2.5349,-2.5659,-2.6001,-2.6272,-2.6272,-2.6303,-2.6463,-2.6716,0.0,0.0,0.0,0.0,-2.732,-2.732,-2.732,-2.732,-2.732,-2.732,-2.732,-2.7387,-2.894,-3.0301,-3.1515,-3.3135,-3.4481,-3.5583,-3.5583,-3.5552,-3.5407,-3.4496,-3.4204,-3.4194,-3.4142,-3.4132,-3.401,-3.3596,0.0,0.0,-3.3006,-3.2882,-3.2882,-3.2882,-3.2882,-3.2882,-3.2882,-3.2882,-3.2882,-3.2882,-3.2882,-3.2882,-3.2882,-3.284,-3.2799,-3.2799,-3.2768,-3.2669,-3.2669,-3.2669,-3.2669,-3.2669,-3.2669,-3.2669,-3.2669,-3.2669,-3.2669,-3.2669,-3.2669,-3.2669,-3.2669,0.0,0.0,-3.2669,-3.2669,-3.2669,-3.2669,-3.3141,-3.3379,-3.3379,-3.343,-3.3451,-3.3451,-3.3451,-3.3658,-3.4132,-3.408,-3.3841,-3.3358,-3.1184,-3.0044,0.0,0.0,0.0,0.0,0.0,0.0,0.0,0.0,0.0,0.0,0.0,0.0,0.0,0.0,0.0,-2.4277,-2.4619,-2.4952,-2.5373,-2.5612,-2.573,-2.5461,-2.5739,-2.6033,-2.6104,-2.6431,-2.6573,-2.6573,-2.6835,-2.7026,-2.7097,-2.7367,-2.7558,-2.7629,-2.7884,-2.8027,-2.8027,-2.8027,-2.8027,-2.8027,0.0,0.0,-2.8087,-3.0702,-3.2029,-3.2427,-3.5007,-3.627,-3.6535,-3.6535,-3.6318,-3.5894,-3.4983,-3.4681,-3.464,-3.4266,-3.4132,-3.4111,-3.4028,-3.3938,-3.3927,-3.3834,-3.3803,-3.3803,-3.3803,-3.3803,0.0,-3.3803,-3.3803,-3.3803,-3.3803,-3.3803,-3.3803,-3.3803,-3.3524,-3.3254,-3.3254,-3.2975,-3.2669,-3.2669,-3.2669,-3.2669,-3.2669,-3.2669,-3.2669,-3.2669,-3.2669,-3.2669,-3.2669,-3.2669,-3.2669,-3.2669,-3.2669,-3.2669,-3.2669,-3.2669,-3.2669,-3.2669,-3.3141,-3.3379,-3.3379,-3.3731,-3.3938,-3.3938,-3.3938,-3.4038,-3.4132,-3.3689,-3.3461,-3.3379,-3.2892,-3.1678,0.0,0.0,0.0,0.0,0.0,0.0,0.0,0.0,0.0,0.0,0.0,-2.3387,0.0,0.0,-2.4237,-2.4762,-2.5143,-2.5556,-2.6088,-2.6303,-2.6407,-2.6176,-2.6311,-2.6542,-2.6652,-2.6835,-2.6938,-2.6938,-2.7272,-2.7471,-2.7471,-2.7788,-2.7979,-2.7979,-2.8138,-2.8225,-2.8225,-2.8225,-2.8225,-2.8225,-2.8225,-2.8225,-2.8225,-2.9705,-3.0717,-3.1536,-3.3728,-3.507,-3.5741,-3.6472,-3.667,-3.6411,-3.5956,-3.55,-3.5066,-3.4838,-3.4745,-3.4714,-3.4496,-3.4474,-3.4432,-3.4204,-3.4132,-3.4132,-3.4132,-3.4132,-3.4132,-3.4132,-3.4132,-3.4132,-3.4132,-3.4132,-3.4132,-3.4132,-3.3896,-3.372,-3.372,-3.3555,-3.3399,-3.3399,-3.3399,-3.3399,-3.3399,-3.3399,-3.3244,-3.2742,-3.2913,-3.3058,-3.3058,-3.3254,-3.3399,-3.3399,-3.3399,-3.3399,-3.3399,-3.3399,-3.3399,-3.3399,-3.3606,-3.372,-3.372,-3.4007,-3.4132,-3.4132,-3.4132,-3.4132,-3.4132,-3.3834,-3.372,-3.372,-3.372,-3.2822,0.0,0.0,0.0,0.0,0.0,0.0,0.0,0.0,-2.322,-2.3512,-2.3697,-2.3848,-2.4198,-2.4547,-2.4928,-2.5349,-2.5651,-2.6057,-2.6692,-2.6779,-2.6779,-2.6779,-2.6779,-2.6891,-2.7177,-2.72,-2.7232,-2.7296,-2.7566,-2.7757,-2.776,-2.8146,-2.8329,-2.8329,-2.8392,-2.8432,-2.8432,-2.8432,-2.8432,-2.8432,-2.8432,-2.8432,-2.8432,-2.8694,-2.9586,-3.1087,-3.2838,-3.425,-3.5383,-3.6507,-3.6939,-3.6929,-3.6846,-3.6349,-3.5676,-3.5594,-3.55,-3.5376,-3.5014,-3.4951,-3.4828,-3.4455,-3.4331,-3.4331,-3.4331,-3.4331,-3.4331,-3.4331,-3.4331,-3.4331,-3.4331,-3.4331,-3.4331,-3.4331,-3.4269,-3.4266,-3.4266,-3.4194,-3.4132,-3.4132,-3.4132,-3.4132,-3.4132,-3.4132,-3.3824,-3.3099,-3.3285,-3.3572,-3.3572,-3.3893,-3.4132,-3.4132,-3.4132,-3.4132,-3.4132,-3.4132,-3.4132,-3.4132,-3.4132,-3.4132,-3.4132,-3.4132,-3.4132,-3.4132,-3.4132,-3.4132,-3.4132,-3.4132,-3.4132,-3.4132,-3.4132,-3.3551,-2.3101,-2.3014,-2.3093,-2.3346,-2.3195,-2.3181,0.0,0.0,-2.3586,-2.392,-2.4245,-2.4571,-2.4921,-2.5278,-2.5731,-2.639,-2.6533,-2.6692,-2.7089,-2.7145,-2.7145,-2.7145,-2.7145,-2.7161,-2.72,-2.72,-2.7335,-2.7645,-2.7709,-2.786,-2.8154,-2.8511,-2.871,-2.871,-2.9012,-2.9179,-2.9179,-2.9179,-2.9179,-2.9179,-2.9179,-2.9179,-2.925,-3.0551,-3.1922,-3.3509,-3.636,-3.7683,-3.7796,-3.7515,-3.7415,-3.7374,-3.697,-3.6742,-3.6597,-3.6194,-3.5769,-3.5418,-3.5366,-3.5345,-3.5335,-3.5283,-3.5262,-3.5262,-3.5262,-3.5262,-3.5262,-3.5262,-3.5262,-3.5262,-3.5262,-3.5262,-3.5262,-3.5262,-3.4962,-3.4743,-3.4743,-3.4411,-3.4132,-3.4132,-3.4132,-3.4132,-3.4132,-3.4132,-3.4031,-3.3938,-3.3958,-3.3989,-3.3989,-3.41,-3.4132,-3.4132,-3.4132,-3.4132,-3.4132,-3.4132,-3.4132,-3.4132,-3.4132,-3.4132,-3.4132,-3.4132,-3.4132,-3.4132,-3.4132,-3.4132,-3.4132,-3.4132,-3.4132,-3.4132,-3.4132,-3.3891,-2.4786,-2.4032,0.0,0.0,-2.3578,-2.3451,-2.4002,-2.4102,-2.4245,-2.4595,-2.4952,-2.5302,-2.5651,-2.6001,-2.6335,0.0,-2.6843,-2.7034,-2.7185,-2.72,-2.72,-2.72,-2.72,-2.72,-2.72,-2.72,-2.7351,-2.7633,-2.7907,-2.817,-2.8519,-2.8877,-2.9075,-2.9075,-2.9218,-2.9298,-2.9298,-2.9298,-2.9298,-2.9298,-2.9298,-2.9783,-3.0614,-3.1226,-3.2752,-3.5042,-3.6296,-3.7348,-3.8171,-3.7974,-3.7902,-3.7881,-3.7684,-3.7446,-3.7146,-3.668,-3.639,-3.6194,-3.5914,-3.5821,-3.578,-3.5511,-3.5418,-3.5418,-3.5418,-3.5418,-3.5418,-3.5418,-3.5418,-3.5418,-3.5418,-3.5418,-3.5418,-3.5418,-3.5273,-3.5148,-3.5148,-3.4993,-3.4859,-3.4859,-3.4859,-3.4859,-3.4859,-3.4859,-3.4859,-3.4859,-3.4641,-3.4536,-3.4536,-3.4693,-3.4859,-3.4859,-3.4859,-3.4859,-3.4859,-3.4859,-3.4859,-3.4859,-3.4859,-3.4859,-3.4859,-3.4859,-3.4859,-3.4859,-3.4859,-3.4859,-3.4859,-3.4859,-3.4859,-3.4859,-3.4676,-3.4483,-2.5998,0.0,0.0,-2.411,-2.3935,-2.3824,-2.4364,-2.4611,-2.4857,-2.5302,-2.5675,-2.6001,-2.6311,-2.6581,-2.6819,-2.6819,-2.7034,-2.72,-2.72,-2.72,-2.72,-2.72,-2.72,-2.72,-2.72,-2.7288,-2.7494,-2.7836,-2.8178,-2.8527,-2.8893,-2.9155,-2.9298,-2.9298,-2.9298,-2.9298,-2.9298,-2.9298,-2.9505,-2.9918,-2.9918,-3.0676,-3.2123,-3.2552,-3.3872,-3.5957,-3.6374,-3.7136,-3.8181,-3.8181,-3.8181,-3.8181,-3.8181,-3.7974,-3.7643,-3.7301,-3.7022,-3.6753,-3.6422,-3.6297,-3.6246,-3.5914,-3.5718,-3.5614,-3.5614,-3.5521,-3.5418,-3.5418,-3.5418,-3.5418,-3.5418,-3.5418,-3.5418,-3.5418,-3.5418,-3.5418,-3.5418,-3.5418,-3.5418,-3.5418,-3.5418,-3.5418,-3.5418,-3.5418,-3.5418,-3.5418,-3.5148,-3.4941,-3.4941,-3.5221,-3.5418,-3.5418,-3.5418,-3.5418,-3.5418,-3.5418,-3.5418,-3.5418,-3.5418,-3.5418,-3.5418,-3.5418,-3.5418,-3.5418,-3.5418,-3.5418,-3.5418,-3.5418,-3.5418,-3.5418,-3.517,-3.4984,0.0,0.0,-2.4177,-2.4476,-2.436,-2.4309,-2.5349,-2.5334,-2.5286,-2.6041,-2.6463,-2.6644,-2.6652,-2.6946,-2.7185,-2.7185,-2.7193,-2.72,-2.72,-2.72,-2.72,-2.72,-2.72,-2.72,0.0,-2.7518,-2.7852,-2.8186,-2.8543,-2.8908,-2.9266,-2.929,-2.9298,-2.9298,-2.9298,-2.9298,-2.9298,-2.9298,-2.9989,-3.1437,-3.1437,-3.2193,-3.3707,-3.511,-3.5811,-3.5957,-3.7492,-3.8181,-3.8181,-3.8181,-3.8181,-3.8181,-3.8181,-3.8181,-3.816,-3.815,-3.757,-3.6804,-3.6784,-3.6784,-3.6784,-3.6763,-3.6463,-3.609,-3.609,-3.578,-3.5418,-3.5418,-3.5418,-3.5418,-3.5418,-3.5418,-3.5418,-3.5418,-3.5418,-3.5418,-3.5418,-3.5418,-3.5418,-3.5418,-3.5418,-3.5418,-3.5418,-3.5418,-3.5418,-3.5418,-3.5407,-3.5407,-3.5407,-3.5418,-3.5418,-3.5418,-3.5418,-3.5418,-3.5418,-3.5418,-3.5418,-3.5418,-3.5418,-3.5418,-3.5418,-3.5418,-3.5418,-3.5418,-3.5418,-3.5418,-3.5418,-3.5418,-3.5418,-3.5418,-3.5366,-3.5232,-2.754,0.0,-2.4547,-2.5135,-2.5016,-2.4968,-2.5786,-2.6064,-2.6215,-2.6446,-2.6779,-2.7026,-2.7026,-2.7121,-2.72,-2.72,-2.72,-2.72,-2.72,-2.72,-2.72,-2.72,-2.72,0.0,0.0,0.0,0.0,-2.8193,-2.8559,-2.8924,-2.9282,-2.9298,-2.9298,-2.9298,-2.9298,-2.9298,-2.9298,-3.0266,-3.1022,-3.1508,-3.3448,-3.4699,-3.5178,-3.6712,-3.7415,-3.7415,-3.7971,-3.8181,-3.8181,-3.8181,-3.8181,-3.8181,-3.8181,-3.8181,-3.8181,-3.8181,-3.7995,-3.7674,-3.7363,-3.726,-3.7208,-3.6908,-3.6701,-3.6566,-3.6566,-3.6463,-3.6339,-3.6339,-3.6339,-3.6339,-3.6339,-3.6339,-3.6339,-3.6339,-3.6101,-3.5883,-3.5883,-3.5645,-3.5418,-3.5418,-3.5418,-3.5418,-3.5418,-3.5418,-3.5418,-3.5418,-3.5418,-3.5418,-3.5418,-3.5418,-3.5418,-3.5418,-3.5418,-3.5418,-3.5418,-3.5418,-3.5418,-3.5418,-3.5418,-3.5418,-3.5418,-3.5418,-3.5418,-3.5418,-3.5418,-3.5418,-3.5418,-3.5418,-3.5418,-3.5418,-3.517,-3.4859,-2.7916,-2.6396,-2.5071,-2.5462,-2.5556,-2.5628,-2.6272,-2.6479,-2.6622,-2.6811,-2.6938,-2.705,-2.7185,-2.72,-2.72,-2.72,-2.72,-2.72,-2.72,-2.72,-2.72,-2.72,-2.7312,0.0,0.0,0.0,0.0,-2.84,-2.875,-2.9051,-2.9282,-2.9298,-2.9298,-2.9298,-2.9298,-2.9577,-3.0053,-3.1022,-3.2062,-3.311,-3.4973,-3.6161,-3.6789,-3.777,-3.8181,-3.8181,-3.8181,-3.8181,-3.8181,-3.8181,-3.8181,-3.8181,-3.8181,-3.8181,-3.8181,-3.8181,-3.8181,-3.814,-3.7839,-3.7736,-3.7695,-3.7394,-3.7187,-3.7053,-3.7053,-3.6939,-3.6804,-3.6804,-3.6804,-3.6804,-3.6804,-3.6804,-3.6804,-3.6804,-3.6577,-3.6359,-3.6359,-3.6121,-3.5914,-3.5914,-3.5914,-3.5914,-3.5914,-3.5914,-3.5914,-3.5914,-3.5914,-3.5801,-3.5469,-3.5418,-3.5418,-3.5418,-3.5418,-3.5418,-3.5418,-3.5418,-3.5418,-3.5418,-3.5418,-3.5418,-3.5418,-3.5418,-3.5418,-3.5418,-3.5418,-3.5418,-3.5418,-3.5418,-3.5418,-3.5418,-3.5046,-3.4797,-2.7185,-2.6323,-2.5581,-2.5659,-2.5906,-2.6303,-2.6597,-2.6479,-2.6423,-2.7076,-2.7022,-2.6903,0.0,0.0,-2.7227,-2.72,-2.7193,-2.7185,-2.72,-2.72,-2.72,0.0,0.0,0.0,0.0,0.0,0.0,-2.8797,0.0,-2.9298,-2.9298,-2.9298,-2.9298,-2.9298,-2.9361,-3.0053,-3.1508,-3.1578,-3.304,-3.5879,-3.5899,-3.6742,-3.8181,-3.8212,-3.8212,-3.8181,-3.8181,-3.8181,-3.8181,-3.8181,-3.8181,-3.8181,-3.8181,-3.8181,-3.8181,-3.8181,-3.8181,-3.8181,-3.8181,-3.8181,-3.8181,-3.8181,-3.7891,-3.7529,-3.7529,-3.7218,-3.6877,-3.6877,-3.6877,-3.6877,-3.6877,-3.6877,-3.6877,-3.6877,-3.6856,-3.6846,-3.6846,-3.6825,-3.6804,-3.6804,-3.6804,-3.6804,-3.6804,-3.6804,-3.6804,-3.6804,-3.6804,-3.6484,-3.5604,-3.549,-3.549,-3.549,-3.549,-3.548,-3.5459,-3.5459,-3.5449,-3.5418,-3.5418,-3.5418,-3.5418,-3.5418,-3.5418,-3.5418,-3.5418,-3.5418,-3.5418,-3.5356,-3.5356,-3.5356,-3.5046,-3.4859,-2.6796,-2.6064,-2.5699,-2.5953,-2.6144,-2.6303,-2.6597,-2.6605,-2.6834,-2.7694,-2.8003,-2.8162,0.0,0.0,0.0,-2.7246,-2.6986,0.0,-2.7169,-2.72,0.0,0.0,0.0,-2.7828,-2.8074,-2.8503,0.0,0.0,-2.9242,-2.9298,-2.9298,-2.9298,-2.9298,-2.9298,-3.0409,-3.1093,-3.1508,-3.2613,-3.4061,-3.5889,-3.626,-3.7021,-3.8202,-3.8533,-3.8502,-3.8181,-3.8181,-3.8181,-3.8181,-3.8181,-3.8181,-3.8181,-3.8181,-3.8181,-3.8181,-3.8181,-3.8181,-3.8181,-3.8181,-3.8181,-3.8181,-3.8181,-3.8109,-3.8005,-3.8005,-3.7933,-3.7829,-3.7829,-3.7829,-3.7829,-3.7829,-3.7829,-3.7829,-3.7829,-3.757,-3.7322,-3.7322,-3.7053,-3.6804,-3.6804,-3.6804,-3.6804,-3.6804,-3.6804,-3.6804,-3.6804,-3.6804,-3.6711,-3.6484,-3.6453,-3.6453,-3.6453,-3.6453,-3.6308,-3.5966,-3.5935,-3.579,-3.5438,-3.5418,-3.5418,-3.5418,-3.5418,-3.5418,-3.5418,-3.5418,-3.5418,-3.5418,-3.517,-3.5046,-3.5046,-3.4673,-3.4423,-2.709,-2.6352,-2.5906,-2.616,-2.6327,-2.6495,-2.6628,-2.6882,-2.7311,-2.8112,-2.8789,0.0,0.0,0.0,0.0,0.0,0.0,0.0,-2.6938,-2.7105,-2.7256,0.0,-2.7741,0.0,-2.8432,-2.8789,-2.9083,0.0,-2.9298,-2.9298,-2.9298,-2.9298,-2.9298,-2.9298,-3.0747,-3.1867,-3.2738,-3.3735,-3.4948,-3.6445,-3.6738,-3.7578,-3.8792,-3.8962,-3.8951,-3.8781,0.0,-3.8781,-3.8781,-3.8781,-3.8781,-3.8761,-3.8554,-3.8471,-3.845,-3.8264,-3.8181,-3.8181,-3.8181,-3.8181,-3.8181,-3.8181,-3.8181,-3.8181,-3.8181,-3.8181,-3.8181,-3.8181,-3.8181,-3.8181,-3.8181,-3.8181,-3.8181,-3.8181,-3.7984,-3.7798,-3.7798,-3.7591,-3.7415,-3.7415,-3.7415,-3.7415,-3.7415,-3.7415,-3.7415,-3.7415,-3.7415,-3.7415,-3.7415,-3.7053,-3.6804,-3.6804,-3.6804,-3.6701,-3.6442,-3.6411,-3.6308,-3.6039,-3.6028,-3.6028,-3.6028,-3.6028,-3.6028,-3.6028,-3.6028,-3.6028,-3.6028,-3.565,-3.5524,-3.5513,-3.5006,-3.4614,-2.7861,-2.7044,-2.6391,-2.6391,-2.6432,-2.6598,-2.6793,-2.7184,-2.7758,-2.8728,0.0,-3.0451,-3.0749,0.0,-2.8878,-2.8738,0.0,-2.6676,-2.6676,-2.6978,-2.7335,-2.7685,-2.8019,-2.8368,-2.8734,-2.9091,-2.9369,-2.9577,-2.9568,-2.9505,-2.9298,-2.9505,-2.9736,-2.9991,-3.1035,-3.2464,-3.4342,-3.4752,-3.564,-3.7226,-3.7346,-3.8137,-3.9468,-3.953,-3.953,-3.9468,-3.9468,0.0,-3.9468,-3.9468,-3.9468,-3.9437,-3.9034,-3.8869,-3.8827,-3.8512,-3.8367,-3.8357,-3.8295,-3.8274,-3.8264,-3.8202,-3.8181,-3.8181,-3.8181,-3.8181,-3.8181,-3.8181,-3.8181,-3.8181,-3.8181,-3.8181,-3.8181,-3.8181,-3.8181,-3.8181,-3.8181,-3.8181,-3.8181,-3.8181,-3.8181,-3.8181,-3.8181,-3.8181,-3.8181,-3.8181,-3.8181,-3.8181,-3.8181,-3.7488,-3.6991,-3.6991,-3.6991,-3.696,-3.6898,-3.6898,-3.6867,-3.6804,-3.6804,-3.6804,-3.6804,-3.6804,-3.6804,-3.6804,-3.674,-3.674,-3.674,-3.6343,-3.615,-3.615,-3.5481,-3.5155,-2.8833,-2.7992,-2.7247,-2.7247,-2.651,-2.6063,-2.7106,-2.7433,0.0,0.0,0.0,-3.1664,-3.1742,-3.0698,0.0,-2.8823,0.0,0.0,0.0,0.0,-2.7335,0.0,0.0,0.0,0.0,0.0,0.0,0.0,0.0,-3.0614,-2.9361,-3.0471,-3.1866,-3.3384,-3.247,-3.2867,-3.4754,-3.4899,-3.5712,-3.7287,-3.772,-3.8437,-3.9478,-3.993,-3.9899,-3.9468,-3.9468,0.0,-3.9468,-3.9468,-3.9468,-3.9457,-3.9385,-3.9354,-3.9344,-3.9261,-3.9299,-3.9247,-3.8796,-3.8662,-3.8678,-3.8305,-3.8181,-3.8181,-3.8181,-3.8181,-3.8181,-3.8181,-3.8181,-3.8181,-3.8181,-3.8181,-3.8181,-3.8181,-3.8181,-3.8181,-3.8181,-3.8181,-3.8181,-3.8181,-3.8181,-3.8181,-3.8181,-3.8181,-3.8181,-3.8181,-3.8181,-3.8181,-3.8181,-3.8046,-3.7943,-3.7943,-3.7943,-3.7788,-3.7405,-3.7374,-3.7208,-3.6825,-3.6804,-3.6804,-3.6804,-3.6804,-3.6804,-3.6804,-3.6547,-3.6418,-3.6418,-3.5751,-3.5416,-3.5351,-3.4959,-3.4763,-3.0125,-2.9369,-2.8316,-2.7648,-2.7038,-2.6736,-2.7339,0.0,0.0,0.0,0.0,-3.3145,-3.3437,0.0,0.0,0.0,0.0,0.0,0.0,0.0,0.0,0.0,0.0,0.0,0.0,0.0,0.0,0.0,0.0,-3.2333,-3.164,-3.1696,-3.2161,-3.3056,-3.2821,-3.3471,-3.5184,-3.6255,-3.7153,-3.7962,-3.8976,-3.978,-4.0241,-4.0468,-4.0448,-4.023,-4.023,0.0,-4.023,-4.023,-4.023,-4.021,-3.9992,-3.9829,-3.9798,-3.9561,-3.9468,-3.9437,-3.922,-3.9137,-3.9106,-3.8957,-3.8574,-3.8181,-3.8181,-3.8181,-3.8181,-3.8181,-3.8181,-3.8181,-3.8181,-3.8181,-3.8181,-3.8181,-3.8181,-3.8181,-3.8181,-3.8181,-3.8181,-3.8181,-3.8181,-3.8181,-3.8181,-3.8181,-3.8181,-3.8181,-3.8181,-3.8181,-3.8181,-3.8181,-3.8181,-3.8181,-3.8181,-3.8098,-3.7871,-3.785,-3.7757,-3.7539,-3.7519,-3.7519,-3.7519,-3.7519,-3.7453,-3.7246,-3.7049,-3.6917,-3.6719,-3.617,-3.5894,-3.5894,-3.5514,-3.5391,-3.1279,-3.0579,-2.9397,-2.8132,-2.7581,-2.7467,-2.7765,-2.8431,0.0,0.0,0.0,-3.438,-3.4754,0.0,0.0,0.0,0.0,0.0,0.0,0.0,0.0,0.0,0.0,0.0,0.0,0.0,0.0,0.0,0.0,0.0,-3.3835,-3.24,-3.1871,-3.2746,-3.3042,-3.4127,-3.6116,-3.7676,-3.8651,-3.9024,-4.0289,-4.0872,-4.0872,-4.0872,-4.0872,-4.0872,-4.0872,0.0,0.0,-4.0872,-4.0872,-4.0841,-4.0499,-4.0365,-4.0323,-3.9961,-3.9827,-3.9816,-3.9654,-3.9623,-3.9602,-3.9499,-3.8988,-3.8326,-3.8326,-3.8264,-3.8181,-3.8181,-3.8181,-3.8181,-3.8181,-3.8181,-3.8181,-3.8181,-3.8181,-3.8181,-3.8181,-3.8181,-3.8181,-3.8181,-3.8181,-3.8181,-3.8181,-3.8181,-3.8181,-3.8181,-3.8181,-3.8181,-3.8181,-3.8181,-3.8181,-3.8181,-3.8181,-3.8181,-3.8181,-3.8181,-3.8181,-3.8181,-3.8181,-3.8181,-3.8181,-3.8181,-3.8037,-3.776,-3.7549,-3.7348,-3.7079,-3.6596,-3.6393,-3.6393,-3.6142,-3.6016,-3.1912,-3.1297,-3.0343,-2.9094,-2.79,-2.7366,-2.8498,0.0,0.0,0.0,-3.4044,-3.4774,-3.4816,-3.4009,0.0,0.0,0.0,0.0,0.0,0.0,0.0,0.0,0.0,0.0,0.0,0.0,0.0,0.0,0.0,0.0,-3.4327,-3.157,-3.1616,-3.5057,-3.3909,-3.4841,-3.8229,-3.8414,-3.9241,-4.0658,-4.0801,-4.0872,-4.0872,-4.0872,-4.0872,-4.0872,-4.0872,0.0,0.0,-4.0872,-4.0872,-4.0872,-4.0831,-4.082,-4.081,-4.0768,-4.0758,-4.0696,-4.0303,-4.0168,-4.0096,-3.9612,-3.9137,-3.8714,-3.8714,-3.8502,-3.8181,-3.8181,-3.8181,-3.8181,-3.8181,-3.8181,-3.8181,-3.8181,-3.8181,-3.8181,-3.8181,-3.8181,-3.8181,-3.8181,-3.8181,-3.8181,-3.8181,-3.8181,-3.8181,-3.8181,-3.8181,-3.8181,-3.8181,-3.8181,-3.8181,-3.8181,-3.8181,-3.8181,-3.8181,-3.8181,-3.8181,-3.8181,-3.8181,-3.8181,-3.8181,-3.8181,-3.8181,-3.8114,-3.7492,-3.7146,-3.7079,-3.6413,-3.6084,-3.6084,-3.6016,-3.6016,-3.164,-3.1431,-3.0761,-2.8907,-2.867,-2.8852,-2.8865,0.0,0.0,-3.3377,-3.437,-3.4838,-3.5107,-3.4646,-3.3799,0.0,0.0,0.0,0.0,0.0,0.0,0.0,0.0,0.0,0.0,0.0,0.0,0.0,0.0,0.0,-3.4731,-3.3553,-3.3665,-3.5522,-3.6072,-3.7083,-3.8506,-3.9468,-4.0279,-4.0872,-4.0872,-4.0872,-4.0872,-4.0872,-4.0872,-4.0872,-4.0872,0.0,0.0,-4.0872,-4.0872,-4.0872,-4.0872,-4.0872,-4.0872,-4.0872,-4.0872,-4.0851,-4.0675,-4.0613,-4.0582,-4.0406,-4.0044,-3.9509,-3.8951,-3.8719,-3.8533,-3.8264,-3.8181,-3.8181,-3.8181,-3.8181,-3.8181,-3.8181,-3.8181,-3.8181,-3.8181,-3.8181,-3.8181,-3.8181,-3.8181,-3.8181,-3.8181,-3.8181,-3.8181,-3.8181,-3.8181,-3.8181,-3.8181,-3.8181,-3.8181,-3.8181,-3.8181,-3.8181,-3.8181,-3.8181,-3.8181,-3.8181,-3.8181,-3.8181,-3.8181,-3.8181,-3.7971,-3.7569,-3.7223,-3.6886,-3.6413,-3.6152,-3.6016,-3.6016,-3.6016,-3.6016,-3.1381,-3.1474,-3.1121,-2.9231,-2.9565,-3.0151,0.0,0.0,0.0,-3.3752,-3.4538,-3.5045,-3.5366,-3.5055,-3.4348,0.0,0.0,0.0,0.0,0.0,0.0,0.0,0.0,0.0,0.0,0.0,0.0,0.0,0.0,0.0,0.0,-3.5504,-3.5884,-3.6426,-3.7759,-3.8734,-3.9179,-4.0351,-4.0872,-4.0872,-4.0872,-4.0872,-4.0872,-4.0872,-4.0872,-4.0872,-4.0872,0.0,0.0,-4.0872,-4.0872,-4.0872,-4.0872,-4.0872,-4.0872,-4.0872,-4.0872,-4.0872,-4.0872,-4.0872,-4.0872,-4.0872,-4.0675,-4.0251,-3.9261,-3.8889,-3.8693,-3.8316,-3.8181,-3.8181,-3.8181,-3.8181,-3.8181,-3.8181,-3.8181,-3.8181,-3.8181,-3.8181,-3.8181,-3.8181,-3.8181,-3.8181,-3.8181,-3.8181,-3.8181,-3.8181,-3.8181,-3.8181,-3.8181,-3.8181,-3.8181,-3.8181,-3.8181,-3.8181,-3.8181,-3.8181,-3.8181,-3.8181,-3.8181,-3.8181,-3.8181,-3.8181,-3.7904,-3.728,-3.7146,-3.6809,-3.6142,-3.6084,-3.6016,-3.6016,-3.6016,-3.6016,-3.1381,-3.1702,-3.1687,-3.0403,-3.044,-3.082,0.0,0.0,0.0,-3.3824,-3.4786,-3.5418,-3.5418,-3.5055,-3.4671,-3.4145,-3.2653,0.0,0.0,0.0,0.0,0.0,0.0,0.0,0.0,0.0,0.0,0.0,0.0,0.0,0.0,-3.7042,-3.7607,-3.8467,-3.8506,-3.9251,-4.0872,-4.0872,-4.0872,-4.0872,-4.0872,-4.0872,-4.0872,-4.0872,-4.0872,0.0,0.0,0.0,0.0,-4.0872,-4.0872,-4.0872,-4.0872,-4.0872,-4.0872,-4.0872,-4.0872,-4.0872,-4.0872,-4.0872,-4.0872,-4.0872,-4.0872,-4.0706,-3.9806,-3.9148,-3.8693,-3.8316,-3.8181,-3.8181,-3.8181,-3.8181,-3.8181,-3.8181,-3.8181,-3.8181,-3.8181,-3.8181,-3.8181,-3.8181,-3.8181,-3.8181,-3.8181,-3.8181,-3.8181,-3.8181,-3.8181,-3.8181,-3.8181,-3.8181,-3.8181,-3.8181,-3.8181,-3.8181,-3.8181,-3.8181,-3.8181,-3.8181,-3.8181,-3.8181,-3.8181,-3.8181,-3.7981,-3.7616,-3.728,-3.6866,-3.6509,-3.6142,-3.6016,-3.6016,-3.6016,-3.6016,-3.1464,-3.1474,-3.1373,-3.0335,-3.0863,-3.1543,-3.1309,0.0,0.0,0.0,-3.5014,-3.5418,-3.5418,-3.4807,-3.4297,-3.4093,-3.3069,-3.1937,0.0,0.0,0.0,0.0,0.0,0.0,0.0,0.0,0.0,0.0,0.0,0.0,0.0,-3.7696,-3.8763,-3.9597,-3.9983,-4.0361,-4.0872,-4.0872,-4.0872,-4.0872,-4.0872,-4.0872,-4.0872,-4.0872,-4.0872,0.0,0.0,0.0,0.0,-4.0872,-4.0872,-4.0872,-4.0872,-4.0872,-4.0872,-4.0872,-4.0872,-4.0872,-4.0872,-4.0872,-4.0872,-4.0872,-4.0872,-4.0706,-3.9806,-3.9375,-3.9164,-3.8398,-3.8181,-3.8181,-3.8181,-3.8181,-3.8181,-3.8181,-3.8181,-3.8181,-3.8181,-3.8181,-3.8181,-3.8181,-3.8181,-3.8181,-3.8181,-3.8181,-3.8181,-3.8181,-3.8181,-3.8181,-3.8181,-3.8181,-3.8181,-3.8181,-3.8181,-3.8181,-3.8181,-3.8181,-3.8181,-3.8181,-3.8181,-3.8181,-3.8181,-3.7971,-3.7626,-3.728,-3.6866,-3.6529,-3.6142,-3.6084,-3.6016,-3.6016,-3.6016,-3.6016,0.0,-3.1495,-3.1525,-3.0977,-3.1527,0.0,0.0,0.0,0.0,0.0,0.0,0.0,-3.52,-3.4569,-3.401,-3.3834,-3.3203,0.0,0.0,0.0,0.0,0.0,0.0,0.0,0.0,0.0,0.0,0.0,0.0,0.0,0.0,-3.8187,-3.9044,-3.9623,-4.0137,-4.0458,-4.0634,-4.0634,-4.0717,-4.0872,-4.0872,-4.0872,-4.0872,-4.0872,-4.0872,0.0,0.0,0.0,0.0,-4.0872,-4.0872,-4.0872,-4.0872,-4.0872,-4.0872,-4.0872,-4.0872,-4.0872,-4.0872,-4.0872,-4.0872,-4.0872,-4.0644,-4.023,-3.9506,-3.9164,-3.8916,-3.8347,-3.8181,-3.8181,-3.8181,-3.8181,-3.8181,-3.8181,-3.8181,-3.8181,-3.8181,-3.8181,-3.8181,-3.8181,-3.8181,-3.8181,-3.8181,-3.8181,-3.8181,-3.8181,-3.8181,-3.8181,-3.8181,-3.8181,-3.8181,-3.8181,-3.8181,-3.8181,-3.8181,-3.8181,-3.8181,-3.8181,-3.8048,-3.7971,-3.7971,-3.7626,-3.7213,-3.6866,-3.6654,-3.6326,-3.6016,-3.6016,-3.6016,-3.6016,-3.6016,-3.6016,0.0,0.0,0.0,0.0,0.0,0.0,0.0,0.0,0.0,0.0,0.0,0.0,0.0,0.0,-3.3976,-3.3451,-3.3037,0.0,0.0,0.0,0.0,0.0,0.0,0.0,0.0,0.0,0.0,0.0,0.0,0.0,0.0,-3.8574,-3.8734,-3.8734,-3.9148,-3.9682,-4.0179,-4.0179,-4.0386,-4.0779,-4.0779,-4.0779,-4.0779,-4.081,-4.0831,0.0,0.0,0.0,0.0,-4.0872,-4.0872,-4.0872,-4.0872,-4.0872,-4.0872,-4.0872,-4.0872,-4.0872,-4.0872,-4.0872,-4.0872,-4.0841,-4.022,-3.9344,-3.891,-3.8533,-3.8181,-3.8181,-3.8181,-3.8181,-3.8181,-3.8181,-3.8181,-3.8181,-3.8181,-3.8181,-3.8181,-3.8181,-3.8181,-3.8181,-3.8181,-3.8181,-3.8181,-3.8181,-3.8181,-3.8181,-3.8181,-3.8181,-3.8181,-3.8181,-3.8181,-3.8181,-3.8181,-3.8181,-3.8181,-3.8181,-3.8191,-3.8181,-3.7837,-3.7616,-3.7549,-3.7213,-3.6866,-3.6519,-3.6451,-3.6326,-3.6016,-3.6016,-3.6016,-3.6016,-3.6016,-3.6016,-3.1988,0.0,-3.2514,-3.2514,0.0,0.0,0.0,0.0,0.0,0.0,0.0,0.0,0.0,0.0,0.0,0.0,0.0,0.0,0.0,0.0,0.0,0.0,0.0,0.0,0.0,0.0,0.0,0.0,0.0,0.0,0.0,-3.8285,-3.8336,-3.8336,-3.845,-3.8885,-3.9623,-3.9633,-3.9754,-3.9847,-3.9847,-3.9847,-3.9868,-4.0189,-4.0365,0.0,0.0,0.0,-4.0872,-4.0872,-4.0872,-4.0872,-4.0872,-4.0872,-4.0872,-4.0872,-4.0872,-4.0872,-4.0872,-4.0872,-4.082,-4.0489,-3.9765,-3.892,-3.8807,-3.8533,-3.8181,-3.8181,-3.8181,-3.8181,-3.8181,-3.8181,-3.8181,-3.8181,-3.8181,-3.8181,-3.8181,-3.8181,-3.8181,-3.8181,-3.8181,-3.8181,-3.8181,-3.8181,-3.8181,-3.8181,-3.8181,-3.8181,-3.8181,-3.8181,-3.8181,-3.8181,-3.8181,-3.8181,-3.8181,-3.8181,-3.8048,-3.776,-3.7616,-3.7482,-3.7213,-3.6866,-3.6586,-3.6519,-3.6268,-3.6084,-3.6016,-3.6016,-3.6016,-3.6016,-3.6016,-3.6016,-3.237,-3.2483,-3.2669,-3.2669,-3.2669,-3.2965,0.0,0.0,0.0,0.0,0.0,0.0,0.0,0.0,0.0,0.0,0.0,0.0,0.0,0.0,0.0,0.0,0.0,0.0,0.0,0.0,0.0,0.0,0.0,0.0,0.0,-3.8181,-3.8181,-3.8181,-3.8181,-3.8523,-3.9148,-3.9158,-3.9261,-3.9468,-3.9468,-3.9468,-3.9478,-3.9785,-3.9899,0.0,0.0,0.0,-4.0603,-4.0789,-4.0872,-4.0872,-4.0872,-4.0872,-4.0872,-4.0872,-4.0872,-4.0851,-4.0644,-4.0437,-4.0189,-3.9744,-3.9189,-3.8745,-3.8605,-3.8378,-3.8181,-3.8181,-3.8181,-3.8181,-3.8181,-3.8181,-3.8181,-3.8181,-3.8181,-3.8181,-3.8181,-3.8181,-3.8181,-3.8181,-3.8181,-3.8181,-3.8181,-3.8181,-3.8181,-3.8181,-3.8181,-3.8181,-3.8181,-3.8181,-3.8181,-3.8181,-3.8181,-3.8181,-3.8181,-3.8181,-3.8048,-3.7626,-3.7482,-3.7213,-3.6866,-3.6471,-3.6268,-3.6268,-3.6084,-3.6016,-3.6016,-3.6016,-3.6016,-3.6016,-3.6016,-3.6016,-3.2669,-3.2669,-3.2669,-3.2669,-3.2721,-3.3047,0.0,0.0,0.0,0.0,0.0,0.0,0.0,0.0,0.0,0.0,0.0,0.0,0.0,0.0,0.0,0.0,0.0,0.0,0.0,0.0,0.0,0.0,0.0,0.0,0.0,-3.8181,-3.8181,-3.8181,-3.8181,-3.8367,-3.8683,-3.8683,-3.8879,-3.933,-3.933,-3.933,-3.9261,-3.9402,-3.9364,-3.9385,0.0,0.0,-4.0158,-4.052,-4.0675,-4.0675,-4.0675,-4.0675,-4.0675,-4.0675,-4.0675,-4.0624,-4.0251,-3.9827,-3.9302,-3.891,-3.8734,-3.861,-3.8295,-3.8181,-3.8181,-3.8181,-3.8181,-3.8181,-3.8181,-3.8181,-3.8181,-3.8181,-3.8181,-3.8181,-3.8181,-3.8181,-3.8181,-3.8181,-3.8181,-3.8181,-3.8181,-3.8181,-3.8181,-3.8181,-3.8181,-3.8181,-3.8181,-3.8181,-3.8181,-3.8181,-3.8181,-3.8181,-3.8181,-3.8114,-3.7971,-3.7549,-3.728,-3.6876,-3.6451,-3.6142,-3.6016,-3.6016,-3.6016,-3.6016,-3.6016,-3.6016,-3.6016,-3.6016,-3.6016,-3.6016,-3.2669,-3.2669,-3.2669,-3.2669,-3.3006,-3.342,0.0,0.0,0.0,0.0,0.0,0.0,0.0,0.0,0.0,0.0,0.0,0.0,0.0,0.0,0.0,0.0,0.0,0.0,0.0,0.0,0.0,0.0,0.0,0.0,0.0,-3.8181,-3.8181,-3.8181,-3.8181,-3.8212,-3.8285,-3.8285,-3.8326,-3.8398,-3.8398,-3.8398,-3.8409,-3.8781,-3.8889,-3.891,0.0,-3.964,-3.9581,-3.9723,-3.9744,-3.9744,-3.9744,-3.9744,-3.9744,-3.9744,-3.9744,-3.9734,-3.9592,-3.9272,-3.8879,-3.8807,-3.8595,-3.8274,-3.8202,-3.8181,-3.8181,-3.8181,-3.8181,-3.8181,-3.8181,-3.8181,-3.8181,-3.8181,-3.8181,-3.8181,-3.8181,-3.8181,-3.8181,-3.8181,-3.8181,-3.8181,-3.8181,-3.8181,-3.8181,-3.8181,-3.8181,-3.8181,-3.8181,-3.8181,-3.8181,-3.8181,-3.8181,-3.8181,-3.8181,-3.7904,-3.7549,-3.7213,-3.7146,-3.6809,-3.6084,-3.6016,-3.6016,-3.6016,-3.6016,-3.6016,-3.6016,-3.6016,-3.6016,-3.6016,-3.6016,-3.6016,-3.2669,-3.2669,-3.2669,-3.2669,-3.3058,-3.3492,0.0,0.0,0.0,0.0,0.0,0.0,0.0,0.0,0.0,0.0,0.0,0.0,0.0,0.0,0.0,0.0,0.0,0.0,0.0,0.0,0.0,0.0,0.0,0.0,0.0,0.0,-3.8181,-3.8181,-3.8181,-3.8181,-3.8181,-3.8181,-3.8181,-3.8181,-3.8181,-3.8181,-3.8191,-3.8398,-3.8492,-3.8512,0.0,-3.9096,-3.9117,-3.9375,-3.9468,-3.9468,-3.9468,-3.9468,-3.9468,-3.9468,-3.9313,-3.9096,-3.9096,-3.8864,-3.8492,-3.8492,-3.8357,-3.8181,-3.8181,-3.8181,-3.8181,-3.8181,-3.8181,-3.8181,-3.8181,-3.8181,-3.8181,-3.8181,-3.8181,-3.8181,-3.8181,-3.8181,-3.8181,-3.8181,-3.8181,-3.8181,-3.8181,-3.8181,-3.8181,-3.8181,-3.8181,-3.8181,-3.8181,-3.8181,-3.8181,-3.8181,-3.8181,-3.8181,-3.8181,-3.7827,-3.7348,-3.6799,-3.6616,-3.6355,-3.6016,-3.6016,-3.6016,-3.6016,-3.6016,-3.6016,-3.6016,-3.6016,-3.6016,-3.6016,-3.6016,-3.6016,-3.2612,-3.2669,-3.27,0.0,0.0,0.0,0.0,0.0,0.0,0.0,0.0,0.0,0.0,0.0,0.0,0.0,0.0,0.0,0.0,0.0,0.0,0.0,0.0,0.0,0.0,0.0,0.0,0.0,0.0,0.0,0.0,0.0,-3.8181,-3.8181,-3.8181,-3.8181,-3.8181,-3.8181,-3.8181,-3.8181,-3.8181,-3.8181,-3.8181,-3.8181,-3.8181,-3.8202,-3.8543,-3.8688,-3.8719,-3.9071,-3.9216,-3.9216,-3.9216,-3.9216,-3.9216,-3.9216,-3.8999,-3.8688,-3.8688,-3.8471,-3.8181,-3.8181,-3.8181,-3.8181,-3.8181,-3.8181,-3.8181,-3.8181,-3.8181,-3.8181,-3.8181,-3.8181,-3.8181,-3.8181,-3.8181,-3.8181,-3.8181,-3.8181,-3.8181,-3.8181,-3.8181,-3.8181,-3.8181,-3.8181,-3.8181,-3.8181,-3.8181,-3.8181,-3.8181,-3.8181,-3.8181,-3.8181,-3.8181,-3.8114,-3.7981,-3.7549,-3.7069,-3.6393,-3.6142,-3.6016,-3.6016,-3.6016,-3.6016,-3.6016,-3.6016,-3.6016,-3.6016,-3.6016,-3.6016,-3.6016,-3.6016,-3.6016,-3.2373,-3.2487,-3.2705,-3.2875,0.0,0.0,0.0,0.0,0.0,0.0,0.0,0.0,0.0,0.0,0.0,0.0,0.0,0.0,0.0,0.0,0.0,0.0,0.0,0.0,0.0,0.0,0.0,0.0,0.0,0.0,0.0,0.0,0.0,-3.8181,-3.8181,-3.8181,-3.8181,-3.8181,-3.8181,-3.8181,-3.8181,-3.8181,-3.8181,-3.8181,-3.8181,-3.8181,-3.8222,-3.8233,-3.8233,-3.8274,-3.8285,-3.8285,-3.8285,-3.8285,-3.8285,-3.8285,-3.8264,-3.8233,-3.8233,-3.8212,-3.8181,-3.8181,-3.8181,-3.8181,-3.8181,-3.8181,-3.8181,-3.8181,-3.8181,-3.8181,-3.8181,-3.8181,-3.8181,-3.8181,-3.8181,-3.8181,-3.8181,-3.8181,-3.8181,-3.8181,-3.8181,-3.8181,-3.8181,-3.8181,-3.8181,-3.8181,-3.8181,-3.8181,-3.8181,-3.8181,-3.8181,-3.8181,-3.8181,-3.7904,-3.7223,-3.6799,-3.6393,-3.6084,-3.6016,-3.6016,-3.6016,-3.6016,-3.6016,-3.6016,-3.6016,-3.6016,-3.6016,-3.6016,-3.6016,-3.6016,-3.6016,-3.6016,-3.2248,-3.219,-3.2184,-3.2452,0.0,0.0,0.0,0.0,0.0,0.0,0.0,0.0,0.0,0.0,0.0,0.0,0.0,0.0,0.0,0.0,0.0,0.0,0.0,0.0,0.0,0.0,0.0,0.0,0.0,0.0,0.0,0.0,0.0,-3.8181,-3.8181,-3.8181,-3.8181,-3.8181,-3.8181,-3.8181,-3.8181,-3.8181,-3.8181,-3.8181,-3.8181,-3.8181,-3.8181,-3.8181,-3.8181,-3.8181,-3.8181,-3.8181,-3.8181,-3.8181,-3.8181,-3.8181,-3.8181,-3.8181,-3.8181,-3.8181,-3.8181,-3.8181,-3.8181,-3.8181,-3.8181,-3.8181,-3.8181,-3.8181,-3.8181,-3.8181,-3.8181,-3.8181,-3.8181,-3.8181,-3.8181,-3.8181,-3.8181,-3.8181,-3.8181,-3.8181,-3.8181,-3.8181,-3.8181,-3.8181,-3.8181,-3.8181,-3.8181,-3.8181,-3.8181,-3.8181,-3.8181,-3.8181,-3.7971,-3.7559,-3.6799,-3.6586,-3.6393,-3.6016,-3.6016,-3.6016,-3.6016,-3.6016,-3.6016,-3.6016,-3.6016,-3.6016,-3.6016,-3.6016,-3.6016,-3.6016,-3.6016,-3.6016,-3.196,-3.1903,-3.1885,0.0,0.0,0.0,0.0,0.0,0.0,0.0,0.0,0.0,0.0,0.0,0.0,0.0,0.0,0.0,0.0,0.0,0.0,0.0,0.0,0.0,0.0,0.0,0.0,0.0,0.0,0.0,0.0,0.0,0.0,-3.8181,-3.8181,-3.8181,-3.8181,-3.8181,-3.8181,-3.8181,-3.8181,-3.8181,-3.8181,-3.8181,-3.8181,-3.8181,-3.8181,-3.8181,-3.8181,-3.8181,-3.8181,-3.8181,-3.8181,-3.8181,-3.8181,-3.8181,-3.8181,-3.8181,-3.8181,-3.8181,-3.8181,-3.8181,-3.8181,-3.8181,-3.8181,-3.8181,-3.8181,-3.8181,-3.8181,-3.8181,-3.8181,-3.8181,-3.8181,-3.8181,-3.8181,-3.8181,-3.8181,-3.8181,-3.8181,-3.8181,-3.8181,-3.8181,-3.8181,-3.8181,-3.8181,-3.8181,-3.8181,-3.8181,-3.8181,-3.8181,-3.8181,-3.8037,-3.7693,-3.7203,-3.6586,-3.6393,-3.6268,-3.6016,-3.6016,-3.6016,-3.6016,-3.6016,-3.6016,-3.6016,-3.6016,-3.6016,-3.6016,-3.6016,-3.6016,-3.6025,-3.6162,-3.6152,-3.1383,-3.1556,0.0,0.0,0.0,0.0,0.0,0.0,0.0,0.0,0.0,0.0,0.0,0.0,0.0,0.0,0.0,0.0,0.0,0.0,0.0,0.0,0.0,0.0,0.0,0.0,0.0,0.0,0.0,0.0,0.0,0.0,0.0,-3.8181,-3.8181,-3.8181,-3.8181,-3.8181,-3.8181,-3.8181,-3.8181,-3.8181,-3.8181,-3.8181,-3.8181,-3.8181,-3.8181,-3.8181,-3.8181,-3.8181,-3.8181,-3.8181,-3.8181,-3.8181,-3.8181,-3.8181,-3.8181,-3.8181,-3.8181,-3.8181,-3.8181,-3.8181,-3.8181,-3.8181,-3.8181,-3.8181,-3.8181,-3.8181,-3.8181,-3.8181,-3.8181,-3.8181,-3.8181,-3.8181,-3.8181,-3.8181,-3.8181,-3.8181,-3.8181,-3.8181,-3.8181,-3.8181,-3.8181,-3.8181,-3.8181,-3.8181,-3.8181,-3.8181,-3.8181,-3.8181,-3.8048,-3.7616,-3.728,-3.6934,-3.6519,-3.621,-3.6016,-3.6016,-3.6016,-3.6016,-3.6016,-3.6016,-3.6016,-3.6016,-3.6016,-3.6016,-3.6016,-3.6025,-3.6025,-3.6035,-3.6475,-3.6445,-3.1276,0.0,0.0,0.0,0.0,0.0,0.0,0.0,0.0,0.0,0.0,0.0,0.0,0.0,0.0,0.0,0.0,0.0,0.0,0.0,0.0,0.0,0.0,0.0,0.0,0.0,0.0,0.0,0.0,0.0,0.0,0.0,-3.8181,-3.8181,-3.8181,-3.8181,-3.8181,-3.8181,-3.8181,-3.8181,-3.8181,-3.8181,-3.8181,-3.8181,-3.8181,-3.8181,-3.8181,-3.8181,-3.8181,-3.8181,-3.8181,-3.8181,-3.8181,-3.8181,-3.8181,-3.8181,-3.8181,-3.8181,-3.8181,-3.8181,-3.8181,-3.8181,-3.8181,-3.8181,-3.8181,-3.8181,-3.8181,-3.8181,-3.8181,-3.8181,-3.8181,-3.8181,-3.8181,-3.8181,-3.8181,-3.8181,-3.8181,-3.8181,-3.8181,-3.8181,-3.8181,-3.8181,-3.8181,-3.8181,-3.8181,-3.8181,-3.8181,-3.8181,-3.8181,-3.8181,-3.7981,-3.7348,-3.7146,-3.6809,-3.621,-3.6084,-3.6016,-3.6016,-3.6016,-3.6016,-3.6016,-3.6016,-3.6016,-3.6016,-3.6016,-3.6016,-3.6016,-3.6328,-3.6475,-3.6484,-3.6914,-3.7041,-3.1112,0.0,0.0,0.0,0.0,0.0,0.0,0.0,0.0,0.0,0.0,0.0,0.0,0.0,0.0,0.0,0.0,0.0,0.0,0.0,0.0,0.0,0.0,0.0,0.0,0.0,0.0,0.0,0.0,0.0,0.0,-3.8181,-3.8181,-3.8181,-3.8181,-3.8181,-3.8181,-3.8181,-3.8181,-3.8181,-3.8181,-3.8181,-3.8181,-3.8181,-3.8181,-3.8181,-3.8181,-3.8181,-3.8181,-3.8181,-3.8181,-3.8181,-3.8181,-3.8181,-3.8181,-3.8181,-3.8181,-3.8181,-3.8181,-3.8181,-3.8181,-3.8181,-3.8181,-3.8181,-3.8181,-3.8181,-3.8181,-3.8181,-3.8181,-3.8181,-3.8181,-3.8181,-3.8181,-3.8181,-3.8181,-3.8181,-3.8181,-3.8181,-3.8181,-3.8181,-3.8181,-3.8181,-3.8181,-3.8181,-3.8181,-3.8181,-3.8181,-3.8114,-3.7971,-3.7971,-3.7693,-3.6934,-3.6866,-3.6606,-3.6016,-3.6016,-3.6016,-3.6016,-3.6016,-3.6016,-3.6016,-3.6016,-3.6016,-3.6016,-3.6016,-3.6016,-3.6016,-3.6455,-3.667,-3.668,-3.7275,-3.7461,0.0,0.0,0.0,0.0,0.0,0.0,0.0,0.0,0.0,0.0,0.0,0.0,0.0,0.0,0.0,0.0,0.0,0.0,0.0,0.0,0.0,0.0,0.0,0.0,0.0,0.0,0.0,0.0,0.0,0.0,0.0,-3.8181,-3.8181,-3.8181,-3.8181,-3.8181,-3.8181,-3.8181,-3.8181,-3.8181,-3.8181,-3.8181,-3.8181,-3.8181,-3.8181,-3.8181,-3.8181,-3.8181,-3.8181,-3.8181,-3.8181,-3.8181,-3.8181,-3.8181,-3.8181,-3.8181,-3.8181,-3.8181,-3.8181,-3.8181,-3.8181,-3.8181,-3.8181,-3.8181,-3.8181,-3.8181,-3.8181,-3.8181,-3.8181,-3.8181,-3.8181,-3.8181,-3.8181,-3.8181,-3.8181,-3.8181,-3.8181,-3.8181,-3.8181,-3.8181,-3.8181,-3.8181,-3.8181,-3.8181,-3.8181,-3.8181,-3.8181,-3.8037,-3.7616,-3.7616,-3.7337,-3.6586,-3.6519,-3.6393,-3.6016,-3.6016,-3.6016,-3.6016,-3.6016,-3.6016,-3.6016,-3.6016,-3.6016,-3.6016,-3.6016,-3.6035,-3.6074,-3.6514,-3.6748,-3.6807,-3.7607,-3.7783,0.0,0.0,0.0,0.0,0.0,0.0,0.0,0.0,0.0,0.0,0.0,0.0,0.0,0.0,0.0,0.0,0.0,0.0,0.0,0.0,0.0,0.0,0.0,0.0,0.0,0.0,0.0,0.0,0.0,0.0,0.0,-3.8181,-3.8181,-3.8181,-3.8181,-3.8181,-3.8181,-3.8181,-3.8181,0.0,-3.8181,-3.8181,-3.8181,-3.8181,-3.8181,-3.8181,-3.8181,-3.8181,-3.8181,-3.8181,-3.8181,-3.8181,-3.8181,-3.8181,-3.8181,-3.8181,-3.8181,-3.8181,-3.8181,-3.8181,-3.8181,-3.8181,-3.8181,-3.8181,-3.8181,-3.8181,-3.8181,-3.8181,-3.8181,-3.8181,-3.8181,-3.8181,-3.8181,-3.8181,-3.8181,-3.8181,-3.8181,-3.8181,-3.8181,-3.8181,-3.8181,-3.8181,-3.8181,-3.8181,-3.8181,-3.8181,-3.8181,-3.8037,-3.7616,-3.7616,-3.7348,-3.6674,-3.6519,-3.6393,-3.6016,-3.6016,-3.6016,-3.6016,-3.6016,-3.6016,-3.6016,-3.6016,-3.6016,-3.6016,-3.6016,-3.6182,-3.6533,-3.6953,-3.7334,-3.7666,-3.8193,-3.8389,0.0,0.0,0.0,0.0,0.0,0.0,0.0,0.0,0.0,0.0,0.0,0.0,0.0,0.0,0.0,0.0,0.0,0.0,0.0,0.0,0.0,0.0,0.0,0.0,0.0,0.0,0.0,0.0,0.0,0.0,-3.785,-3.8067,-3.8181,-3.8181,-3.8181,-3.8181,-3.8181,-3.8181,-3.8181,-3.8181,-3.8181,-3.8181,-3.8181,-3.8181,-3.8181,-3.8181,-3.8181,-3.8181,-3.8181,-3.8181,-3.8181,-3.8181,-3.8181,-3.8181,-3.8181,-3.8181,-3.8181,-3.8181,-3.8181,-3.8181,-3.8181,-3.8181,-3.8181,-3.8181,-3.8181,-3.8181,-3.8181,-3.8181,-3.8181,-3.8181,-3.8181,-3.8181,-3.8181,-3.8181,-3.8181,-3.8181,-3.8181,-3.8181,-3.8181,-3.8181,-3.8181,-3.8181,-3.8181,-3.8181,-3.8114,-3.7971,-3.7904,-3.7693,-3.7136,-3.7069,-3.6876,-3.6345,-3.6268,-3.621,-3.6016,-3.6016,-3.6016,-3.6016,-3.6016,-3.6016,-3.6016,-3.6016,-3.6016,-3.6016,-3.6016,-3.6133,-3.6367,-3.6992,-3.7412,-3.7637,-3.8281,-3.8574,0.0,0.0,0.0,0.0,0.0,0.0,0.0,0.0,0.0,0.0,0.0,0.0,0.0,0.0,0.0,0.0,0.0,0.0,0.0,0.0,0.0,0.0,0.0,0.0,0.0,0.0,0.0,0.0,0.0,0.0,-3.7374,-3.7808,-3.8067,-3.8067,-3.814,-3.8181,-3.8181,-3.8181,-3.8181,-3.8181,-3.8181,-3.8181,-3.8181,-3.8181,-3.8181,-3.8181,-3.8181,-3.8181,-3.8181,-3.8181,-3.8181,-3.8181,-3.8181,-3.8181,-3.8181,-3.8181,-3.8181,-3.8181,-3.8181,-3.8181,-3.8181,-3.8181,-3.8181,-3.8181,-3.8181,-3.8181,-3.8181,-3.8181,-3.8181,-3.8181,-3.8181,-3.8181,-3.8181,-3.8181,-3.8181,-3.8181,-3.8181,-3.8181,-3.8181,-3.8181,-3.8181,-3.8181,-3.8181,-3.8181,-3.8048,-3.7693,-3.7616,-3.7348,-3.6586,-3.6519,-3.6393,-3.6016,-3.6016,-3.6016,-3.6016,-3.6016,-3.6016,-3.6016,-3.6016,-3.6016,-3.6016,-3.6016,-3.6016,-3.6016,-3.6016,-3.6055,-3.6133,-3.6846,-3.7266,-3.7422,-3.8135,-3.8506,0.0,0.0,0.0,0.0,0.0,0.0,0.0,0.0,0.0,0.0,0.0,0.0,0.0,0.0,0.0,0.0,0.0,0.0,0.0,0.0,0.0,0.0,0.0,0.0,0.0,0.0,0.0,0.0,0.0,0.0,-3.6898,-3.7332,-3.7591,-3.7591,-3.7974,-3.8181,-3.8181,-3.8181,-3.8181,-3.8181,-3.8181,-3.8181,-3.8181,-3.8181,-3.8181,-3.8181,-3.8181,-3.8181,-3.8181,-3.8181,-3.8181,-3.8181,-3.8181,-3.8181,-3.8181,-3.8181,-3.8181,-3.8181,-3.8181,-3.8181,-3.8181,-3.8181,-3.8181,-3.8181,-3.8181,-3.8181,-3.8181,-3.8181,-3.8181,-3.8181,-3.8181,-3.8181,-3.8181,-3.8181,-3.8181,-3.8181,-3.8181,-3.8181,-3.8181,-3.8181,-3.8181,-3.8181,-3.8181,-3.8181,-3.8048,-3.7693,-3.7616,-3.7348,-3.6586,-3.6519,-3.6393,-3.6016,-3.6016,-3.6016,-3.6016,-3.6016,-3.6016,-3.6016,-3.6016,-3.6016,-3.6016,-3.6016,-3.6016,-3.6016,-3.6016,-3.6201,-3.6582,-3.6699,-3.7129,-3.7842,-3.7959,-3.8213,0.0,0.0,0.0,0.0,0.0,0.0,0.0,0.0,0.0,0.0,0.0,0.0,0.0,0.0,0.0,0.0,0.0,0.0,0.0,0.0,0.0,0.0,0.0,0.0,0.0,0.0,0.0,0.0,0.0,-3.6411,-3.6411,-3.6856,-3.7105,-3.7105,-3.756,-3.7798,-3.7798,-3.8057,-3.8181,-3.8181,-3.8181,-3.8181,-3.8181,-3.8181,-3.8181,-3.8181,-3.8181,-3.8181,-3.8181,-3.8181,-3.8181,-3.8181,-3.8181,-3.8181,-3.8181,-3.8181,-3.8181,-3.8181,-3.8181,-3.8181,-3.8181,-3.8181,-3.8181,-3.8181,-3.8181,-3.8181,-3.8181,-3.8181,-3.8181,-3.8181,-3.8181,-3.8181,-3.8181,-3.8181,-3.8181,-3.8181,-3.8181,-3.8181,-3.8181,-3.8181,-3.8181,-3.8181,-3.8181,-3.8181,-3.7981,-3.7415,-3.7348,-3.7079,-3.6336,-3.62,-3.6142,-3.6025,-3.6016,-3.6016,-3.6016,-3.6016,-3.6016,-3.6016,-3.6016,-3.6016,-3.6016,-3.6016,-3.6016,-3.6016,-3.6016,-3.6113,-3.6309,-3.6553,-3.6855,-3.7236,-3.7705,-3.8027,0.0,0.0,0.0,0.0,0.0,0.0,0.0,0.0,0.0,0.0,0.0,0.0,0.0,0.0,0.0,0.0,0.0,0.0,0.0,0.0,0.0,0.0,0.0,0.0,0.0,0.0,0.0,0.0,0.0,-3.5935,-3.5935,-3.638,-3.6629,-3.6629,-3.7084,-3.7322,-3.7322,-3.7777,-3.8067,-3.8181,-3.8181,-3.8181,-3.8181,-3.8181,-3.8181,-3.8181,-3.8181,-3.8181,-3.8181,-3.8181,-3.8181,-3.8181,-3.8181,-3.8181,-3.8181,-3.8181,-3.8181,-3.8181,-3.8181,-3.8181,-3.8181,-3.8181,-3.8181,-3.8181,-3.8181,-3.8181,-3.8181,-3.8181,-3.8181,-3.8181,-3.8181,-3.8181,-3.8181,-3.8181,-3.8181,-3.8181,-3.8181,-3.8181,-3.8181,-3.8181,-3.8181,-3.8181,-3.8181,-3.8114,-3.7837,-3.7223,-3.7011,-3.6742,-3.6084,-3.6016,-3.6016,-3.6016,-3.6016,-3.6016,-3.6016,-3.6016,-3.6016,-3.6016,-3.6016,-3.6016,-3.6016,-3.6016,-3.6016,-3.6016,-3.6016,-3.6016,-3.6016,-3.6348,-3.6562,-3.6689,-3.7314,-3.7666,0.0,0.0,0.0,0.0,0.0,0.0,0.0,0.0,0.0,0.0,0.0,0.0,0.0,0.0,0.0,0.0,0.0,0.0,0.0,0.0,0.0,0.0,0.0,0.0,0.0,0.0,0.0,0.0,0.0,-3.5459,-3.5459,-3.5894,-3.6152,-3.6152,-3.6597,-3.6846,-3.6846,-3.7301,-3.7757,-3.8181,-3.8181,-3.8181,-3.8181,-3.8181,-3.8181,-3.8181,-3.8181,-3.8181,-3.8181,-3.8181,-3.8181,-3.8181,-3.8181,-3.8181,-3.8181,-3.8181,-3.8181,-3.8181,-3.8181,-3.8181,-3.8181,-3.8181,-3.8181,-3.8181,-3.8181,-3.8181,-3.8181,-3.8181,-3.8181,-3.8181,-3.8181,-3.8181,-3.8181,-3.8181,-3.8181,-3.8181,-3.8181,-3.8181,-3.8181,-3.8181,-3.8181,-3.8181,-3.8181,-3.7904,-3.7492,-3.7146,-3.6799,-3.6393,-3.6084,-3.6016,-3.6016,-3.6016,-3.6016,-3.6016,-3.6016,-3.6016,-3.6016,-3.6016,-3.6016,-3.6016,-3.6016,-3.6016,-3.6016,-3.6016,-3.6016,-3.6016,-3.6016,-3.6045,-3.6269,-3.667,-3.6719,-3.6953,0.0,0.0,0.0,0.0,0.0,0.0,0.0,0.0,0.0,0.0,0.0,0.0,0.0,0.0,0.0,0.0,0.0,0.0,0.0,0.0,0.0,0.0,0.0,0.0,0.0,0.0,0.0,0.0,0.0,0.0,-3.5418,-3.5583,-3.5666,-3.5666,-3.6121,-3.6504,-3.6804,-3.697,-3.7136,-3.7301,-3.7601,-3.7736,-3.7757,-3.8046,-3.8181,-3.8181,-3.8181,-3.8181,-3.8181,-3.8181,-3.8181,-3.8181,-3.8181,-3.8181,-3.8181,-3.8181,-3.8181,-3.8181,-3.8181,-3.8181,-3.8181,-3.8181,-3.8181,-3.8181,-3.8181,-3.8181,-3.8181,-3.8181,-3.8181,-3.8181,-3.8181,-3.8181,-3.8181,-3.8181,-3.7971,-3.7827,-3.7827,-3.8037,-3.8181,-3.8181,-3.8181,-3.8181,-3.8181,-3.7904,-3.7482,-3.7146,-3.6732,-3.6393,-3.6016,-3.6016,-3.6016,-3.6016,-3.6016,-3.6016,-3.6016,-3.6016,-3.6016,-3.6016,-3.6016,-3.6016,-3.6016,-3.6016,-3.6016,-3.6016,-3.6016,-3.6016,-3.6016,-3.6016,-3.6103,-3.626,-3.6543,-3.6748,-3.0889,0.0,0.0,0.0,0.0,0.0,0.0,0.0,0.0,0.0,0.0,0.0,0.0,0.0,0.0,0.0,0.0,0.0,0.0,0.0,0.0,0.0,0.0,0.0,0.0,0.0,0.0,0.0,0.0,0.0,-3.5418,-3.5418,-3.5418,-3.5418,-3.5718,-3.6101,-3.6566,-3.6577,-3.6649,-3.6804,-3.7115,-3.726,-3.727,-3.7581,-3.7808,-3.7953,-3.7953,-3.8036,-3.8181,-3.8181,-3.8181,-3.8181,-3.8181,-3.8181,-3.8181,-3.8181,-3.8181,-3.8181,-3.8181,-3.8181,-3.8181,-3.8181,-3.8181,-3.8181,-3.8181,-3.8181,-3.8181,-3.8181,-3.8181,-3.8181,-3.8037,-3.7971,-3.7971,-3.7837,-3.7693,-3.7549,-3.7482,-3.7626,-3.7837,-3.7837,-3.7837,-3.7837,-3.7837,-3.7492,-3.7146,-3.6934,-3.6596,-3.6268,-3.6016,-3.6016,-3.6016,-3.6016,-3.6016,-3.6016,-3.6016,-3.6016,-3.6016,-3.6016,-3.6016,-3.6016,-3.6016,-3.6016,-3.6016,-3.6016,-3.6016,-3.6016,-3.6016,-3.6016,-3.6016,-3.6025,-3.6318,-3.6455,0.0,0.0,0.0,0.0,0.0,0.0,0.0,0.0,0.0,0.0,0.0,0.0,0.0,0.0,0.0,0.0,0.0,0.0,0.0,0.0,0.0,0.0,0.0,0.0,0.0,0.0,0.0,0.0,0.0,-3.5046,-3.5356,-3.5356,-3.5366,-3.5418,-3.5418,-3.5635,-3.609,-3.609,-3.6318,-3.6763,-3.6773,-3.6784,-3.6784,-3.6794,-3.7053,-3.7477,-3.7477,-3.7736,-3.8171,-3.8181,-3.8181,-3.8181,-3.8181,-3.8181,-3.8181,-3.8181,-3.8181,-3.8181,-3.8181,-3.8181,-3.8181,-3.8181,-3.8181,-3.8181,-3.8181,-3.8181,-3.8181,-3.8181,-3.8181,-3.8114,-3.7693,-3.7616,-3.7482,-3.7146,-3.7348,-3.7482,-3.7146,-3.7079,-3.7079,-3.7079,-3.7079,-3.7079,-3.7079,-3.6799,-3.6519,-3.6519,-3.62,-3.6016,-3.6016,-3.6016,-3.6016,-3.6016,-3.6016,-3.6016,-3.6016,-3.6016,-3.6016,-3.6016,-3.6016,-3.6016,-3.6016,-3.6016,-3.6016,-3.6016,-3.6016,-3.6016,-3.6016,-3.6016,-3.6016,-3.6016,-3.6016,-3.6016,-3.0889,0.0,0.0,0.0,0.0,0.0,0.0,0.0,0.0,0.0,0.0,0.0,0.0,0.0,0.0,0.0,0.0,0.0,0.0,0.0,0.0,0.0,0.0,0.0,0.0,0.0,0.0,0.0,-3.4548,-3.461,-3.4673,-3.4922,-3.517,-3.5418,-3.5418,-3.548,-3.5614,-3.5614,-3.5676,-3.5811,-3.6142,-3.6297,-3.6318,-3.6649,-3.6877,-3.6991,-3.6991,-3.726,-3.7715,-3.8046,-3.8181,-3.8181,-3.8181,-3.8181,-3.8181,-3.8181,-3.8181,-3.8181,-3.8181,-3.8181,-3.8181,-3.8181,-3.8181,-3.8181,-3.8181,-3.8181,-3.8181,-3.8181,-3.8181,-3.8114,-3.7693,-3.7415,-3.7213,-3.7146,-3.6934,-3.6789,-3.6722,-3.6471,-3.6481,-3.7021,-3.7079,-3.7079,-3.7079,-3.6799,-3.6519,-3.6519,-3.62,-3.6016,-3.6016,-3.6016,-3.6016,-3.6016,-3.6016,-3.6016,-3.6016,-3.6016,-3.6016,-3.6016,-3.6016,-3.6016,-3.6016,-3.6016,-3.6016,-3.6016,-3.6016,-3.6016,-3.6016,-3.6016,-3.6016,-3.6016,-3.6016,-3.6016,-3.0889,0.0,0.0,0.0,0.0,0.0,0.0,-3.0752,0.0,0.0,0.0,0.0,0.0,0.0,0.0,0.0,0.0,0.0,0.0,0.0,0.0,0.0,0.0,0.0,0.0,0.0,0.0,-3.4173,-3.4298,-3.4548,-3.4797,-3.4984,-3.517,-3.5418,-3.5418,-3.5418,-3.5418,-3.5418,-3.5418,-3.5428,-3.5697,-3.5821,-3.5832,-3.6101,-3.6328,-3.6515,-3.6515,-3.6773,-3.7229,-3.7498,-3.7839,-3.8181,-3.8181,-3.8181,-3.8181,-3.8181,-3.8181,-3.8181,-3.8181,-3.8181,-3.8181,-3.8181,-3.8181,-3.8181,-3.7971,-3.7971,-3.7971,-3.7971,-3.7837,-3.7703,-3.7415,-3.7136,-3.6799,-3.6684,-3.6596,-3.6451,-3.6326,-3.6142,-3.6152,-3.6549,-3.6616,-3.6616,-3.6616,-3.6471,-3.6268,-3.6268,-3.6142,-3.6016,-3.6016,-3.6016,-3.6016,-3.6016,-3.6016,-3.6016,-3.6016,-3.6016,-3.6016,-3.6016,-3.6016,-3.6016,-3.6016,-3.6016,-3.6016,-3.6016,-3.6016,-3.6016,-3.6016,-3.6016,-3.6016,-3.6016,-3.6016,-3.6016,0.0,0.0,0.0,0.0,0.0,0.0,-3.0361,-3.0557,0.0,0.0,0.0,0.0,0.0,0.0,0.0,0.0,0.0,0.0,0.0,0.0,0.0,0.0,0.0,0.0,0.0,-3.3281,-3.3426,-3.3727,-3.408,-3.4548,-3.517,-3.5232,-3.5294,-3.5356,-3.5356,-3.5356,-3.5418,-3.5418,-3.5418,-3.5418,-3.5418,-3.5418,-3.5418,-3.5418,-3.5645,-3.6039,-3.6039,-3.6297,-3.6732,-3.6732,-3.727,-3.8109,-3.8109,-3.814,-3.8181,-3.8181,-3.8181,-3.8181,-3.8181,-3.8181,-3.8181,-3.8181,-3.8181,-3.8114,-3.776,-3.7693,-3.7693,-3.7616,-3.7348,-3.7011,-3.7011,-3.6732,-3.6393,-3.6084,-3.62,-3.6393,-3.6084,-3.6016,-3.6016,-3.6016,-3.6016,-3.6016,-3.6016,-3.6016,-3.6016,-3.6016,-3.6016,-3.6016,-3.6016,-3.6016,-3.6016,-3.6016,-3.6016,-3.6016,-3.6016,-3.6016,-3.6016,-3.6016,-3.6016,-3.6016,-3.6016,-3.6016,-3.6016,-3.6016,-3.6016,-3.6016,-3.6016,-3.6016,-3.6016,-3.6016,-3.6016,-3.6016,0.0,0.0,0.0,0.0,0.0,0.0,-3.0693,-3.0537,0.0,0.0,0.0,0.0,0.0,0.0,0.0,0.0,0.0,0.0,0.0,0.0,0.0,0.0,0.0,0.0,0.0,-3.2412,-3.262,-3.3015,-3.3358,-3.3796,-3.4173,-3.4173,-3.4423,-3.4984,-3.4984,-3.5108,-3.5418,-3.5418,-3.5418,-3.5418,-3.5418,-3.5418,-3.5418,-3.5418,-3.5469,-3.5552,-3.5552,-3.5821,-3.6246,-3.6246,-3.6794,-3.7632,-3.7632,-3.786,-3.8181,-3.8181,-3.8181,-3.8181,-3.8181,-3.8181,-3.8181,-3.8181,-3.8181,-3.8191,-3.8114,-3.8114,-3.8037,-3.7693,-3.7136,-3.6586,-3.6586,-3.6336,-3.6084,-3.6025,-3.6084,-3.6084,-3.6016,-3.6016,-3.6016,-3.6016,-3.6016,-3.6016,-3.6016,-3.6016,-3.6016,-3.6016,-3.6016,-3.6016,-3.6016,-3.6016,-3.6016,-3.6016,-3.6016,-3.6016,-3.6016,-3.6016,-3.6016,-3.6016,-3.6016,-3.6016,-3.6016,-3.6016,-3.6016,-3.6016,-3.6016,-3.6016,-3.6016,-3.6016,-3.6016,-3.6016,-3.6016,-3.6016,0.0,0.0,0.0,-3.0605,0.0,0.0,0.0,-3.0547,0.0,0.0,0.0,0.0,0.0,0.0,0.0,0.0,0.0,0.0,0.0,0.0,0.0,0.0,0.0,0.0,0.0,-3.2229,-3.2378,-3.2706,-3.3119,-3.348,-3.3853,-3.4178,-3.4548,-3.4859,-3.5046,-3.5232,-3.5418,-3.5418,-3.5418,-3.5418,-3.5418,-3.5418,-3.5418,-3.5418,-3.5418,-3.5418,-3.5418,-3.5552,-3.5769,-3.5769,-3.6173,-3.6856,-3.7312,-3.7632,-3.7871,-3.8098,-3.8181,-3.8181,-3.8181,-3.8181,-3.8181,-3.8181,-3.8181,-3.8181,-3.7971,-3.7904,-3.7827,-3.7415,-3.7069,-3.6722,-3.6586,-3.6268,-3.6016,-3.6016,-3.6016,-3.6016,-3.6016,-3.6016,-3.6016,-3.6016,-3.6016,-3.6016,-3.6016,-3.6016,-3.6016,-3.6016,-3.6016,-3.6016,-3.6016,-3.6016,-3.6016,-3.6016,-3.6016,-3.6016,-3.6016,-3.6016,-3.6016,-3.6016,-3.6016,-3.6016,-3.6016,-3.6016,-3.6016,-3.6016,-3.6016,-3.6016,-3.6016,-3.6016,-3.6016,-3.6016,-3.6016,-3.6016,0.0,0.0,0.0,0.0,0.0,-3.0576,0.0,0.0,0.0,0.0,0.0,0.0,0.0,0.0,0.0,0.0,0.0,0.0,0.0,0.0,0.0,0.0,0.0,0.0,0.0,-3.1992,-3.2162,-3.2464,-3.286,-3.323,-3.3465,-3.4123,-3.4551,-3.4603,-3.4943,-3.517,-3.5232,-3.5294,-3.5294,-3.5294,-3.5356,-3.5418,-3.5418,-3.5418,-3.5418,-3.5418,-3.5418,-3.5418,-3.5418,-3.5418,-3.5645,-3.607,-3.7001,-3.7415,-3.755,-3.8015,-3.8181,-3.8191,-3.8114,-3.8114,-3.8037,-3.7981,-3.7981,-3.7914,-3.7626,-3.7482,-3.7348,-3.7079,-3.6944,-3.6809,-3.6461,-3.62,-3.6016,-3.6016,-3.6016,-3.6016,-3.6016,-3.6016,-3.6016,-3.6016,-3.6016,-3.6016,-3.6016,-3.6016,-3.6016,-3.6016,-3.6016,-3.6016,-3.6016,-3.6016,-3.6016,-3.6016,-3.6016,-3.6016,-3.6016,-3.6016,-3.6016,-3.6016,-3.6016,-3.6016,-3.6016,-3.6016,-3.6016,-3.6016,-3.6016,-3.6016,-3.6016,-3.6016,-3.6016,-3.6016,-3.6016,-3.6016,0.0,0.0,0.0,0.0,-3.0264,0.0,0.0,0.0,-3.0391,-3.0801,0.0,0.0,0.0,0.0,0.0,0.0,0.0,0.0,0.0,0.0,0.0,0.0,0.0,0.0,0.0,0.0,-3.1592,-3.1651,-3.2053,-3.2358,-3.2358,-3.2821,-3.3171,-3.348,-3.3848,-3.4235,-3.4485,-3.4797,-3.4984,-3.4984,-3.5242,-3.5418,-3.5418,-3.5418,-3.5418,-3.5418,-3.5418,-3.5418,-3.5418,-3.5418,-3.5449,-3.5594,-3.6515,-3.7125,-3.755,-3.8015,-3.8181,-3.8114,-3.776,-3.7693,-3.7626,-3.7348,-3.7213,-3.7223,-3.7146,-3.6934,-3.6586,-3.6586,-3.6336,-3.6084,-3.6084,-3.6016,-3.6016,-3.6016,-3.6016,-3.6016,-3.6016,-3.6016,-3.6016,-3.6016,-3.6016,-3.6016,-3.6016,-3.6016,-3.6016,-3.6016,-3.6016,-3.6016,-3.6016,-3.6016,-3.6016,-3.6016,-3.6016,-3.6016,-3.6016,-3.6016,-3.6016,-3.6016,-3.6016,-3.6016,-3.6016,-3.6016,-3.6016,-3.6016,-3.6016,-3.6016,-3.6016,-3.6016,-3.6016,-3.6016,-3.6016,-3.6016,0.0,0.0,0.0,0.0,0.0,0.0,-3.0459,0.0,-3.0654,0.0,0.0,0.0,0.0,0.0,0.0,0.0,0.0,0.0,0.0,0.0,0.0,0.0,0.0,0.0,0.0,0.0,0.0,0.0,-3.1543,-3.1787,-3.1787,-3.238,-3.2907,-3.3277,-3.3642,-3.4037,-3.4423,-3.4548,-3.461,-3.461,-3.4735,-3.4797,-3.4859,-3.5046,-3.5108,-3.5108,-3.5294,-3.5418,-3.5418,-3.5418,-3.5418,-3.5428,-3.5889,-3.6498,-3.7146,-3.7612,-3.7953,-3.8181,-3.7981,-3.7971,-3.7904,-3.7492,-3.728,-3.7079,-3.7079,-3.7011,-3.6799,-3.6586,-3.6393,-3.6278,-3.6084,-3.6016,-3.6016,-3.6016,-3.6016,-3.6016,-3.6016,-3.6016,-3.6016,-3.6016,-3.6016,-3.6016,-3.6016,-3.6016,-3.6016,-3.6016,-3.6016,-3.6016,-3.6016,-3.6016,-3.6016,-3.6016,-3.6016,-3.6016,-3.6016,-3.6016,-3.6016,-3.6016,-3.6016,-3.6016,-3.6016,-3.6016,-3.6016,-3.6016,-3.6016,-3.6016,-3.6016,-3.6016,-3.6016,-3.6016,-3.6016,-3.6016,-3.0889,0.0,0.0,0.0,0.0,0.0,0.0,0.0,0.0,0.0,0.0,0.0,0.0,0.0,0.0,0.0,0.0,0.0,0.0,0.0,0.0,0.0,0.0,0.0,0.0,0.0,0.0,-3.0889,-3.1172,-3.1348,-3.1348,-3.1988,-3.2492,-3.2799,-3.3281,-3.3683,-3.3931,-3.4175,-3.4235,-3.4235,-3.436,-3.4423,-3.4423,-3.4673,-3.4735,-3.4797,-3.5046,-3.517,-3.5232,-3.5232,-3.5294,-3.5397,-3.554,-3.5951,-3.6691,-3.7075,-3.7431,-3.7739,-3.7729,-3.7703,-3.7569,-3.7223,-3.7021,-3.6819,-3.6819,-3.6819,-3.6742,-3.6461,-3.6403,-3.6345,-3.6084,-3.6016,-3.6016,-3.6016,-3.6016,-3.6016,-3.6016,-3.6016,-3.6016,-3.6016,-3.6016,-3.6016,-3.6016,-3.6016,-3.6016,-3.6016,-3.6016,-3.6016,-3.6016,-3.6016,-3.6016,-3.6016,-3.6016,-3.6016,-3.6016,-3.6016,-3.6016,-3.6016,-3.6016,-3.6016,-3.6016,-3.6016,-3.6016,-3.6016,-3.6016,-3.6016,-3.6016,-3.6016,-3.6016,-3.6016,-3.6016,-3.6016,0.0,0.0,0.0,-3.0762,0.0,0.0,0.0,0.0,-3.0889,0.0,0.0,0.0,0.0,0.0,-3.0742,-3.0293,0.0,0.0,0.0,0.0,0.0,0.0,0.0,0.0,0.0,0.0,0.0,-3.0889,-3.0898,-3.0918,-3.0918,-3.1309,-3.1543,-3.1562,-3.2363,-3.2865,-3.2874,-3.3589,-3.3922,-3.3922,-3.4235,-3.4423,-3.4423,-3.4423,-3.4423,-3.4423,-3.4423,-3.461,-3.4922,-3.4922,-3.5108,-3.5418,-3.5376,-3.5728,-3.6182,-3.6355,-3.6415,-3.6495,-3.6505,-3.6336,-3.6084,-3.6093,-3.6016,-3.6025,-3.6025,-3.6025,-3.6016,-3.6025,-3.6025,-3.6025,-3.6016,-3.6016,-3.6016,-3.6016,-3.6016,-3.6016,-3.6016,-3.6016,-3.6016,-3.6016,-3.6016,-3.6016,-3.6016,-3.6016,-3.6016,-3.6016,-3.6016,-3.6016,-3.6016,-3.6016,-3.6016,-3.6016,-3.6016,-3.6016,-3.6016,-3.6016,-3.6016,-3.6016,-3.6016,-3.6016,-3.6016,-3.6016,-3.6016,-3.6016,-3.6016,-3.6016,-3.6016,-3.6016,-3.6016,-3.6016,-3.6016,-3.6016,0.0,0.0,-3.0693,-3.085,0.0,0.0,0.0,0.0,0.0,0.0,0.0,0.0,0.0,0.0,-3.084,-3.0684,-3.0791,0.0,0.0,0.0,0.0,0.0,0.0,0.0,0.0,0.0,0.0,-3.0889,-3.0889,-3.0889,-3.0889,-3.1025,-3.123,-3.1504,-3.1797,-3.2217,-3.2793,-3.3064,-3.3332,-3.3544,-3.367,-3.3733,-3.3733,-3.3985,-3.4047,-3.411,-3.4298,-3.4485,-3.4548,-3.4548,-3.461,-3.4735,-3.4485,-3.4514,-3.4818,-3.6177,-3.6687,-3.674,-3.6851,-3.6664,-3.6326,-3.6326,-3.621,-3.6016,-3.6016,-3.6016,-3.6016,-3.6016,-3.6016,-3.6016,-3.6016,-3.6016,-3.6016,-3.6016,-3.6016,-3.6016,-3.6016,-3.6016,-3.6016,-3.6016,-3.6016,-3.6016,-3.6016,-3.6016,-3.6016,-3.6016,-3.6016,-3.6016,-3.6016,-3.6016,-3.6016,-3.6016,-3.6016,-3.6016,-3.6016,-3.6016,-3.6016,-3.6016,-3.6016,-3.6016,-3.6016,-3.6016,-3.6016,-3.6016,-3.6016,-3.6016,-3.6016,-3.6016,-3.6016,-3.6016,-3.6016,-3.6016,-3.0889,-3.0889,0.0,-3.0889,-3.0889,0.0,-3.0889,0.0,-3.0889,0.0,0.0,0.0,0.0,0.0,0.0,-3.0889,-3.0889,-3.0889,0.0,-3.0889,0.0,0.0,0.0,0.0,0.0,0.0,-3.0889,-3.0889,-3.0889,-3.0889,0.0,0.0,-3.1016,-3.1289,-3.1435,-3.1787,-3.2334,-3.2646,-3.293,-3.3203,-3.335,-3.3418,-3.3428,-3.3607,-3.3733,-3.3733,-3.3922,-3.411,-3.4235,-3.4235,-3.4298,-3.436,-3.4173,-3.411,-3.42,-3.5376,-3.6042,-3.6419,-3.6602,-3.6539,-3.6326,-3.6326,-3.621,-3.6016,-3.6016,-3.6016,-3.6045,-3.6211,-3.6142,-3.6055,-3.6211,-3.6142,-3.6016,-3.6016,-3.6016,-3.6016,-3.6016,-3.6016,-3.6016,-3.6016,-3.6016,-3.6016,-3.6016,-3.6016,-3.6016,-3.6016,-3.6016,-3.6016,-3.6016,-3.6016,-3.6016,-3.6016,-3.6016,-3.6016,-3.6016,-3.6016,-3.6016,-3.6016,-3.6016,-3.6016,-3.6016,-3.6016,-3.6016,-3.6016,-3.6016,-3.6016,-3.6016,-3.6016,-3.6016,-3.6016,-3.6016,-3.6016]},{"header":{"parameterUnit":"m.s-1","parameterCategory":1,"la1":30.6,"la2":29.2853,"lo1":-89.7004,"lo2":-87.6739,"dy":0.0162,"dx":0.0183,"nx":112,"ny":82,"refTime":"2023-06-24T12:00:00:Z","depth":0,"parameterNumber":3,"parameterNumberName":"V-component_of_WINDS"},"data":[0.0,0.0,0.0,0.0,0.0,0.0,0.0,0.0,0.0,0.0,0.0,0.0,0.0,0.0,0.0,0.0,0.0,0.0,0.0,0.0,0.0,0.0,0.0,0.0,0.0,0.0,0.0,0.0,0.0,0.0,0.0,0.0,0.0,0.0,0.0,0.0,0.0,0.0,0.0,0.0,0.0,0.0,0.0,0.0,0.0,0.0,0.0,0.0,0.0,0.0,0.0,0.0,0.0,0.0,0.0,0.0,0.0,0.0,0.0,0.0,0.0,0.0,0.0,0.0,0.0,0.0,0.0,0.0,0.0,0.0,0.0,0.0,0.0,0.0,0.0,0.0,0.0,0.0,0.0,0.0,0.0,0.0,0.0,0.0,0.0,0.0,0.0,0.0,0.0,0.0,-3.6509,-3.6482,-3.6366,-3.6303,-3.6303,-3.6303,-3.6303,-3.6303,0.0,0.0,0.0,0.0,0.0,0.0,0.0,0.0,0.0,0.0,0.0,0.0,0.0,0.0,0.0,0.0,0.0,0.0,0.0,0.0,0.0,0.0,0.0,0.0,0.0,0.0,0.0,0.0,0.0,0.0,0.0,0.0,0.0,0.0,0.0,0.0,0.0,0.0,0.0,0.0,0.0,0.0,0.0,0.0,0.0,0.0,0.0,0.0,0.0,0.0,0.0,0.0,0.0,0.0,0.0,0.0,0.0,0.0,0.0,0.0,0.0,0.0,0.0,0.0,0.0,0.0,0.0,0.0,0.0,0.0,0.0,0.0,0.0,0.0,0.0,0.0,0.0,0.0,0.0,0.0,0.0,0.0,0.0,0.0,0.0,0.0,0.0,0.0,0.0,0.0,0.0,0.0,0.0,0.0,0.0,0.0,0.0,0.0,0.0,0.0,0.0,0.0,0.0,0.0,-3.6456,-3.634,-3.6303,-3.6303,-3.6303,-3.6303,-3.6303,-3.6303,0.0,0.0,0.0,0.0,0.0,0.0,0.0,0.0,0.0,0.0,0.0,0.0,0.0,0.0,0.0,0.0,0.0,0.0,0.0,0.0,0.0,0.0,0.0,0.0,0.0,0.0,0.0,0.0,0.0,0.0,0.0,0.0,0.0,0.0,0.0,0.0,0.0,0.0,0.0,0.0,0.0,0.0,0.0,0.0,0.0,0.0,0.0,0.0,0.0,0.0,0.0,0.0,0.0,0.0,0.0,0.0,0.0,0.0,0.0,0.0,0.0,0.0,0.0,0.0,0.0,0.0,0.0,0.0,0.0,0.0,0.0,0.0,0.0,0.0,0.0,0.0,0.0,0.0,0.0,0.0,0.0,0.0,0.0,0.0,0.0,0.0,0.0,0.0,0.0,0.0,0.0,0.0,0.0,0.0,0.0,0.0,0.0,0.0,0.0,0.0,0.0,0.0,0.0,-3.7865,-3.7704,-3.7546,-3.7491,-3.7436,-3.7436,-3.7436,-3.7436,-3.7436,-3.7436,0.0,0.0,0.0,0.0,0.0,0.0,0.0,0.0,0.0,0.0,0.0,0.0,0.0,0.0,0.0,0.0,0.0,0.0,0.0,0.0,0.0,0.0,0.0,0.0,0.0,0.0,0.0,0.0,0.0,0.0,0.0,0.0,0.0,0.0,0.0,0.0,0.0,0.0,0.0,0.0,0.0,0.0,0.0,0.0,0.0,0.0,0.0,0.0,0.0,0.0,0.0,0.0,0.0,0.0,0.0,0.0,0.0,0.0,0.0,0.0,0.0,0.0,0.0,0.0,0.0,0.0,0.0,0.0,0.0,0.0,0.0,0.0,0.0,0.0,0.0,0.0,0.0,0.0,0.0,0.0,0.0,0.0,0.0,0.0,0.0,0.0,0.0,0.0,0.0,0.0,0.0,0.0,0.0,0.0,0.0,0.0,0.0,0.0,0.0,0.0,0.0,0.0,-3.9424,-3.9285,-3.9137,-3.9052,-3.8979,-3.8893,-3.8938,-3.8967,-3.8967,-3.8922,0.0,0.0,0.0,0.0,0.0,0.0,0.0,0.0,0.0,0.0,0.0,0.0,0.0,0.0,0.0,0.0,0.0,0.0,0.0,0.0,0.0,0.0,0.0,0.0,0.0,0.0,0.0,0.0,0.0,0.0,0.0,0.0,0.0,0.0,0.0,0.0,0.0,0.0,0.0,0.0,0.0,0.0,0.0,0.0,0.0,0.0,0.0,0.0,0.0,0.0,0.0,0.0,0.0,0.0,0.0,0.0,0.0,0.0,0.0,0.0,0.0,0.0,0.0,0.0,0.0,0.0,0.0,0.0,0.0,0.0,0.0,0.0,0.0,0.0,0.0,0.0,0.0,0.0,0.0,0.0,0.0,0.0,0.0,0.0,0.0,0.0,0.0,0.0,0.0,0.0,0.0,0.0,0.0,0.0,0.0,0.0,0.0,0.0,0.0,0.0,0.0,0.0,-4.1033,-4.0935,-4.0665,-4.0736,-4.0691,-4.038,-4.0531,-4.0636,-4.0636,-4.0456,0.0,0.0,0.0,0.0,0.0,0.0,0.0,0.0,0.0,0.0,0.0,0.0,0.0,0.0,0.0,0.0,0.0,0.0,0.0,0.0,0.0,0.0,0.0,0.0,0.0,0.0,0.0,0.0,0.0,0.0,0.0,0.0,0.0,0.0,0.0,0.0,0.0,0.0,0.0,0.0,0.0,0.0,0.0,0.0,0.0,0.0,0.0,0.0,0.0,0.0,0.0,0.0,0.0,0.0,0.0,0.0,0.0,0.0,0.0,0.0,0.0,0.0,0.0,0.0,0.0,0.0,0.0,0.0,0.0,0.0,0.0,0.0,0.0,0.0,0.0,0.0,0.0,0.0,0.0,0.0,0.0,0.0,0.0,0.0,0.0,0.0,0.0,0.0,0.0,0.0,0.0,0.0,0.0,0.0,0.0,0.0,0.0,0.0,0.0,0.0,0.0,0.0,-4.1267,-4.1152,0.0,-4.1012,-4.0954,-4.0838,-4.0867,-4.0912,-4.0912,0.0,0.0,0.0,0.0,0.0,0.0,0.0,0.0,0.0,0.0,0.0,0.0,0.0,0.0,0.0,0.0,0.0,0.0,0.0,0.0,0.0,0.0,0.0,0.0,0.0,0.0,0.0,0.0,0.0,0.0,0.0,0.0,0.0,0.0,0.0,0.0,0.0,0.0,0.0,0.0,0.0,0.0,0.0,0.0,0.0,0.0,0.0,0.0,0.0,0.0,0.0,0.0,0.0,0.0,0.0,0.0,0.0,0.0,0.0,0.0,0.0,0.0,0.0,0.0,0.0,0.0,0.0,0.0,0.0,0.0,0.0,0.0,0.0,0.0,0.0,0.0,0.0,0.0,0.0,0.0,0.0,0.0,0.0,0.0,0.0,0.0,0.0,0.0,0.0,0.0,0.0,0.0,0.0,0.0,0.0,0.0,0.0,0.0,0.0,0.0,0.0,0.0,-4.2092,-4.2018,-4.1931,0.0,-4.186,-4.1789,-4.1684,-4.173,-4.176,-4.176,0.0,0.0,0.0,0.0,0.0,0.0,0.0,0.0,0.0,0.0,0.0,0.0,0.0,0.0,0.0,0.0,0.0,0.0,0.0,0.0,0.0,0.0,0.0,0.0,0.0,0.0,0.0,0.0,0.0,0.0,0.0,0.0,0.0,0.0,0.0,0.0,0.0,0.0,0.0,0.0,0.0,0.0,0.0,0.0,0.0,0.0,0.0,0.0,0.0,0.0,0.0,0.0,0.0,0.0,0.0,0.0,0.0,0.0,0.0,0.0,0.0,0.0,0.0,0.0,0.0,0.0,0.0,0.0,0.0,0.0,0.0,0.0,0.0,0.0,0.0,0.0,0.0,0.0,0.0,0.0,0.0,0.0,0.0,0.0,0.0,0.0,0.0,0.0,0.0,0.0,0.0,0.0,0.0,0.0,0.0,0.0,0.0,0.0,0.0,0.0,0.0,0.0,-4.3615,-4.3615,-4.3585,-4.3435,-4.3555,-4.3495,-4.316,-4.3298,-4.3435,0.0,0.0,0.0,0.0,0.0,0.0,0.0,0.0,0.0,0.0,0.0,0.0,0.0,0.0,0.0,0.0,0.0,0.0,0.0,0.0,0.0,0.0,0.0,0.0,0.0,0.0,0.0,0.0,0.0,0.0,0.0,0.0,0.0,0.0,0.0,0.0,0.0,0.0,0.0,0.0,0.0,0.0,0.0,0.0,0.0,0.0,0.0,0.0,0.0,0.0,0.0,0.0,0.0,0.0,0.0,0.0,0.0,0.0,0.0,0.0,0.0,0.0,0.0,0.0,0.0,0.0,0.0,0.0,0.0,0.0,0.0,0.0,0.0,0.0,0.0,0.0,0.0,0.0,0.0,0.0,0.0,0.0,0.0,0.0,0.0,0.0,0.0,0.0,0.0,0.0,0.0,0.0,0.0,0.0,0.0,0.0,0.0,0.0,0.0,0.0,0.0,0.0,0.0,-4.5086,-4.5152,-4.5152,-4.509,-4.5121,-4.5121,-4.5012,-4.5059,-4.509,-4.509,0.0,0.0,0.0,0.0,0.0,0.0,0.0,0.0,0.0,0.0,0.0,0.0,0.0,0.0,0.0,0.0,0.0,0.0,0.0,0.0,0.0,0.0,0.0,0.0,0.0,0.0,0.0,0.0,0.0,0.0,0.0,0.0,0.0,0.0,0.0,0.0,0.0,0.0,0.0,0.0,0.0,0.0,0.0,0.0,0.0,0.0,0.0,0.0,0.0,0.0,0.0,0.0,0.0,0.0,0.0,0.0,0.0,0.0,0.0,0.0,0.0,0.0,0.0,0.0,0.0,0.0,0.0,0.0,0.0,0.0,0.0,0.0,0.0,0.0,0.0,0.0,0.0,0.0,0.0,0.0,0.0,0.0,0.0,0.0,0.0,0.0,0.0,0.0,0.0,0.0,0.0,0.0,0.0,0.0,0.0,0.0,0.0,0.0,0.0,0.0,0.0,0.0,-4.5732,-4.5798,-4.5798,-4.5798,-4.5798,-4.5798,-4.5798,-4.5798,-4.5798,-4.5798,0.0,0.0,0.0,0.0,0.0,0.0,0.0,0.0,0.0,0.0,0.0,0.0,0.0,0.0,0.0,0.0,0.0,0.0,0.0,0.0,0.0,0.0,0.0,0.0,0.0,0.0,0.0,0.0,0.0,0.0,0.0,0.0,0.0,0.0,0.0,0.0,0.0,0.0,0.0,0.0,0.0,0.0,0.0,0.0,0.0,0.0,0.0,0.0,0.0,0.0,0.0,0.0,0.0,0.0,0.0,0.0,0.0,0.0,0.0,0.0,0.0,0.0,0.0,0.0,0.0,0.0,0.0,0.0,0.0,0.0,0.0,0.0,0.0,0.0,0.0,0.0,0.0,0.0,0.0,0.0,0.0,0.0,0.0,0.0,0.0,0.0,0.0,0.0,0.0,0.0,0.0,0.0,0.0,0.0,0.0,0.0,0.0,0.0,0.0,0.0,0.0,0.0,-4.5997,-4.5997,-4.5997,-4.5997,-4.5997,-4.5997,-4.5997,-4.5997,-4.5997,-4.5997,0.0,0.0,0.0,0.0,0.0,0.0,0.0,0.0,0.0,0.0,0.0,0.0,0.0,0.0,0.0,0.0,0.0,0.0,0.0,0.0,0.0,0.0,0.0,0.0,0.0,0.0,0.0,0.0,0.0,0.0,0.0,0.0,0.0,0.0,0.0,0.0,0.0,0.0,0.0,0.0,0.0,0.0,0.0,0.0,0.0,0.0,0.0,0.0,0.0,0.0,0.0,0.0,0.0,0.0,0.0,0.0,0.0,0.0,0.0,0.0,-4.4472,0.0,0.0,0.0,0.0,0.0,0.0,0.0,0.0,0.0,0.0,0.0,0.0,0.0,0.0,0.0,0.0,0.0,0.0,0.0,0.0,0.0,0.0,0.0,0.0,0.0,0.0,0.0,0.0,0.0,0.0,0.0,0.0,0.0,0.0,0.0,0.0,0.0,0.0,0.0,0.0,0.0,-4.7454,-4.7537,-4.7537,-4.7537,-4.7537,-4.7537,-4.7537,-4.7537,-4.7537,-4.7537,-4.7537,0.0,0.0,0.0,0.0,0.0,0.0,0.0,0.0,0.0,0.0,0.0,0.0,0.0,0.0,0.0,0.0,0.0,0.0,0.0,0.0,0.0,0.0,0.0,0.0,0.0,0.0,0.0,0.0,0.0,0.0,0.0,0.0,0.0,0.0,0.0,0.0,0.0,0.0,0.0,0.0,0.0,0.0,0.0,0.0,0.0,0.0,0.0,0.0,0.0,0.0,0.0,0.0,0.0,0.0,0.0,0.0,0.0,0.0,0.0,0.0,-4.4691,0.0,0.0,0.0,0.0,0.0,0.0,0.0,0.0,0.0,0.0,0.0,0.0,0.0,0.0,0.0,0.0,0.0,0.0,0.0,0.0,0.0,0.0,0.0,0.0,0.0,0.0,0.0,0.0,0.0,0.0,0.0,0.0,0.0,0.0,0.0,0.0,0.0,0.0,0.0,0.0,-4.7951,-4.8001,-4.8001,-4.8001,-4.8001,-4.8001,-4.8001,-4.8001,-4.8001,-4.8001,-4.8001,0.0,0.0,0.0,0.0,0.0,0.0,0.0,0.0,0.0,0.0,0.0,0.0,0.0,0.0,0.0,0.0,0.0,0.0,0.0,0.0,0.0,0.0,0.0,0.0,0.0,0.0,0.0,0.0,0.0,0.0,0.0,0.0,0.0,0.0,0.0,0.0,0.0,0.0,0.0,0.0,0.0,0.0,0.0,0.0,0.0,0.0,0.0,0.0,0.0,0.0,0.0,0.0,0.0,-4.7119,-4.7636,-4.7653,-4.834,-4.8866,-4.9198,-4.7357,-4.6523,-4.6372,-4.5412,0.0,0.0,0.0,0.0,0.0,0.0,0.0,0.0,0.0,0.0,0.0,0.0,0.0,0.0,0.0,0.0,0.0,0.0,0.0,0.0,0.0,0.0,0.0,0.0,-4.8001,-4.7669,0.0,0.0,0.0,0.0,0.0,0.0,0.0,0.0,0.0,0.0,0.0,0.0,-4.8001,-4.8001,-4.8001,-4.8001,-4.8001,-4.8001,-4.8001,-4.8001,-4.8001,-4.8001,-4.8001,-4.8001,0.0,0.0,0.0,0.0,0.0,0.0,0.0,0.0,0.0,0.0,0.0,0.0,0.0,0.0,0.0,0.0,0.0,0.0,0.0,0.0,0.0,0.0,0.0,0.0,0.0,0.0,0.0,0.0,0.0,0.0,0.0,0.0,-4.6998,-4.6998,0.0,0.0,0.0,0.0,0.0,0.0,0.0,0.0,0.0,0.0,0.0,0.0,0.0,-4.8852,-4.8762,-4.8852,-4.8852,-4.8762,-4.8959,-4.9036,-4.9036,-4.9143,-4.9245,-4.9251,-4.8443,0.0,-4.7412,-4.7248,0.0,0.0,0.0,0.0,0.0,0.0,0.0,0.0,0.0,0.0,0.0,0.0,0.0,0.0,0.0,0.0,0.0,0.0,0.0,0.0,0.0,0.0,-4.7885,-4.7984,-4.8001,-4.7951,0.0,-4.7785,-4.7852,-4.7868,-4.7934,0.0,0.0,0.0,0.0,0.0,0.0,0.0,-4.8001,-4.8001,-4.8001,-4.8001,-4.8001,-4.8001,-4.8001,-4.8001,-4.8001,-4.8001,-4.8001,-4.8001,-4.8001,-4.8001,0.0,0.0,0.0,0.0,0.0,0.0,0.0,0.0,0.0,0.0,0.0,0.0,0.0,0.0,0.0,0.0,0.0,0.0,0.0,0.0,0.0,0.0,0.0,0.0,0.0,0.0,0.0,0.0,0.0,-4.6998,-4.7181,-4.7627,-4.7681,-4.7836,0.0,0.0,0.0,0.0,0.0,0.0,0.0,0.0,0.0,-4.9275,-4.9293,-4.9293,-4.9293,-4.9293,-4.9293,-4.9311,-4.9757,-4.9977,-4.9971,-5.0441,-5.0464,-5.0142,-4.9846,-4.9219,-4.8267,-4.7449,-4.6789,-4.6321,0.0,0.0,0.0,0.0,-4.704,-4.704,-4.704,-4.704,0.0,-4.704,0.0,0.0,0.0,0.0,0.0,0.0,0.0,0.0,0.0,0.0,-4.8001,-4.8001,-4.8001,-4.8001,-4.8001,-4.8001,-4.8001,0.0,-4.8001,-4.8001,-4.8001,0.0,0.0,0.0,0.0,-4.8001,-4.8001,-4.8001,-4.8001,-4.8001,-4.8001,-4.8001,-4.8001,-4.8001,-4.8001,-4.8001,-4.8001,-4.8001,-4.8001,-4.8001,-4.8001,0.0,0.0,0.0,0.0,0.0,0.0,0.0,0.0,0.0,0.0,0.0,0.0,0.0,0.0,0.0,0.0,0.0,0.0,0.0,0.0,0.0,0.0,0.0,0.0,0.0,0.0,0.0,0.0,-4.7586,-4.78,-4.8413,-4.8484,-4.8693,0.0,0.0,0.0,0.0,0.0,0.0,-4.9596,-4.9596,-4.9685,-4.9924,-5.012,-5.0227,-5.0227,-5.0399,-5.0488,-5.0506,-5.1094,-5.1405,-5.1422,-5.2029,-5.1952,-5.1355,-5.1217,-5.05,-4.9357,-4.7868,-4.7157,-4.706,-4.7148,-4.7173,-4.7255,-4.7802,-4.8001,-4.8001,-4.8001,-4.8001,-4.8001,-4.8001,0.0,-4.8001,-4.8001,0.0,0.0,0.0,0.0,-4.8001,-4.8001,-4.8001,-4.8001,-4.8001,-4.8001,-4.8001,-4.8001,-4.8001,-4.8001,0.0,-4.8001,-4.8001,-4.8001,0.0,0.0,0.0,0.0,-4.8001,-4.8001,-4.8001,-4.8001,-4.8001,-4.8001,-4.8001,-4.8001,-4.8001,-4.8001,-4.8001,-4.8001,-4.8001,-4.8001,-4.8001,-4.8001,-4.8001,0.0,0.0,0.0,0.0,0.0,0.0,0.0,0.0,0.0,0.0,0.0,0.0,0.0,0.0,0.0,0.0,0.0,0.0,0.0,0.0,0.0,0.0,0.0,0.0,0.0,0.0,0.0,0.0,0.0,-4.924,-4.924,0.0,0.0,0.0,0.0,-4.9293,-4.9293,-4.9614,-5.0405,-5.0441,-5.0798,-5.1547,-5.234,-5.2733,-5.2733,-5.3421,-5.3752,-5.3752,-5.3787,-5.3823,-5.3823,-5.3859,-5.3521,-5.286,-5.2292,-5.1627,-5.0881,-4.9407,-4.8442,-4.7934,-4.7934,-4.7934,-4.7951,-4.7984,-4.8001,-4.8001,-4.8001,-4.8001,-4.8001,-4.8001,-4.8001,-4.8001,-4.8001,-4.8001,0.0,0.0,-4.8001,-4.8001,-4.8001,-4.8001,-4.8001,-4.8001,-4.8001,-4.8001,-4.8001,-4.8001,-4.8001,0.0,-4.8001,-4.8001,-4.8001,0.0,-4.8001,-4.8001,-4.8001,-4.8001,-4.8001,-4.8001,-4.8001,-4.8001,-4.8001,-4.8001,-4.8001,-4.8001,-4.8001,-4.8001,-4.8001,-4.8001,-4.8001,-4.8001,-4.8001,-4.8001,-4.8001,0.0,0.0,0.0,0.0,0.0,0.0,0.0,0.0,0.0,0.0,0.0,0.0,0.0,0.0,0.0,0.0,0.0,0.0,0.0,0.0,0.0,0.0,0.0,0.0,0.0,0.0,0.0,0.0,-5.0006,-5.0084,0.0,-5.0798,-5.0834,-5.0834,-5.0834,-5.1315,-5.1726,-5.2029,-5.2493,-5.286,-5.3171,-5.3474,-5.3617,-5.3617,-5.4384,-5.4777,-5.4795,-5.5312,-5.5544,-5.5544,-5.5544,-5.4938,-5.3853,-5.3168,-5.2262,-5.1144,-5.0143,-4.9626,-4.9375,-4.8895,-4.8713,-4.8647,-4.8183,-4.8001,-4.8001,-4.8001,-4.8001,-4.8001,-4.8001,-4.8001,-4.8001,-4.8001,-4.8332,-4.8713,-4.8713,-4.9061,-4.9425,-4.9425,-4.9425,-4.9425,-4.9425,-4.9425,-4.9425,-4.9425,-4.9425,-4.9425,-4.9425,-4.8647,-4.8001,-4.8001,-4.8001,-4.8001,-4.8001,-4.8415,-4.8713,-4.8713,-4.9127,-4.9425,-4.9425,-4.9425,-4.9425,-4.9425,-4.9425,-4.9425,-4.9425,-4.9425,-4.9425,-4.9425,-4.9425,-4.9425,-4.9425,-4.9425,-4.9425,0.0,0.0,0.0,0.0,0.0,0.0,0.0,0.0,0.0,0.0,0.0,0.0,0.0,0.0,0.0,0.0,0.0,0.0,0.0,0.0,0.0,0.0,0.0,0.0,0.0,0.0,-5.0316,-5.0834,-5.1137,-5.1512,-5.2047,-5.2332,-5.2475,-5.2475,-5.2975,-5.3385,-5.3653,-5.4152,-5.4518,-5.4813,-5.508,-5.5223,-5.5223,-5.6008,-5.6373,-5.6401,-5.6918,-5.7186,-5.7186,-5.6944,-5.6234,-5.5098,-5.4342,-5.3399,-5.234,-5.186,-5.1661,-5.1529,-5.0055,-4.9475,-4.9425,-4.8928,-4.8746,-4.8746,-4.8746,-4.8746,-4.8746,-4.8746,-4.8746,-4.8746,-4.8746,-4.9094,-4.9475,-4.9475,-4.9839,-5.022,-5.022,-5.022,-5.022,-5.022,-5.022,-5.022,-5.022,-5.022,-5.022,-5.022,-4.9425,-4.8746,-4.8746,-4.8746,-4.8746,-4.8746,-4.9177,-4.9475,-4.9475,-4.9906,-5.022,-5.022,-5.022,-5.022,-5.022,-5.022,-5.022,-5.022,-5.0436,-5.0568,-5.0568,-5.0568,-5.0568,-5.0568,-5.0568,-5.0701,-5.0949,0.0,0.0,0.0,0.0,0.0,0.0,0.0,0.0,0.0,0.0,0.0,0.0,0.0,0.0,0.0,0.0,0.0,0.0,0.0,0.0,0.0,0.0,0.0,-5.169,-5.1708,-5.1726,-5.1726,-5.2465,-5.2947,-5.2947,-5.3599,-5.4037,-5.4037,-5.4073,-5.4447,-5.5241,-5.5312,-5.5669,-5.6436,-5.7221,-5.7642,-5.7642,-5.8381,-5.8745,-5.8745,-5.8763,-5.8763,-5.8734,-5.8081,-5.7381,-5.6634,-5.5876,-5.5135,-5.4506,-5.449,-5.449,-5.4245,-5.1413,-5.0303,-5.0286,-5.0253,-5.0237,-5.022,-5.022,-5.022,-5.022,-5.022,-5.022,-5.022,-5.022,-5.0237,-5.0237,-5.0237,-5.027,-5.0286,-5.0286,-5.0286,-5.0286,-5.0286,-5.0286,-5.0286,-5.0286,-5.0286,-5.0286,-5.0286,-5.0286,-5.027,-5.022,-5.022,-5.022,-5.022,-5.0237,0.0,-5.0237,-5.027,-5.0286,-5.0286,-5.0286,-5.0286,-5.0286,-5.0286,-5.0286,-5.0286,-5.0932,-5.1348,-5.1365,-5.1382,-5.1398,-5.1415,-5.1415,-5.1763,-5.2492,0.0,0.0,0.0,0.0,0.0,0.0,0.0,0.0,0.0,0.0,0.0,0.0,0.0,0.0,0.0,0.0,0.0,0.0,0.0,0.0,0.0,0.0,-5.2376,-5.1779,-5.219,-5.2572,-5.2572,-5.3242,-5.3706,-5.3706,-5.442,-5.4884,-5.4884,-5.5955,-5.6704,-5.6918,-5.7453,-5.7836,-5.805,-5.8264,-5.8388,-5.8388,-5.9173,-5.9577,-5.9565,-6.0165,-6.0451,-6.0421,-5.9686,-5.8968,-5.8203,-5.6914,-5.5942,-5.5251,-5.4705,-5.449,-5.4357,-5.3053,-5.2224,-5.1711,-5.1181,-5.0651,-5.022,-5.022,-5.022,-5.022,-5.022,-5.022,-5.022,-5.022,-5.0568,-5.0982,-5.0982,-5.1363,-5.1794,-5.1794,-5.1794,-5.1794,-5.1794,-5.1794,-5.1794,-5.1794,-5.1794,-5.1794,-5.1794,-5.1794,-5.1446,-5.0386,-5.022,-5.022,-5.022,-5.0651,0.0,-5.0982,-5.1446,-5.1794,-5.1794,-5.1794,-5.1794,-5.1794,-5.1794,-5.1794,-5.1794,-5.1976,-5.2307,-5.2804,-5.2821,-5.3086,-5.3616,-5.3632,-5.3732,0.0,0.0,0.0,0.0,0.0,0.0,0.0,0.0,0.0,0.0,0.0,0.0,0.0,0.0,0.0,0.0,0.0,0.0,0.0,0.0,0.0,0.0,-5.259,-5.2965,-5.3135,-5.3278,-5.3492,-5.3813,-5.4545,-5.5152,-5.5491,-5.6222,-5.6659,-5.6659,-5.7543,-5.8203,-5.8542,-5.8988,-5.9351,-5.9701,-5.9719,-5.9719,-5.9719,-6.0183,-6.0415,-6.0415,-6.0879,-6.1093,-6.1064,-6.0321,-5.9596,-5.884,-5.7681,-5.6751,-5.6034,-5.5603,-5.5421,0.0,0.0,0.0,0.0,0.0,-5.2373,-5.1976,-5.1661,-5.1562,-5.1512,-5.1214,-5.1115,-5.1115,-5.1115,-5.1413,-5.1779,-5.1779,-5.2078,-5.2409,-5.2409,-5.2409,-5.2409,-5.2409,-5.2409,-5.2409,-5.2409,-5.2409,-5.2409,-5.2409,-5.2409,0.0,-5.1264,-5.1115,-5.1115,-5.1115,-5.1479,-5.1779,-5.1779,-5.2144,-5.2409,-5.2409,-5.2409,-5.2409,-5.2409,-5.2409,0.0,0.0,0.0,-5.2986,-5.34,-5.3417,0.0,0.0,0.0,-5.4212,-5.449,0.0,0.0,0.0,-5.2033,-5.2206,0.0,0.0,0.0,0.0,0.0,0.0,0.0,0.0,0.0,0.0,0.0,0.0,0.0,0.0,0.0,0.0,-5.325,-5.3796,-5.5277,-5.4911,-5.475,-5.5401,-5.6169,-5.6936,-5.7632,-5.8399,-5.8834,-5.8834,-5.8906,-5.9262,-6.0005,0.0,0.0,0.0,0.0,-6.1361,-6.1361,-6.1361,-6.1361,-6.1361,-6.1361,-6.1361,-6.1331,-6.0505,-5.9791,-5.9116,-5.8269,-5.7528,-5.6945,-5.6945,-5.6895,-5.6663,-5.5206,-5.4605,-5.4589,-5.4506,-5.449,-5.4427,-5.3765,0.0,0.0,-5.2821,-5.2622,-5.2622,-5.2622,-5.2622,-5.2622,-5.2622,-5.2622,-5.2622,-5.2622,-5.2622,-5.2622,-5.2622,-5.2556,-5.2489,-5.2489,-5.244,-5.2409,-5.2409,-5.2409,-5.2409,-5.2409,-5.2409,-5.2409,-5.2409,-5.2409,-5.2409,-5.2409,-5.2409,-5.2409,-5.2409,0.0,0.0,-5.2409,-5.2409,-5.2409,-5.2409,-5.3036,-5.3417,-5.3417,-5.35,-5.3533,-5.3533,-5.3533,-5.3864,-5.449,-5.4407,-5.4026,-5.3384,-5.2808,-5.2567,0.0,0.0,0.0,0.0,0.0,0.0,0.0,0.0,0.0,0.0,0.0,0.0,0.0,0.0,0.0,-5.4527,-5.5294,-5.6044,-5.6989,-5.7525,-5.7622,-5.7186,-5.781,-5.8299,-5.846,-5.9191,-5.9684,-5.9684,-6.0272,-6.0701,-6.0861,-6.1468,-6.1896,-6.2057,-6.2628,-6.2949,-6.2949,-6.2949,-6.2949,-6.2949,0.0,0.0,-6.29,-6.1579,-6.0877,-6.0666,-5.9283,-5.8611,-5.8469,-5.8469,-5.8121,-5.7442,-5.5984,-5.5367,-5.5301,-5.4705,-5.449,-5.4456,-5.4324,-5.4311,-5.4295,-5.4146,-5.4096,-5.4096,-5.4096,-5.4096,0.0,-5.4096,-5.4096,-5.4096,-5.4096,-5.4096,-5.4096,-5.4096,-5.3649,-5.3218,-5.3218,-5.2771,-5.2409,-5.2409,-5.2409,-5.2409,-5.2409,-5.2409,-5.2409,-5.2409,-5.2409,-5.2409,-5.2409,-5.2409,-5.2409,-5.2409,-5.2409,-5.2409,-5.2409,-5.2409,-5.2409,-5.2409,-5.3036,-5.3417,-5.3417,-5.398,-5.4311,-5.4311,-5.4311,-5.4341,-5.449,-5.3914,-5.3549,-5.3417,-5.3282,-5.3378,0.0,0.0,0.0,0.0,0.0,0.0,0.0,0.0,0.0,0.0,0.0,-5.2529,0.0,0.0,-5.4438,-5.5616,-5.6472,-5.74,-5.8595,-5.9077,-5.9137,-5.8792,-5.9095,-5.9441,-5.9862,-6.0272,-6.0504,-6.0504,-6.1254,-6.17,-6.17,-6.2414,-6.2842,-6.2842,-6.3199,-6.3395,-6.3395,-6.3395,-6.3395,-6.3395,-6.3395,-6.3395,-6.3395,-6.2629,-6.2117,-6.1727,-6.0535,-5.9835,-5.9483,-5.9083,-5.8684,-5.827,-5.7541,-5.6812,-5.6117,-5.5752,-5.5603,-5.5554,-5.5206,-5.5036,-5.497,-5.4605,-5.449,-5.449,-5.449,-5.449,-5.449,-5.449,-5.449,-5.449,-5.449,-5.449,-5.449,-5.449,-5.4245,-5.3964,-5.3964,-5.3699,-5.345,-5.345,-5.345,-5.345,-5.345,-5.345,-5.3202,-5.2525,-5.2672,-5.2904,-5.2904,-5.3218,-5.345,-5.345,-5.345,-5.345,-5.345,-5.345,-5.345,-5.345,-5.3781,-5.3964,-5.3964,-5.4291,-5.449,-5.449,-5.449,-5.449,-5.449,-5.4146,-5.3964,-5.3964,-5.3964,-5.3692,0.0,0.0,0.0,0.0,0.0,0.0,0.0,0.0,-5.2154,-5.2965,-5.3225,-5.3564,-5.4349,-5.5134,-5.599,-5.6936,-5.7614,-5.8524,-5.9951,-6.0148,-6.0148,-6.0148,-6.0148,-6.0397,-6.104,-6.1093,-6.1165,-6.1307,-6.1914,-6.2342,-6.2533,-6.3216,-6.3627,-6.3627,-6.377,-6.3859,-6.3859,-6.3859,-6.3859,-6.3859,-6.3859,-6.3859,-6.3859,-6.3699,-6.3268,-6.2522,-6.1598,-6.0847,-6.0218,-5.9428,-5.9115,-5.9098,-5.8966,-5.8171,-5.7094,-5.6962,-5.6812,-5.6614,-5.6034,-5.5797,-5.5736,-5.514,-5.4941,-5.4941,-5.4941,-5.4941,-5.4941,-5.4941,-5.4941,-5.4941,-5.4941,-5.4941,-5.4941,-5.4941,-5.4841,-5.4705,-5.4705,-5.4589,-5.449,-5.449,-5.449,-5.449,-5.449,-5.449,-5.4129,-5.297,-5.3268,-5.3596,-5.3596,-5.4109,-5.449,-5.449,-5.449,-5.449,-5.449,-5.449,-5.449,-5.449,-5.449,-5.449,-5.449,-5.449,-5.449,-5.449,-5.449,-5.449,-5.449,-5.449,-5.449,-5.449,-5.449,-5.3954,-5.1886,-5.169,-5.1869,-5.259,-5.2251,-5.2065,0.0,0.0,-5.2975,-5.3724,-5.4456,-5.5187,-5.5972,-5.6775,-5.7792,-5.9273,-5.9594,-5.9951,-6.0843,-6.0968,-6.0968,-6.0968,-6.0968,-6.1004,-6.1093,-6.1093,-6.1397,-6.2092,-6.2235,-6.2574,-6.3234,-6.4037,-6.4483,-6.4483,-6.5161,-6.5536,-6.5536,-6.5536,-6.5536,-6.5536,-6.5536,-6.5536,-6.5504,-6.4778,-6.4026,-6.3188,-6.1728,-6.1044,-6.0928,-6.0183,-5.9877,-5.981,-5.9164,-5.88,-5.8568,-5.7922,-5.7243,-5.668,-5.6597,-5.6564,-5.6547,-5.6465,-5.6432,-5.6432,-5.6432,-5.6432,-5.6432,-5.6432,-5.6432,-5.6432,-5.6432,-5.6432,-5.6432,-5.6432,-5.5951,-5.5466,-5.5466,-5.4936,-5.449,-5.449,-5.449,-5.449,-5.449,-5.449,-5.446,-5.4311,-5.4345,-5.4394,-5.4394,-5.444,-5.449,-5.449,-5.449,-5.449,-5.449,-5.449,-5.449,-5.449,-5.449,-5.449,-5.449,-5.449,-5.449,-5.449,-5.449,-5.449,-5.449,-5.449,-5.449,-5.449,-5.449,-5.4501,-5.2554,-5.243,0.0,0.0,-5.2957,-5.2671,-5.3752,-5.4135,-5.4456,-5.5241,-5.6044,-5.6829,-5.7614,-5.8399,-5.9148,0.0,-6.029,-6.0719,-6.1058,-6.1093,-6.1093,-6.1093,-6.1093,-6.1093,-6.1093,-6.1093,-6.1432,-6.2247,-6.2681,-6.327,-6.4055,-6.4858,-6.5304,-6.5304,-6.5625,-6.5804,-6.5804,-6.5804,-6.5804,-6.5804,-6.5804,-6.5542,-6.5094,-6.4738,-6.3935,-6.2732,-6.2082,-6.1547,-6.1086,-6.0771,-6.0655,-6.0622,-6.0307,-5.9926,-5.9446,-5.8701,-5.8237,-5.7922,-5.7475,-5.7326,-5.726,-5.6829,-5.668,-5.668,-5.668,-5.668,-5.668,-5.668,-5.668,-5.668,-5.668,-5.668,-5.668,-5.668,-5.6448,-5.6249,-5.6249,-5.6001,-5.5786,-5.5786,-5.5786,-5.5786,-5.5786,-5.5786,-5.5786,-5.5786,-5.5438,-5.5135,-5.5135,-5.5521,-5.5786,-5.5786,-5.5786,-5.5786,-5.5786,-5.5786,-5.5786,-5.5786,-5.5786,-5.5786,-5.5786,-5.5786,-5.5786,-5.5786,-5.5786,-5.5786,-5.5786,-5.5786,-5.5786,-5.5786,-5.5899,-5.5996,-5.3011,0.0,0.0,-5.4152,-5.376,-5.351,-5.4723,-5.5277,-5.583,-5.6829,-5.7667,-5.8399,-5.8923,-5.9701,-6.0237,-6.0237,-6.0719,-6.1093,-6.1093,-6.1093,-6.1093,-6.1093,-6.1093,-6.1093,-6.1093,-6.1289,-6.1753,-6.2521,-6.3288,-6.4073,-6.4894,-6.5482,-6.5804,-6.5804,-6.5804,-6.5804,-6.5804,-6.5804,-6.569,-6.546,-6.546,-6.5043,-6.4253,-6.4059,-6.3371,-6.2279,-6.2059,-6.1652,-6.1102,-6.1102,-6.1102,-6.1102,-6.1102,-6.0771,-6.0241,-5.9694,-5.9247,-5.8817,-5.8287,-5.8088,-5.8005,-5.7475,-5.716,-5.6995,-5.6995,-5.6846,-5.668,-5.668,-5.668,-5.668,-5.668,-5.668,-5.668,-5.668,-5.668,-5.668,-5.668,-5.668,-5.668,-5.668,-5.668,-5.668,-5.668,-5.668,-5.668,-5.668,-5.6249,-5.5918,-5.5918,-5.6365,-5.668,-5.668,-5.668,-5.668,-5.668,-5.668,-5.668,-5.668,-5.668,-5.668,-5.668,-5.668,-5.668,-5.668,-5.668,-5.668,-5.668,-5.668,-5.668,-5.668,-5.6834,-5.6949,0.0,0.0,-5.4144,-5.4973,-5.4554,-5.4598,-5.6936,-5.69,-5.6793,-5.8317,-5.9262,-5.9844,-5.9862,-6.0522,-6.1058,-6.1058,-6.1075,-6.1093,-6.1093,-6.1093,-6.1093,-6.1093,-6.1093,-6.1093,0.0,-6.1807,-6.2556,-6.3306,-6.4109,-6.4929,-6.5732,-6.5786,-6.5804,-6.5804,-6.5804,-6.5804,-6.5804,-6.5804,-6.5427,-6.4635,-6.4635,-6.4218,-6.3393,-6.2693,-6.2341,-6.2279,-6.1482,-6.1102,-6.1102,-6.1102,-6.1102,-6.1102,-6.1102,-6.1102,-6.1069,-6.1053,-6.0125,-5.8899,-5.8866,-5.8866,-5.8866,-5.8833,-5.8353,-5.7757,-5.7757,-5.726,-5.668,-5.668,-5.668,-5.668,-5.668,-5.668,-5.668,-5.668,-5.668,-5.668,-5.668,-5.668,-5.668,-5.668,-5.668,-5.668,-5.668,-5.668,-5.668,-5.668,-5.6663,-5.6663,-5.6663,-5.668,-5.668,-5.668,-5.668,-5.668,-5.668,-5.668,-5.668,-5.668,-5.668,-5.668,-5.668,-5.668,-5.668,-5.668,-5.668,-5.668,-5.668,-5.668,-5.668,-5.668,-5.6735,-5.6796,-5.3328,0.0,-5.5134,-5.6454,-5.6186,-5.6079,-5.7917,-5.8542,-5.8881,-5.9398,-6.0148,-6.0701,-6.0701,-6.0915,-6.1093,-6.1093,-6.1093,-6.1093,-6.1093,-6.1093,-6.1093,-6.1093,-6.1093,0.0,0.0,0.0,0.0,-6.3324,-6.4144,-6.4965,-6.5768,-6.5804,-6.5804,-6.5804,-6.5804,-6.5804,-6.5804,-6.5278,-6.4857,-6.4601,-6.3574,-6.2922,-6.2655,-6.186,-6.1506,-6.1506,-6.121,-6.1102,-6.1102,-6.1102,-6.1102,-6.1102,-6.1102,-6.1102,-6.1102,-6.1102,-6.0804,-6.0291,-5.9794,-5.9628,-5.9545,-5.9065,-5.8734,-5.8518,-5.8518,-5.8353,-5.8154,-5.8154,-5.8154,-5.8154,-5.8154,-5.8154,-5.8154,-5.8154,-5.7773,-5.7425,-5.7425,-5.7044,-5.668,-5.668,-5.668,-5.668,-5.668,-5.668,-5.668,-5.668,-5.668,-5.668,-5.668,-5.668,-5.668,-5.668,-5.668,-5.668,-5.668,-5.668,-5.668,-5.668,-5.668,-5.668,-5.668,-5.668,-5.668,-5.668,-5.668,-5.668,-5.668,-5.668,-5.668,-5.668,-5.6834,-5.7025,-5.4057,-5.5032,-5.6311,-5.7356,-5.74,-5.756,-5.8834,-5.9298,-5.9619,-6.0219,-6.0504,-6.0754,-6.1058,-6.1093,-6.1093,-6.1093,-6.1093,-6.1093,-6.1093,-6.1093,-6.1093,-6.1093,-6.1343,0.0,0.0,0.0,0.0,-6.3787,-6.4573,-6.5251,-6.5768,-6.5804,-6.5804,-6.5804,-6.5804,-6.5657,-6.5376,-6.4857,-6.4306,-6.3773,-6.277,-6.2161,-6.1837,-6.1334,-6.1102,-6.1102,-6.1102,-6.1102,-6.1102,-6.1102,-6.1102,-6.1102,-6.1102,-6.1102,-6.1102,-6.1102,-6.1102,-6.1036,-6.0556,-6.039,-6.0324,-5.9844,-5.9512,-5.9297,-5.9297,-5.9115,-5.8899,-5.8899,-5.8899,-5.8899,-5.8899,-5.8899,-5.8899,-5.8899,-5.8535,-5.8187,-5.8187,-5.7806,-5.7475,-5.7475,-5.7475,-5.7475,-5.7475,-5.7475,-5.7475,-5.7475,-5.7475,-5.7293,-5.6763,-5.668,-5.668,-5.668,-5.668,-5.668,-5.668,-5.668,-5.668,-5.668,-5.668,-5.668,-5.668,-5.668,-5.668,-5.668,-5.668,-5.668,-5.668,-5.668,-5.668,-5.668,-5.6911,-5.7063,-5.4974,-5.6449,-5.7624,-5.7632,-5.8185,-5.8906,-5.9737,-5.9298,-5.9173,-6.0635,-6.0339,-6.0071,0.0,0.0,-6.0974,-6.1093,-6.1075,-6.1058,-6.1093,-6.1093,-6.1093,0.0,0.0,0.0,0.0,0.0,0.0,-6.468,0.0,-6.5804,-6.5804,-6.5804,-6.5804,-6.5804,-6.5754,-6.5376,-6.4601,-6.4566,-6.3809,-6.2302,-6.2335,-6.1911,-6.1102,-6.1152,-6.1152,-6.1102,-6.1102,-6.1102,-6.1102,-6.1102,-6.1102,-6.1102,-6.1102,-6.1102,-6.1102,-6.1102,-6.1102,-6.1102,-6.1102,-6.1102,-6.1102,-6.1102,-6.0639,-6.0059,-6.0059,-5.9562,-5.9015,-5.9015,-5.9015,-5.9015,-5.9015,-5.9015,-5.9015,-5.9015,-5.8982,-5.8966,-5.8966,-5.8933,-5.8899,-5.8899,-5.8899,-5.8899,-5.8899,-5.8899,-5.8899,-5.8899,-5.8899,-5.8386,-5.6978,-5.6796,-5.6796,-5.6796,-5.6796,-5.6779,-5.6746,-5.6746,-5.673,-5.668,-5.668,-5.668,-5.668,-5.668,-5.668,-5.668,-5.668,-5.668,-5.668,-5.6719,-5.6719,-5.6719,-5.6911,-5.7025,-5.4338,-5.6053,-5.7721,-5.8292,-5.8549,-5.8906,-5.9737,-5.9755,-5.9395,-5.8719,-5.8875,-5.921,0.0,0.0,0.0,-6.0838,-6.0611,0.0,-6.1022,-6.1093,0.0,0.0,0.0,-6.2503,-6.3056,-6.4019,0.0,0.0,-6.5679,-6.5804,-6.5804,-6.5804,-6.5804,-6.5804,-6.5212,-6.4823,-6.4601,-6.4006,-6.3225,-6.2318,-6.2804,-6.2381,-6.1136,-6.1666,-6.1616,-6.1102,-6.1102,-6.1102,-6.1102,-6.1102,-6.1102,-6.1102,-6.1102,-6.1102,-6.1102,-6.1102,-6.1102,-6.1102,-6.1102,-6.1102,-6.1102,-6.1102,-6.0986,-6.0821,-6.0821,-6.0705,-6.0539,-6.0539,-6.0539,-6.0539,-6.0539,-6.0539,-6.0539,-6.0539,-6.0125,-5.9728,-5.9728,-5.9297,-5.8899,-5.8899,-5.8899,-5.8899,-5.8899,-5.8899,-5.8899,-5.8899,-5.8899,-5.875,-5.8386,-5.8336,-5.8336,-5.8336,-5.8336,-5.8104,-5.7558,-5.7508,-5.7276,-5.6713,-5.668,-5.668,-5.668,-5.668,-5.668,-5.668,-5.668,-5.668,-5.668,-5.6834,-5.6911,-5.6911,-5.7139,-5.7289,-5.4933,-5.6673,-5.8185,-5.8585,-5.8959,-5.9334,-5.9809,-5.9159,-5.8402,-5.8281,-5.8059,0.0,0.0,0.0,0.0,0.0,0.0,0.0,-6.0504,-6.0879,-6.1218,0.0,-6.2307,0.0,-6.3859,-6.4662,-6.5322,0.0,-6.5804,-6.5804,-6.5804,-6.5804,-6.5804,-6.5804,-6.5009,-6.462,-6.46,-6.446,-6.4033,-6.3283,-6.3632,-6.3163,-6.208,-6.2503,-6.2487,-6.2063,0.0,-6.2063,-6.2063,-6.2063,-6.2063,-6.203,-6.1699,-6.1566,-6.1533,-6.1235,-6.1102,-6.1102,-6.1102,-6.1102,-6.1102,-6.1102,-6.1102,-6.1102,-6.1102,-6.1102,-6.1102,-6.1102,-6.1102,-6.1102,-6.1102,-6.1102,-6.1102,-6.1102,-6.0788,-6.049,-6.049,-6.0158,-5.9877,-5.9877,-5.9877,-5.9877,-5.9877,-5.9877,-5.9877,-5.9877,-5.9877,-5.9877,-5.9877,-5.9297,-5.8899,-5.8899,-5.8899,-5.8734,-5.832,-5.827,-5.8104,-5.7674,-5.7657,-5.7657,-5.7657,-5.7657,-5.7657,-5.7657,-5.7657,-5.7657,-5.7657,-5.7892,-5.7969,-5.7953,-5.826,-5.8472,-5.5728,-5.7341,-5.8416,-5.8416,-5.9019,-5.9565,-5.9478,-5.7966,-5.6912,-5.7936,0.0,-5.6673,-5.7377,0.0,-5.8559,-5.8759,0.0,-5.9916,-5.9916,-6.0594,-6.1397,-6.2182,-6.2931,-6.3716,-6.4537,-6.534,-6.5772,-6.5657,-6.564,-6.569,-6.5804,-6.569,-6.5628,-6.5619,-6.5067,-6.4759,-6.4758,-6.5359,-6.5301,-6.4478,-6.4522,-6.4103,-6.3315,-6.3415,-6.3415,-6.3315,-6.3315,0.0,-6.3315,-6.3315,-6.3315,-6.3266,-6.2619,-6.2354,-6.2288,-6.1632,-6.1401,-6.1384,-6.1285,-6.1251,-6.1235,-6.1136,-6.1102,-6.1102,-6.1102,-6.1102,-6.1102,-6.1102,-6.1102,-6.1102,-6.1102,-6.1102,-6.1102,-6.1102,-6.1102,-6.1102,-6.1102,-6.1102,-6.1102,-6.1102,-6.1102,-6.1102,-6.1102,-6.1102,-6.1102,-6.1102,-6.1102,-6.1102,-6.1102,-5.9993,-5.9198,-5.9198,-5.9198,-5.9148,-5.9049,-5.9049,-5.8999,-5.8899,-5.8899,-5.8899,-5.8899,-5.8899,-5.8899,-5.8899,-5.894,-5.894,-5.894,-5.9162,-5.9281,-5.9281,-5.9638,-5.9831,-5.4371,-5.5837,-5.6964,-5.6964,-5.7504,-5.7858,-5.7311,-5.6874,0.0,0.0,0.0,-5.5825,-5.596,-5.6539,0.0,-5.8608,0.0,0.0,0.0,0.0,-6.1397,0.0,0.0,0.0,0.0,0.0,0.0,0.0,0.0,-6.5094,-6.5754,-6.5161,-6.4795,-6.4818,-6.5303,-6.5563,-6.5535,-6.5635,-6.5263,-6.4421,-6.5005,-6.4606,-6.3332,-6.3902,-6.3852,-6.3315,-6.3315,0.0,-6.3315,-6.3315,-6.3315,-6.3299,-6.3183,-6.3133,-6.3116,-6.2984,-6.2891,-6.2808,-6.2238,-6.2022,-6.1897,-6.1301,-6.1102,-6.1102,-6.1102,-6.1102,-6.1102,-6.1102,-6.1102,-6.1102,-6.1102,-6.1102,-6.1102,-6.1102,-6.1102,-6.1102,-6.1102,-6.1102,-6.1102,-6.1102,-6.1102,-6.1102,-6.1102,-6.1102,-6.1102,-6.1102,-6.1102,-6.1102,-6.1102,-6.0887,-6.0721,-6.0721,-6.0721,-6.0473,-5.986,-5.981,-5.9545,-5.8933,-5.8899,-5.8899,-5.8899,-5.8899,-5.8899,-5.8899,-5.9059,-5.9139,-5.9139,-5.9499,-5.9677,-5.9715,-5.9945,-6.0059,-5.4068,-5.5236,-5.6177,-5.6531,-5.6846,-5.7011,-5.6681,0.0,0.0,0.0,0.0,-5.5163,-5.5512,0.0,0.0,0.0,0.0,0.0,0.0,0.0,0.0,0.0,0.0,0.0,0.0,0.0,0.0,0.0,0.0,-6.4148,-6.4514,-6.4987,-6.5216,-6.5227,-6.6371,-6.6767,-6.6346,-6.6256,-6.6004,-6.5587,-6.5513,-6.5074,-6.4399,-6.4763,-6.473,-6.4382,-6.4382,0.0,-6.4382,-6.4382,-6.4382,-6.4349,-6.4001,-6.3895,-6.3846,-6.3464,-6.3315,-6.3266,-6.2917,-6.2785,-6.2735,-6.2345,-6.1732,-6.1102,-6.1102,-6.1102,-6.1102,-6.1102,-6.1102,-6.1102,-6.1102,-6.1102,-6.1102,-6.1102,-6.1102,-6.1102,-6.1102,-6.1102,-6.1102,-6.1102,-6.1102,-6.1102,-6.1102,-6.1102,-6.1102,-6.1102,-6.1102,-6.1102,-6.1102,-6.1102,-6.1102,-6.1102,-6.1102,-6.097,-6.0605,-6.0572,-6.0423,-6.0075,-6.0042,-6.0042,-6.0042,-6.0042,-6.0083,-6.0189,-6.031,-6.0391,-6.0512,-6.0796,-6.0937,-6.0937,-6.1204,-6.1298,-5.35,-5.4463,-5.5288,-5.5964,-5.6237,-5.6315,-5.6147,-5.5351,0.0,0.0,0.0,-5.4887,-5.5483,0.0,0.0,0.0,0.0,0.0,0.0,0.0,0.0,0.0,0.0,0.0,0.0,0.0,0.0,0.0,0.0,0.0,-6.3634,-6.5163,-6.6075,-6.6038,-6.7373,-6.7706,-6.6865,-6.6763,-6.661,-6.6415,-6.5746,-6.5409,-6.5409,-6.5409,-6.5409,-6.5409,-6.5409,0.0,0.0,-6.5409,-6.5409,-6.5359,-6.4813,-6.4597,-6.4531,-6.3951,-6.3736,-6.3719,-6.3614,-6.3564,-6.3531,-6.3365,-6.2394,-6.1334,-6.1334,-6.1235,-6.1102,-6.1102,-6.1102,-6.1102,-6.1102,-6.1102,-6.1102,-6.1102,-6.1102,-6.1102,-6.1102,-6.1102,-6.1102,-6.1102,-6.1102,-6.1102,-6.1102,-6.1102,-6.1102,-6.1102,-6.1102,-6.1102,-6.1102,-6.1102,-6.1102,-6.1102,-6.1102,-6.1102,-6.1102,-6.1102,-6.1102,-6.1102,-6.1102,-6.1102,-6.1102,-6.1102,-6.1169,-6.1318,-6.1424,-6.1547,-6.1709,-6.1974,-6.2093,-6.2093,-6.2285,-6.2381,-5.1569,-5.2605,-5.3767,-5.4431,-5.5053,-5.5341,-5.4745,0.0,0.0,0.0,-5.4614,-5.5516,-5.5582,-5.6741,0.0,0.0,0.0,0.0,0.0,0.0,0.0,0.0,0.0,0.0,0.0,0.0,0.0,0.0,0.0,0.0,-6.439,-6.6002,-6.6846,-6.681,-6.764,-6.7648,-6.6718,-6.6702,-6.6287,-6.5542,-6.5453,-6.5409,-6.5409,-6.5409,-6.5409,-6.5409,-6.5409,0.0,0.0,-6.5409,-6.5409,-6.5409,-6.5343,-6.5326,-6.5309,-6.5243,-6.5227,-6.5127,-6.4498,-6.4283,-6.4167,-6.3547,-6.2785,-6.2105,-6.2105,-6.1616,-6.1102,-6.1102,-6.1102,-6.1102,-6.1102,-6.1102,-6.1102,-6.1102,-6.1102,-6.1102,-6.1102,-6.1102,-6.1102,-6.1102,-6.1102,-6.1102,-6.1102,-6.1102,-6.1102,-6.1102,-6.1102,-6.1102,-6.1102,-6.1102,-6.1102,-6.1102,-6.1102,-6.1102,-6.1102,-6.1102,-6.1102,-6.1102,-6.1102,-6.1102,-6.1102,-6.1102,-6.1102,-6.1144,-6.1482,-6.1669,-6.1709,-6.2127,-6.2341,-6.2341,-6.2381,-6.2381,-5.0634,-5.104,-5.1833,-5.3378,-5.3639,-5.3696,-5.4287,0.0,0.0,-5.42,-5.487,-5.5752,-5.6183,-5.64,-5.6251,0.0,0.0,0.0,0.0,0.0,0.0,0.0,0.0,0.0,0.0,0.0,0.0,0.0,0.0,0.0,-6.5148,-6.5851,-6.6429,-6.6807,-6.7133,-6.7072,-6.6694,-6.6175,-6.573,-6.5409,-6.5409,-6.5409,-6.5409,-6.5409,-6.5409,-6.5409,-6.5409,0.0,0.0,-6.5409,-6.5409,-6.5409,-6.5409,-6.5409,-6.5409,-6.5409,-6.5409,-6.5376,-6.5094,-6.4995,-6.4945,-6.4664,-6.4084,-6.3382,-6.2487,-6.1964,-6.1666,-6.1235,-6.1102,-6.1102,-6.1102,-6.1102,-6.1102,-6.1102,-6.1102,-6.1102,-6.1102,-6.1102,-6.1102,-6.1102,-6.1102,-6.1102,-6.1102,-6.1102,-6.1102,-6.1102,-6.1102,-6.1102,-6.1102,-6.1102,-6.1102,-6.1102,-6.1102,-6.1102,-6.1102,-6.1102,-6.1102,-6.1102,-6.1102,-6.1102,-6.1102,-6.1102,-6.121,-6.1458,-6.1645,-6.1847,-6.2127,-6.2302,-6.2381,-6.2381,-6.2381,-6.2381,-5.022,-5.0369,-5.0909,-5.2599,-5.2793,-5.2888,0.0,0.0,0.0,-5.4542,-5.5272,-5.6084,-5.6597,-5.61,-5.5505,0.0,0.0,0.0,0.0,0.0,0.0,0.0,0.0,0.0,0.0,0.0,0.0,0.0,0.0,0.0,0.0,-6.522,-6.5747,-6.6742,-6.6738,-6.6584,-6.6346,-6.5686,-6.5409,-6.5409,-6.5409,-6.5409,-6.5409,-6.5409,-6.5409,-6.5409,-6.5409,0.0,0.0,-6.5409,-6.5409,-6.5409,-6.5409,-6.5409,-6.5409,-6.5409,-6.5409,-6.5409,-6.5409,-6.5409,-6.5409,-6.5409,-6.5094,-6.4415,-6.2984,-6.2387,-6.2072,-6.1318,-6.1102,-6.1102,-6.1102,-6.1102,-6.1102,-6.1102,-6.1102,-6.1102,-6.1102,-6.1102,-6.1102,-6.1102,-6.1102,-6.1102,-6.1102,-6.1102,-6.1102,-6.1102,-6.1102,-6.1102,-6.1102,-6.1102,-6.1102,-6.1102,-6.1102,-6.1102,-6.1102,-6.1102,-6.1102,-6.1102,-6.1102,-6.1102,-6.1102,-6.1102,-6.1252,-6.1588,-6.1669,-6.187,-6.2285,-6.2341,-6.2381,-6.2381,-6.2381,-6.2381,-5.022,-5.0734,-5.1456,-5.2134,-5.2857,-5.3382,0.0,0.0,0.0,-5.4658,-5.567,-5.668,-5.668,-5.61,-5.535,-5.4643,-5.4479,0.0,0.0,0.0,0.0,0.0,0.0,0.0,0.0,0.0,0.0,0.0,0.0,0.0,0.0,-6.3998,-6.5138,-6.6626,-6.6694,-6.6304,-6.5409,-6.5409,-6.5409,-6.5409,-6.5409,-6.5409,-6.5409,-6.5409,-6.5409,0.0,0.0,0.0,0.0,-6.5409,-6.5409,-6.5409,-6.5409,-6.5409,-6.5409,-6.5409,-6.5409,-6.5409,-6.5409,-6.5409,-6.5409,-6.5409,-6.5409,-6.5144,-6.3703,-6.2801,-6.2072,-6.1318,-6.1102,-6.1102,-6.1102,-6.1102,-6.1102,-6.1102,-6.1102,-6.1102,-6.1102,-6.1102,-6.1102,-6.1102,-6.1102,-6.1102,-6.1102,-6.1102,-6.1102,-6.1102,-6.1102,-6.1102,-6.1102,-6.1102,-6.1102,-6.1102,-6.1102,-6.1102,-6.1102,-6.1102,-6.1102,-6.1102,-6.1102,-6.1102,-6.1102,-6.1102,-6.1227,-6.1383,-6.1588,-6.1813,-6.198,-6.2285,-6.2381,-6.2381,-6.2381,-6.2381,-5.0353,-5.0369,-5.0823,-5.2016,-5.2135,-5.2367,-5.3821,0.0,0.0,0.0,-5.6034,-5.668,-5.668,-5.5703,-5.4754,-5.456,-5.3701,-5.3815,0.0,0.0,0.0,0.0,0.0,0.0,0.0,0.0,0.0,0.0,0.0,0.0,0.0,-6.3047,-6.3566,-6.5094,-6.5567,-6.5702,-6.5409,-6.5409,-6.5409,-6.5409,-6.5409,-6.5409,-6.5409,-6.5409,-6.5409,0.0,0.0,0.0,0.0,-6.5409,-6.5409,-6.5409,-6.5409,-6.5409,-6.5409,-6.5409,-6.5409,-6.5409,-6.5409,-6.5409,-6.5409,-6.5409,-6.5409,-6.5144,-6.3703,-6.3166,-6.2676,-6.145,-6.1102,-6.1102,-6.1102,-6.1102,-6.1102,-6.1102,-6.1102,-6.1102,-6.1102,-6.1102,-6.1102,-6.1102,-6.1102,-6.1102,-6.1102,-6.1102,-6.1102,-6.1102,-6.1102,-6.1102,-6.1102,-6.1102,-6.1102,-6.1102,-6.1102,-6.1102,-6.1102,-6.1102,-6.1102,-6.1102,-6.1102,-6.1102,-6.1102,-6.121,-6.14,-6.1588,-6.1813,-6.2014,-6.2285,-6.2341,-6.2381,-6.2381,-6.2381,-6.2381,0.0,-5.0402,-5.0821,-5.1681,-5.1828,0.0,0.0,0.0,0.0,0.0,0.0,0.0,-5.6332,-5.5322,-5.4427,-5.4146,-5.3135,0.0,0.0,0.0,0.0,0.0,0.0,0.0,0.0,0.0,0.0,0.0,0.0,0.0,0.0,-6.2316,-6.2636,-6.3564,-6.4233,-6.4746,-6.5028,-6.5028,-6.516,-6.5409,-6.5409,-6.5409,-6.5409,-6.5409,-6.5409,0.0,0.0,0.0,0.0,-6.5409,-6.5409,-6.5409,-6.5409,-6.5409,-6.5409,-6.5409,-6.5409,-6.5409,-6.5409,-6.5409,-6.5409,-6.5409,-6.5044,-6.4382,-6.3222,-6.2676,-6.2278,-6.1367,-6.1102,-6.1102,-6.1102,-6.1102,-6.1102,-6.1102,-6.1102,-6.1102,-6.1102,-6.1102,-6.1102,-6.1102,-6.1102,-6.1102,-6.1102,-6.1102,-6.1102,-6.1102,-6.1102,-6.1102,-6.1102,-6.1102,-6.1102,-6.1102,-6.1102,-6.1102,-6.1102,-6.1102,-6.1102,-6.1102,-6.1186,-6.121,-6.121,-6.14,-6.1628,-6.1813,-6.1917,-6.2133,-6.2381,-6.2381,-6.2381,-6.2381,-6.2381,-6.2381,0.0,0.0,0.0,0.0,0.0,0.0,0.0,0.0,0.0,0.0,0.0,0.0,0.0,0.0,-5.4241,-5.3533,-5.287,0.0,0.0,0.0,0.0,0.0,0.0,0.0,0.0,0.0,0.0,0.0,0.0,0.0,0.0,-6.1732,-6.2138,-6.2138,-6.2801,-6.3504,-6.4299,-6.4299,-6.463,-6.526,-6.526,-6.526,-6.526,-6.5309,-6.5343,0.0,0.0,0.0,0.0,-6.5409,-6.5409,-6.5409,-6.5409,-6.5409,-6.5409,-6.5409,-6.5409,-6.5409,-6.5409,-6.5409,-6.5409,-6.5359,-6.4365,-6.3116,-6.242,-6.1666,-6.1102,-6.1102,-6.1102,-6.1102,-6.1102,-6.1102,-6.1102,-6.1102,-6.1102,-6.1102,-6.1102,-6.1102,-6.1102,-6.1102,-6.1102,-6.1102,-6.1102,-6.1102,-6.1102,-6.1102,-6.1102,-6.1102,-6.1102,-6.1102,-6.1102,-6.1102,-6.1102,-6.1102,-6.1102,-6.1102,-6.1119,-6.1102,-6.1293,-6.1383,-6.1424,-6.1628,-6.1813,-6.1997,-6.2037,-6.2133,-6.2381,-6.2381,-6.2381,-6.2381,-6.2381,-6.2381,-5.1315,0.0,-5.2161,-5.2161,0.0,0.0,0.0,0.0,0.0,0.0,0.0,0.0,0.0,0.0,0.0,0.0,0.0,0.0,0.0,0.0,0.0,0.0,0.0,0.0,0.0,0.0,0.0,0.0,0.0,0.0,0.0,-6.1268,-6.1351,-6.1351,-6.1533,-6.2229,-6.3564,-6.358,-6.362,-6.3769,-6.3769,-6.3769,-6.3802,-6.4316,-6.4597,0.0,0.0,0.0,-6.5409,-6.5409,-6.5409,-6.5409,-6.5409,-6.5409,-6.5409,-6.5409,-6.5409,-6.5409,-6.5409,-6.5409,-6.5326,-6.4796,-6.3637,-6.2437,-6.2255,-6.1666,-6.1102,-6.1102,-6.1102,-6.1102,-6.1102,-6.1102,-6.1102,-6.1102,-6.1102,-6.1102,-6.1102,-6.1102,-6.1102,-6.1102,-6.1102,-6.1102,-6.1102,-6.1102,-6.1102,-6.1102,-6.1102,-6.1102,-6.1102,-6.1102,-6.1102,-6.1102,-6.1102,-6.1102,-6.1102,-6.1102,-6.1186,-6.1318,-6.1383,-6.1465,-6.1628,-6.1813,-6.1957,-6.1997,-6.2189,-6.2341,-6.2381,-6.2381,-6.2381,-6.2381,-6.2381,-6.2381,-5.1928,-5.2111,-5.2409,-5.2409,-5.2409,-5.2754,0.0,0.0,0.0,0.0,0.0,0.0,0.0,0.0,0.0,0.0,0.0,0.0,0.0,0.0,0.0,0.0,0.0,0.0,0.0,0.0,0.0,0.0,0.0,0.0,0.0,-6.1102,-6.1102,-6.1102,-6.1102,-6.1649,-6.2801,-6.2818,-6.2984,-6.3315,-6.3315,-6.3315,-6.3332,-6.367,-6.3852,0.0,0.0,0.0,-6.4978,-6.5276,-6.5409,-6.5409,-6.5409,-6.5409,-6.5409,-6.5409,-6.5409,-6.5376,-6.5044,-6.4713,-6.4316,-6.3603,-6.2868,-6.2155,-6.1781,-6.1417,-6.1102,-6.1102,-6.1102,-6.1102,-6.1102,-6.1102,-6.1102,-6.1102,-6.1102,-6.1102,-6.1102,-6.1102,-6.1102,-6.1102,-6.1102,-6.1102,-6.1102,-6.1102,-6.1102,-6.1102,-6.1102,-6.1102,-6.1102,-6.1102,-6.1102,-6.1102,-6.1102,-6.1102,-6.1102,-6.1102,-6.1186,-6.14,-6.1465,-6.1628,-6.1813,-6.207,-6.2189,-6.2189,-6.2341,-6.2381,-6.2381,-6.2381,-6.2381,-6.2381,-6.2381,-6.2381,-5.2409,-5.2409,-5.2409,-5.2409,-5.2492,-5.2887,0.0,0.0,0.0,0.0,0.0,0.0,0.0,0.0,0.0,0.0,0.0,0.0,0.0,0.0,0.0,0.0,0.0,0.0,0.0,0.0,0.0,0.0,0.0,0.0,0.0,-6.1102,-6.1102,-6.1102,-6.1102,-6.1401,-6.2056,-6.2056,-6.2371,-6.2941,-6.2941,-6.2941,-6.2984,-6.3057,-6.315,-6.3183,0.0,0.0,-6.4266,-6.4846,-6.5094,-6.5094,-6.5094,-6.5094,-6.5094,-6.5094,-6.5094,-6.5011,-6.4415,-6.3736,-6.305,-6.242,-6.2138,-6.194,-6.1285,-6.1102,-6.1102,-6.1102,-6.1102,-6.1102,-6.1102,-6.1102,-6.1102,-6.1102,-6.1102,-6.1102,-6.1102,-6.1102,-6.1102,-6.1102,-6.1102,-6.1102,-6.1102,-6.1102,-6.1102,-6.1102,-6.1102,-6.1102,-6.1102,-6.1102,-6.1102,-6.1102,-6.1102,-6.1102,-6.1102,-6.1144,-6.121,-6.1424,-6.1588,-6.183,-6.2037,-6.2285,-6.2381,-6.2381,-6.2381,-6.2381,-6.2381,-6.2381,-6.2381,-6.2381,-6.2381,-6.2381,-5.2409,-5.2409,-5.2409,-5.2409,-5.2821,-5.3483,0.0,0.0,0.0,0.0,0.0,0.0,0.0,0.0,0.0,0.0,0.0,0.0,0.0,0.0,0.0,0.0,0.0,0.0,0.0,0.0,0.0,0.0,0.0,0.0,0.0,-6.1102,-6.1102,-6.1102,-6.1102,-6.1152,-6.1268,-6.1268,-6.1334,-6.145,-6.145,-6.145,-6.1467,-6.2063,-6.2387,-6.242,0.0,-6.3438,-6.3498,-6.357,-6.3603,-6.3603,-6.3603,-6.3603,-6.3603,-6.3603,-6.3603,-6.3587,-6.3514,-6.3,-6.2371,-6.2255,-6.1765,-6.1251,-6.1136,-6.1102,-6.1102,-6.1102,-6.1102,-6.1102,-6.1102,-6.1102,-6.1102,-6.1102,-6.1102,-6.1102,-6.1102,-6.1102,-6.1102,-6.1102,-6.1102,-6.1102,-6.1102,-6.1102,-6.1102,-6.1102,-6.1102,-6.1102,-6.1102,-6.1102,-6.1102,-6.1102,-6.1102,-6.1102,-6.1102,-6.1252,-6.1424,-6.1628,-6.1669,-6.187,-6.2341,-6.2381,-6.2381,-6.2381,-6.2381,-6.2381,-6.2381,-6.2381,-6.2381,-6.2381,-6.2381,-6.2381,-5.2409,-5.2409,-5.2409,-5.2409,-5.2904,-5.3599,0.0,0.0,0.0,0.0,0.0,0.0,0.0,0.0,0.0,0.0,0.0,0.0,0.0,0.0,0.0,0.0,0.0,0.0,0.0,0.0,0.0,0.0,0.0,0.0,0.0,0.0,-6.1102,-6.1102,-6.1102,-6.1102,-6.1102,-6.1102,-6.1102,-6.1102,-6.1102,-6.1102,-6.1119,-6.145,-6.1599,-6.1632,0.0,-6.2719,-6.2752,-6.3166,-6.3315,-6.3315,-6.3315,-6.3315,-6.3315,-6.3315,-6.3067,-6.2719,-6.2719,-6.2196,-6.1599,-6.1599,-6.1384,-6.1102,-6.1102,-6.1102,-6.1102,-6.1102,-6.1102,-6.1102,-6.1102,-6.1102,-6.1102,-6.1102,-6.1102,-6.1102,-6.1102,-6.1102,-6.1102,-6.1102,-6.1102,-6.1102,-6.1102,-6.1102,-6.1102,-6.1102,-6.1102,-6.1102,-6.1102,-6.1102,-6.1102,-6.1102,-6.1102,-6.1102,-6.1102,-6.1276,-6.1547,-6.1854,-6.2007,-6.2183,-6.2381,-6.2381,-6.2381,-6.2381,-6.2381,-6.2381,-6.2381,-6.2381,-6.2381,-6.2381,-6.2381,-6.2381,-5.2445,-5.2409,-5.2459,0.0,0.0,0.0,0.0,0.0,0.0,0.0,0.0,0.0,0.0,0.0,0.0,0.0,0.0,0.0,0.0,0.0,0.0,0.0,0.0,0.0,0.0,0.0,0.0,0.0,0.0,0.0,0.0,0.0,-6.1102,-6.1102,-6.1102,-6.1102,-6.1102,-6.1102,-6.1102,-6.1102,-6.1102,-6.1102,-6.1102,-6.1102,-6.1102,-6.1136,-6.1682,-6.1914,-6.1964,-6.2527,-6.2759,-6.2759,-6.2759,-6.2759,-6.2759,-6.2759,-6.2411,-6.1914,-6.1914,-6.1566,-6.1102,-6.1102,-6.1102,-6.1102,-6.1102,-6.1102,-6.1102,-6.1102,-6.1102,-6.1102,-6.1102,-6.1102,-6.1102,-6.1102,-6.1102,-6.1102,-6.1102,-6.1102,-6.1102,-6.1102,-6.1102,-6.1102,-6.1102,-6.1102,-6.1102,-6.1102,-6.1102,-6.1102,-6.1102,-6.1102,-6.1102,-6.1102,-6.1102,-6.1144,-6.1227,-6.1424,-6.1692,-6.2093,-6.2285,-6.2381,-6.2381,-6.2381,-6.2381,-6.2381,-6.2381,-6.2381,-6.2381,-6.2381,-6.2381,-6.2381,-6.2381,-6.2381,-5.257,-5.2499,-5.2594,-5.3385,0.0,0.0,0.0,0.0,0.0,0.0,0.0,0.0,0.0,0.0,0.0,0.0,0.0,0.0,0.0,0.0,0.0,0.0,0.0,0.0,0.0,0.0,0.0,0.0,0.0,0.0,0.0,0.0,0.0,-6.1102,-6.1102,-6.1102,-6.1102,-6.1102,-6.1102,-6.1102,-6.1102,-6.1102,-6.1102,-6.1102,-6.1102,-6.1102,-6.1169,-6.1185,-6.1185,-6.1251,-6.1268,-6.1268,-6.1268,-6.1268,-6.1268,-6.1268,-6.1235,-6.1185,-6.1185,-6.1152,-6.1102,-6.1102,-6.1102,-6.1102,-6.1102,-6.1102,-6.1102,-6.1102,-6.1102,-6.1102,-6.1102,-6.1102,-6.1102,-6.1102,-6.1102,-6.1102,-6.1102,-6.1102,-6.1102,-6.1102,-6.1102,-6.1102,-6.1102,-6.1102,-6.1102,-6.1102,-6.1102,-6.1102,-6.1102,-6.1102,-6.1102,-6.1102,-6.1102,-6.1252,-6.1645,-6.1854,-6.2093,-6.2341,-6.2381,-6.2381,-6.2381,-6.2381,-6.2381,-6.2381,-6.2381,-6.2381,-6.2381,-6.2381,-6.2381,-6.2381,-6.2381,-6.2381,-5.2624,-5.2659,-5.2777,-5.2957,0.0,0.0,0.0,0.0,0.0,0.0,0.0,0.0,0.0,0.0,0.0,0.0,0.0,0.0,0.0,0.0,0.0,0.0,0.0,0.0,0.0,0.0,0.0,0.0,0.0,0.0,0.0,0.0,0.0,-6.1102,-6.1102,-6.1102,-6.1102,-6.1102,-6.1102,-6.1102,-6.1102,-6.1102,-6.1102,-6.1102,-6.1102,-6.1102,-6.1102,-6.1102,-6.1102,-6.1102,-6.1102,-6.1102,-6.1102,-6.1102,-6.1102,-6.1102,-6.1102,-6.1102,-6.1102,-6.1102,-6.1102,-6.1102,-6.1102,-6.1102,-6.1102,-6.1102,-6.1102,-6.1102,-6.1102,-6.1102,-6.1102,-6.1102,-6.1102,-6.1102,-6.1102,-6.1102,-6.1102,-6.1102,-6.1102,-6.1102,-6.1102,-6.1102,-6.1102,-6.1102,-6.1102,-6.1102,-6.1102,-6.1102,-6.1102,-6.1102,-6.1102,-6.1102,-6.121,-6.1441,-6.1854,-6.1957,-6.2093,-6.2381,-6.2381,-6.2381,-6.2381,-6.2381,-6.2381,-6.2381,-6.2381,-6.2381,-6.2381,-6.2381,-6.2381,-6.2381,-6.2381,-6.2381,-5.2799,-5.2834,-5.2935,0.0,0.0,0.0,0.0,0.0,0.0,0.0,0.0,0.0,0.0,0.0,0.0,0.0,0.0,0.0,0.0,0.0,0.0,0.0,0.0,0.0,0.0,0.0,0.0,0.0,0.0,0.0,0.0,0.0,0.0,-6.1102,-6.1102,-6.1102,-6.1102,-6.1102,-6.1102,-6.1102,-6.1102,-6.1102,-6.1102,-6.1102,-6.1102,-6.1102,-6.1102,-6.1102,-6.1102,-6.1102,-6.1102,-6.1102,-6.1102,-6.1102,-6.1102,-6.1102,-6.1102,-6.1102,-6.1102,-6.1102,-6.1102,-6.1102,-6.1102,-6.1102,-6.1102,-6.1102,-6.1102,-6.1102,-6.1102,-6.1102,-6.1102,-6.1102,-6.1102,-6.1102,-6.1102,-6.1102,-6.1102,-6.1102,-6.1102,-6.1102,-6.1102,-6.1102,-6.1102,-6.1102,-6.1102,-6.1102,-6.1102,-6.1102,-6.1102,-6.1102,-6.1102,-6.1169,-6.1359,-6.1611,-6.1957,-6.2093,-6.2189,-6.2381,-6.2381,-6.2381,-6.2381,-6.2381,-6.2381,-6.2381,-6.2381,-6.2381,-6.2381,-6.2381,-6.2381,-6.2398,-6.2634,-6.2618,-5.3144,-5.3041,0.0,0.0,0.0,0.0,0.0,0.0,0.0,0.0,0.0,0.0,0.0,0.0,0.0,0.0,0.0,0.0,0.0,0.0,0.0,0.0,0.0,0.0,0.0,0.0,0.0,0.0,0.0,0.0,0.0,0.0,0.0,-6.1102,-6.1102,-6.1102,-6.1102,-6.1102,-6.1102,-6.1102,-6.1102,-6.1102,-6.1102,-6.1102,-6.1102,-6.1102,-6.1102,-6.1102,-6.1102,-6.1102,-6.1102,-6.1102,-6.1102,-6.1102,-6.1102,-6.1102,-6.1102,-6.1102,-6.1102,-6.1102,-6.1102,-6.1102,-6.1102,-6.1102,-6.1102,-6.1102,-6.1102,-6.1102,-6.1102,-6.1102,-6.1102,-6.1102,-6.1102,-6.1102,-6.1102,-6.1102,-6.1102,-6.1102,-6.1102,-6.1102,-6.1102,-6.1102,-6.1102,-6.1102,-6.1102,-6.1102,-6.1102,-6.1102,-6.1102,-6.1102,-6.1186,-6.1383,-6.1588,-6.1773,-6.1997,-6.2246,-6.2381,-6.2381,-6.2381,-6.2381,-6.2381,-6.2381,-6.2381,-6.2381,-6.2381,-6.2381,-6.2381,-6.2398,-6.2398,-6.2415,-6.3176,-6.3125,-5.323,0.0,0.0,0.0,0.0,0.0,0.0,0.0,0.0,0.0,0.0,0.0,0.0,0.0,0.0,0.0,0.0,0.0,0.0,0.0,0.0,0.0,0.0,0.0,0.0,0.0,0.0,0.0,0.0,0.0,0.0,0.0,-6.1102,-6.1102,-6.1102,-6.1102,-6.1102,-6.1102,-6.1102,-6.1102,-6.1102,-6.1102,-6.1102,-6.1102,-6.1102,-6.1102,-6.1102,-6.1102,-6.1102,-6.1102,-6.1102,-6.1102,-6.1102,-6.1102,-6.1102,-6.1102,-6.1102,-6.1102,-6.1102,-6.1102,-6.1102,-6.1102,-6.1102,-6.1102,-6.1102,-6.1102,-6.1102,-6.1102,-6.1102,-6.1102,-6.1102,-6.1102,-6.1102,-6.1102,-6.1102,-6.1102,-6.1102,-6.1102,-6.1102,-6.1102,-6.1102,-6.1102,-6.1102,-6.1102,-6.1102,-6.1102,-6.1102,-6.1102,-6.1102,-6.1102,-6.1227,-6.1547,-6.1669,-6.187,-6.2246,-6.2341,-6.2381,-6.2381,-6.2381,-6.2381,-6.2381,-6.2381,-6.2381,-6.2381,-6.2381,-6.2381,-6.2381,-6.2922,-6.3176,-6.3193,-6.3937,-6.4157,-5.3348,0.0,0.0,0.0,0.0,0.0,0.0,0.0,0.0,0.0,0.0,0.0,0.0,0.0,0.0,0.0,0.0,0.0,0.0,0.0,0.0,0.0,0.0,0.0,0.0,0.0,0.0,0.0,0.0,0.0,0.0,-6.1102,-6.1102,-6.1102,-6.1102,-6.1102,-6.1102,-6.1102,-6.1102,-6.1102,-6.1102,-6.1102,-6.1102,-6.1102,-6.1102,-6.1102,-6.1102,-6.1102,-6.1102,-6.1102,-6.1102,-6.1102,-6.1102,-6.1102,-6.1102,-6.1102,-6.1102,-6.1102,-6.1102,-6.1102,-6.1102,-6.1102,-6.1102,-6.1102,-6.1102,-6.1102,-6.1102,-6.1102,-6.1102,-6.1102,-6.1102,-6.1102,-6.1102,-6.1102,-6.1102,-6.1102,-6.1102,-6.1102,-6.1102,-6.1102,-6.1102,-6.1102,-6.1102,-6.1102,-6.1102,-6.1102,-6.1102,-6.1144,-6.121,-6.121,-6.1359,-6.1773,-6.1813,-6.1991,-6.2381,-6.2381,-6.2381,-6.2381,-6.2381,-6.2381,-6.2381,-6.2381,-6.2381,-6.2381,-6.2381,-6.2381,-6.2381,-6.3142,-6.3514,-6.3531,-6.4563,-6.4884,0.0,0.0,0.0,0.0,0.0,0.0,0.0,0.0,0.0,0.0,0.0,0.0,0.0,0.0,0.0,0.0,0.0,0.0,0.0,0.0,0.0,0.0,0.0,0.0,0.0,0.0,0.0,0.0,0.0,0.0,0.0,-6.1102,-6.1102,-6.1102,-6.1102,-6.1102,-6.1102,-6.1102,-6.1102,-6.1102,-6.1102,-6.1102,-6.1102,-6.1102,-6.1102,-6.1102,-6.1102,-6.1102,-6.1102,-6.1102,-6.1102,-6.1102,-6.1102,-6.1102,-6.1102,-6.1102,-6.1102,-6.1102,-6.1102,-6.1102,-6.1102,-6.1102,-6.1102,-6.1102,-6.1102,-6.1102,-6.1102,-6.1102,-6.1102,-6.1102,-6.1102,-6.1102,-6.1102,-6.1102,-6.1102,-6.1102,-6.1102,-6.1102,-6.1102,-6.1102,-6.1102,-6.1102,-6.1102,-6.1102,-6.1102,-6.1102,-6.1102,-6.1169,-6.1383,-6.1383,-6.153,-6.1957,-6.1997,-6.2093,-6.2381,-6.2381,-6.2381,-6.2381,-6.2381,-6.2381,-6.2381,-6.2381,-6.2381,-6.2381,-6.2381,-6.2415,-6.2482,-6.3243,-6.3649,-6.3751,-6.5138,-6.5442,0.0,0.0,0.0,0.0,0.0,0.0,0.0,0.0,0.0,0.0,0.0,0.0,0.0,0.0,0.0,0.0,0.0,0.0,0.0,0.0,0.0,0.0,0.0,0.0,0.0,0.0,0.0,0.0,0.0,0.0,0.0,-6.1102,-6.1102,-6.1102,-6.1102,-6.1102,-6.1102,-6.1102,-6.1102,0.0,-6.1102,-6.1102,-6.1102,-6.1102,-6.1102,-6.1102,-6.1102,-6.1102,-6.1102,-6.1102,-6.1102,-6.1102,-6.1102,-6.1102,-6.1102,-6.1102,-6.1102,-6.1102,-6.1102,-6.1102,-6.1102,-6.1102,-6.1102,-6.1102,-6.1102,-6.1102,-6.1102,-6.1102,-6.1102,-6.1102,-6.1102,-6.1102,-6.1102,-6.1102,-6.1102,-6.1102,-6.1102,-6.1102,-6.1102,-6.1102,-6.1102,-6.1102,-6.1102,-6.1102,-6.1102,-6.1102,-6.1102,-6.1169,-6.1383,-6.1383,-6.1547,-6.1951,-6.1997,-6.2093,-6.2381,-6.2381,-6.2381,-6.2381,-6.2381,-6.2381,-6.2381,-6.2381,-6.2381,-6.2381,-6.2381,-6.2668,-6.3277,-6.4005,-6.4664,-6.5239,-6.6153,-6.6491,0.0,0.0,0.0,0.0,0.0,0.0,0.0,0.0,0.0,0.0,0.0,0.0,0.0,0.0,0.0,0.0,0.0,0.0,0.0,0.0,0.0,0.0,0.0,0.0,0.0,0.0,0.0,0.0,0.0,0.0,-6.0572,-6.092,-6.1102,-6.1102,-6.1102,-6.1102,-6.1102,-6.1102,-6.1102,-6.1102,-6.1102,-6.1102,-6.1102,-6.1102,-6.1102,-6.1102,-6.1102,-6.1102,-6.1102,-6.1102,-6.1102,-6.1102,-6.1102,-6.1102,-6.1102,-6.1102,-6.1102,-6.1102,-6.1102,-6.1102,-6.1102,-6.1102,-6.1102,-6.1102,-6.1102,-6.1102,-6.1102,-6.1102,-6.1102,-6.1102,-6.1102,-6.1102,-6.1102,-6.1102,-6.1102,-6.1102,-6.1102,-6.1102,-6.1102,-6.1102,-6.1102,-6.1102,-6.1102,-6.1102,-6.1144,-6.121,-6.1252,-6.1359,-6.1652,-6.1692,-6.183,-6.2167,-6.2189,-6.2246,-6.2381,-6.2381,-6.2381,-6.2381,-6.2381,-6.2381,-6.2381,-6.2381,-6.2381,-6.2381,-6.2381,-6.2584,-6.299,-6.4072,-6.48,-6.5189,-6.6305,-6.6812,0.0,0.0,0.0,0.0,0.0,0.0,0.0,0.0,0.0,0.0,0.0,0.0,0.0,0.0,0.0,0.0,0.0,0.0,0.0,0.0,0.0,0.0,0.0,0.0,0.0,0.0,0.0,0.0,0.0,0.0,-5.981,-6.0506,-6.092,-6.092,-6.1036,-6.1102,-6.1102,-6.1102,-6.1102,-6.1102,-6.1102,-6.1102,-6.1102,-6.1102,-6.1102,-6.1102,-6.1102,-6.1102,-6.1102,-6.1102,-6.1102,-6.1102,-6.1102,-6.1102,-6.1102,-6.1102,-6.1102,-6.1102,-6.1102,-6.1102,-6.1102,-6.1102,-6.1102,-6.1102,-6.1102,-6.1102,-6.1102,-6.1102,-6.1102,-6.1102,-6.1102,-6.1102,-6.1102,-6.1102,-6.1102,-6.1102,-6.1102,-6.1102,-6.1102,-6.1102,-6.1102,-6.1102,-6.1102,-6.1102,-6.1186,-6.1359,-6.1383,-6.1547,-6.1957,-6.1997,-6.2093,-6.2381,-6.2381,-6.2381,-6.2381,-6.2381,-6.2381,-6.2381,-6.2381,-6.2381,-6.2381,-6.2381,-6.2381,-6.2381,-6.2381,-6.2448,-6.2584,-6.3818,-6.4546,-6.4816,-6.6051,-6.6694,0.0,0.0,0.0,0.0,0.0,0.0,0.0,0.0,0.0,0.0,0.0,0.0,0.0,0.0,0.0,0.0,0.0,0.0,0.0,0.0,0.0,0.0,0.0,0.0,0.0,0.0,0.0,0.0,0.0,0.0,-5.9049,-5.9744,-6.0158,-6.0158,-6.0771,-6.1102,-6.1102,-6.1102,-6.1102,-6.1102,-6.1102,-6.1102,-6.1102,-6.1102,-6.1102,-6.1102,-6.1102,-6.1102,-6.1102,-6.1102,-6.1102,-6.1102,-6.1102,-6.1102,-6.1102,-6.1102,-6.1102,-6.1102,-6.1102,-6.1102,-6.1102,-6.1102,-6.1102,-6.1102,-6.1102,-6.1102,-6.1102,-6.1102,-6.1102,-6.1102,-6.1102,-6.1102,-6.1102,-6.1102,-6.1102,-6.1102,-6.1102,-6.1102,-6.1102,-6.1102,-6.1102,-6.1102,-6.1102,-6.1102,-6.1186,-6.1359,-6.1383,-6.1547,-6.1957,-6.1997,-6.2093,-6.2381,-6.2381,-6.2381,-6.2381,-6.2381,-6.2381,-6.2381,-6.2381,-6.2381,-6.2381,-6.2381,-6.2381,-6.2381,-6.2381,-6.2702,-6.3362,-6.3565,-6.4309,-6.5544,-6.5747,-6.6187,0.0,0.0,0.0,0.0,0.0,0.0,0.0,0.0,0.0,0.0,0.0,0.0,0.0,0.0,0.0,0.0,0.0,0.0,0.0,0.0,0.0,0.0,0.0,0.0,0.0,0.0,0.0,0.0,0.0,-5.827,-5.827,-5.8982,-5.938,-5.938,-6.0109,-6.049,-6.049,-6.0904,-6.1102,-6.1102,-6.1102,-6.1102,-6.1102,-6.1102,-6.1102,-6.1102,-6.1102,-6.1102,-6.1102,-6.1102,-6.1102,-6.1102,-6.1102,-6.1102,-6.1102,-6.1102,-6.1102,-6.1102,-6.1102,-6.1102,-6.1102,-6.1102,-6.1102,-6.1102,-6.1102,-6.1102,-6.1102,-6.1102,-6.1102,-6.1102,-6.1102,-6.1102,-6.1102,-6.1102,-6.1102,-6.1102,-6.1102,-6.1102,-6.1102,-6.1102,-6.1102,-6.1102,-6.1102,-6.1102,-6.1227,-6.1506,-6.1547,-6.1709,-6.215,-6.2229,-6.2285,-6.2398,-6.2381,-6.2381,-6.2381,-6.2381,-6.2381,-6.2381,-6.2381,-6.2381,-6.2381,-6.2381,-6.2381,-6.2381,-6.2381,-6.255,-6.2888,-6.3311,-6.3835,-6.4495,-6.5307,-6.5865,0.0,0.0,0.0,0.0,0.0,0.0,0.0,0.0,0.0,0.0,0.0,0.0,0.0,0.0,0.0,0.0,0.0,0.0,0.0,0.0,0.0,0.0,0.0,0.0,0.0,0.0,0.0,0.0,0.0,-5.7508,-5.7508,-5.822,-5.8618,-5.8618,-5.9347,-5.9728,-5.9728,-6.0456,-6.092,-6.1102,-6.1102,-6.1102,-6.1102,-6.1102,-6.1102,-6.1102,-6.1102,-6.1102,-6.1102,-6.1102,-6.1102,-6.1102,-6.1102,-6.1102,-6.1102,-6.1102,-6.1102,-6.1102,-6.1102,-6.1102,-6.1102,-6.1102,-6.1102,-6.1102,-6.1102,-6.1102,-6.1102,-6.1102,-6.1102,-6.1102,-6.1102,-6.1102,-6.1102,-6.1102,-6.1102,-6.1102,-6.1102,-6.1102,-6.1102,-6.1102,-6.1102,-6.1102,-6.1102,-6.1144,-6.1293,-6.1645,-6.175,-6.1911,-6.2341,-6.2381,-6.2381,-6.2381,-6.2381,-6.2381,-6.2381,-6.2381,-6.2381,-6.2381,-6.2381,-6.2381,-6.2381,-6.2381,-6.2381,-6.2381,-6.2381,-6.2381,-6.2381,-6.2956,-6.3328,-6.3548,-6.463,-6.5239,0.0,0.0,0.0,0.0,0.0,0.0,0.0,0.0,0.0,0.0,0.0,0.0,0.0,0.0,0.0,0.0,0.0,0.0,0.0,0.0,0.0,0.0,0.0,0.0,0.0,0.0,0.0,0.0,0.0,-5.6746,-5.6746,-5.7442,-5.7856,-5.7856,-5.8568,-5.8966,-5.8966,-5.9694,-6.0423,-6.1102,-6.1102,-6.1102,-6.1102,-6.1102,-6.1102,-6.1102,-6.1102,-6.1102,-6.1102,-6.1102,-6.1102,-6.1102,-6.1102,-6.1102,-6.1102,-6.1102,-6.1102,-6.1102,-6.1102,-6.1102,-6.1102,-6.1102,-6.1102,-6.1102,-6.1102,-6.1102,-6.1102,-6.1102,-6.1102,-6.1102,-6.1102,-6.1102,-6.1102,-6.1102,-6.1102,-6.1102,-6.1102,-6.1102,-6.1102,-6.1102,-6.1102,-6.1102,-6.1102,-6.1252,-6.1482,-6.1669,-6.1854,-6.2093,-6.2341,-6.2381,-6.2381,-6.2381,-6.2381,-6.2381,-6.2381,-6.2381,-6.2381,-6.2381,-6.2381,-6.2381,-6.2381,-6.2381,-6.2381,-6.2381,-6.2381,-6.2381,-6.2381,-6.2431,-6.2821,-6.3514,-6.3599,-6.4005,0.0,0.0,0.0,0.0,0.0,0.0,0.0,0.0,0.0,0.0,0.0,0.0,0.0,0.0,0.0,0.0,0.0,0.0,0.0,0.0,0.0,0.0,0.0,0.0,0.0,0.0,0.0,0.0,0.0,0.0,-5.668,-5.6945,-5.7077,-5.7077,-5.7806,-5.8419,-5.8899,-5.9164,-5.9429,-5.9694,-6.0175,-6.039,-6.0423,-6.0887,-6.1102,-6.1102,-6.1102,-6.1102,-6.1102,-6.1102,-6.1102,-6.1102,-6.1102,-6.1102,-6.1102,-6.1102,-6.1102,-6.1102,-6.1102,-6.1102,-6.1102,-6.1102,-6.1102,-6.1102,-6.1102,-6.1102,-6.1102,-6.1102,-6.1102,-6.1102,-6.1102,-6.1102,-6.1102,-6.1102,-6.121,-6.1276,-6.1276,-6.1169,-6.1102,-6.1102,-6.1102,-6.1102,-6.1102,-6.1252,-6.1465,-6.1669,-6.1894,-6.2093,-6.2381,-6.2381,-6.2381,-6.2381,-6.2381,-6.2381,-6.2381,-6.2381,-6.2381,-6.2381,-6.2381,-6.2381,-6.2381,-6.2381,-6.2381,-6.2381,-6.2381,-6.2381,-6.2381,-6.2381,-6.2533,-6.2804,-6.3294,-6.3649,-5.3501,0.0,0.0,0.0,0.0,0.0,0.0,0.0,0.0,0.0,0.0,0.0,0.0,0.0,0.0,0.0,0.0,0.0,0.0,0.0,0.0,0.0,0.0,0.0,0.0,0.0,0.0,0.0,0.0,0.0,-5.668,-5.668,-5.668,-5.668,-5.716,-5.7773,-5.8518,-5.8535,-5.8651,-5.8899,-5.9396,-5.9628,-5.9645,-6.0142,-6.0506,-6.0738,-6.0738,-6.087,-6.1102,-6.1102,-6.1102,-6.1102,-6.1102,-6.1102,-6.1102,-6.1102,-6.1102,-6.1102,-6.1102,-6.1102,-6.1102,-6.1102,-6.1102,-6.1102,-6.1102,-6.1102,-6.1102,-6.1102,-6.1102,-6.1102,-6.1169,-6.121,-6.121,-6.1293,-6.1359,-6.1424,-6.1465,-6.14,-6.1293,-6.1293,-6.1293,-6.1293,-6.1293,-6.1482,-6.1669,-6.1773,-6.1974,-6.2189,-6.2381,-6.2381,-6.2381,-6.2381,-6.2381,-6.2381,-6.2381,-6.2381,-6.2381,-6.2381,-6.2381,-6.2381,-6.2381,-6.2381,-6.2381,-6.2381,-6.2381,-6.2381,-6.2381,-6.2381,-6.2381,-6.2398,-6.2905,-6.3142,0.0,0.0,0.0,0.0,0.0,0.0,0.0,0.0,0.0,0.0,0.0,0.0,0.0,0.0,0.0,0.0,0.0,0.0,0.0,0.0,0.0,0.0,0.0,0.0,0.0,0.0,0.0,0.0,0.0,-5.6911,-5.6719,-5.6719,-5.6735,-5.668,-5.668,-5.7028,-5.7757,-5.7757,-5.8121,-5.8833,-5.885,-5.8866,-5.8866,-5.8883,-5.9297,-5.9976,-5.9976,-6.039,-6.1086,-6.1102,-6.1102,-6.1102,-6.1102,-6.1102,-6.1102,-6.1102,-6.1102,-6.1102,-6.1102,-6.1102,-6.1102,-6.1102,-6.1102,-6.1102,-6.1102,-6.1102,-6.1102,-6.1102,-6.1102,-6.1144,-6.1359,-6.1383,-6.1465,-6.1669,-6.1547,-6.1465,-6.1669,-6.1709,-6.1709,-6.1709,-6.1709,-6.1709,-6.1709,-6.1854,-6.1997,-6.1997,-6.2229,-6.2381,-6.2381,-6.2381,-6.2381,-6.2381,-6.2381,-6.2381,-6.2381,-6.2381,-6.2381,-6.2381,-6.2381,-6.2381,-6.2381,-6.2381,-6.2381,-6.2381,-6.2381,-6.2381,-6.2381,-6.2381,-6.2381,-6.2381,-6.2381,-6.2381,-5.3501,0.0,0.0,0.0,0.0,0.0,0.0,0.0,0.0,0.0,0.0,0.0,0.0,0.0,0.0,0.0,0.0,0.0,0.0,0.0,0.0,0.0,0.0,0.0,0.0,0.0,0.0,0.0,-5.7214,-5.7176,-5.7139,-5.6987,-5.6834,-5.668,-5.668,-5.6779,-5.6995,-5.6995,-5.7094,-5.7309,-5.7839,-5.8088,-5.8121,-5.8651,-5.9015,-5.9198,-5.9198,-5.9628,-6.0357,-6.0887,-6.1102,-6.1102,-6.1102,-6.1102,-6.1102,-6.1102,-6.1102,-6.1102,-6.1102,-6.1102,-6.1102,-6.1102,-6.1102,-6.1102,-6.1102,-6.1102,-6.1102,-6.1102,-6.1102,-6.1144,-6.1359,-6.1506,-6.1628,-6.1669,-6.1773,-6.1837,-6.1877,-6.207,-6.2087,-6.1766,-6.1709,-6.1709,-6.1709,-6.1854,-6.1997,-6.1997,-6.2229,-6.2381,-6.2381,-6.2381,-6.2381,-6.2381,-6.2381,-6.2381,-6.2381,-6.2381,-6.2381,-6.2381,-6.2381,-6.2381,-6.2381,-6.2381,-6.2381,-6.2381,-6.2381,-6.2381,-6.2381,-6.2381,-6.2381,-6.2381,-6.2381,-6.2381,-5.3501,0.0,0.0,0.0,0.0,0.0,0.0,-5.3264,0.0,0.0,0.0,0.0,0.0,0.0,0.0,0.0,0.0,0.0,0.0,0.0,0.0,0.0,0.0,0.0,0.0,0.0,0.0,-5.7439,-5.7364,-5.7214,-5.7063,-5.6949,-5.6834,-5.668,-5.668,-5.668,-5.668,-5.668,-5.668,-5.6697,-5.7127,-5.7326,-5.7342,-5.7773,-5.8138,-5.8436,-5.8436,-5.885,-5.9579,-6.0009,-6.0556,-6.1102,-6.1102,-6.1102,-6.1102,-6.1102,-6.1102,-6.1102,-6.1102,-6.1102,-6.1102,-6.1102,-6.1102,-6.1102,-6.121,-6.121,-6.121,-6.121,-6.1293,-6.1375,-6.1506,-6.1652,-6.1854,-6.1967,-6.1974,-6.2037,-6.2133,-6.2285,-6.2302,-6.2047,-6.2007,-6.2007,-6.2007,-6.207,-6.2189,-6.2189,-6.2285,-6.2381,-6.2381,-6.2381,-6.2381,-6.2381,-6.2381,-6.2381,-6.2381,-6.2381,-6.2381,-6.2381,-6.2381,-6.2381,-6.2381,-6.2381,-6.2381,-6.2381,-6.2381,-6.2381,-6.2381,-6.2381,-6.2381,-6.2381,-6.2381,-6.2381,0.0,0.0,0.0,0.0,0.0,0.0,-5.2587,-5.2926,0.0,0.0,0.0,0.0,0.0,0.0,0.0,0.0,0.0,0.0,0.0,0.0,0.0,0.0,0.0,0.0,0.0,-5.7645,-5.7606,-5.7544,-5.7426,-5.7214,-5.6834,-5.6796,-5.6757,-5.6719,-5.6719,-5.6719,-5.668,-5.668,-5.668,-5.668,-5.668,-5.668,-5.668,-5.668,-5.7044,-5.7674,-5.7674,-5.8088,-5.8784,-5.8784,-5.9645,-6.0986,-6.0986,-6.1036,-6.1102,-6.1102,-6.1102,-6.1102,-6.1102,-6.1102,-6.1102,-6.1102,-6.1102,-6.1144,-6.1318,-6.1359,-6.1359,-6.1383,-6.1547,-6.175,-6.175,-6.1894,-6.2093,-6.2341,-6.2229,-6.2093,-6.2341,-6.2381,-6.2381,-6.2381,-6.2381,-6.2381,-6.2381,-6.2381,-6.2381,-6.2381,-6.2381,-6.2381,-6.2381,-6.2381,-6.2381,-6.2381,-6.2381,-6.2381,-6.2381,-6.2381,-6.2381,-6.2381,-6.2381,-6.2381,-6.2381,-6.2381,-6.2381,-6.2381,-6.2381,-6.2381,-6.2381,-6.2381,-6.2381,-6.2381,-6.2381,-6.2381,0.0,0.0,0.0,0.0,0.0,0.0,-5.3162,-5.2892,0.0,0.0,0.0,0.0,0.0,0.0,0.0,0.0,0.0,0.0,0.0,0.0,0.0,0.0,0.0,0.0,0.0,-5.6139,-5.6357,-5.6896,-5.7487,-5.7662,-5.7439,-5.7439,-5.7289,-5.6949,-5.6949,-5.6872,-5.668,-5.668,-5.668,-5.668,-5.668,-5.668,-5.668,-5.668,-5.6763,-5.6895,-5.6895,-5.7326,-5.8005,-5.8005,-5.8883,-6.0225,-6.0225,-6.0589,-6.1102,-6.1102,-6.1102,-6.1102,-6.1102,-6.1102,-6.1102,-6.1102,-6.1102,-6.1119,-6.1144,-6.1144,-6.1169,-6.1359,-6.1652,-6.1957,-6.1957,-6.215,-6.2341,-6.2398,-6.2341,-6.2341,-6.2381,-6.2381,-6.2381,-6.2381,-6.2381,-6.2381,-6.2381,-6.2381,-6.2381,-6.2381,-6.2381,-6.2381,-6.2381,-6.2381,-6.2381,-6.2381,-6.2381,-6.2381,-6.2381,-6.2381,-6.2381,-6.2381,-6.2381,-6.2381,-6.2381,-6.2381,-6.2381,-6.2381,-6.2381,-6.2381,-6.2381,-6.2381,-6.2381,-6.2381,-6.2381,-6.2381,0.0,0.0,0.0,-5.301,0.0,0.0,0.0,-5.2909,0.0,0.0,0.0,0.0,0.0,0.0,0.0,0.0,0.0,0.0,0.0,0.0,0.0,0.0,0.0,0.0,0.0,-5.5681,-5.5798,-5.6082,-5.679,-5.7122,-5.6902,-5.7163,-5.7214,-5.7025,-5.6911,-5.6796,-5.668,-5.668,-5.668,-5.668,-5.668,-5.668,-5.668,-5.668,-5.668,-5.668,-5.668,-5.6895,-5.7243,-5.7243,-5.7889,-5.8982,-5.9711,-6.0225,-6.0605,-6.097,-6.1102,-6.1102,-6.1102,-6.1102,-6.1102,-6.1102,-6.1102,-6.1102,-6.121,-6.1252,-6.1276,-6.1506,-6.1692,-6.1877,-6.1957,-6.2189,-6.2381,-6.2381,-6.2381,-6.2381,-6.2381,-6.2381,-6.2381,-6.2381,-6.2381,-6.2381,-6.2381,-6.2381,-6.2381,-6.2381,-6.2381,-6.2381,-6.2381,-6.2381,-6.2381,-6.2381,-6.2381,-6.2381,-6.2381,-6.2381,-6.2381,-6.2381,-6.2381,-6.2381,-6.2381,-6.2381,-6.2381,-6.2381,-6.2381,-6.2381,-6.2381,-6.2381,-6.2381,-6.2381,-6.2381,-6.2381,0.0,0.0,0.0,0.0,0.0,-5.2959,0.0,0.0,0.0,0.0,0.0,0.0,0.0,0.0,0.0,0.0,0.0,0.0,0.0,0.0,0.0,0.0,0.0,0.0,0.0,-5.5412,-5.5427,-5.525,-5.5924,-5.6272,-5.611,-5.665,-5.6938,-5.6884,-5.6882,-5.6834,-5.6796,-5.6757,-5.6757,-5.6757,-5.6719,-5.668,-5.668,-5.668,-5.668,-5.668,-5.668,-5.668,-5.668,-5.668,-5.7044,-5.7723,-5.9214,-5.9877,-6.0092,-6.0837,-6.1102,-6.1119,-6.1144,-6.1144,-6.1169,-6.1227,-6.1227,-6.1268,-6.14,-6.1465,-6.1547,-6.1709,-6.179,-6.187,-6.2053,-6.2229,-6.2381,-6.2381,-6.2381,-6.2381,-6.2381,-6.2381,-6.2381,-6.2381,-6.2381,-6.2381,-6.2381,-6.2381,-6.2381,-6.2381,-6.2381,-6.2381,-6.2381,-6.2381,-6.2381,-6.2381,-6.2381,-6.2381,-6.2381,-6.2381,-6.2381,-6.2381,-6.2381,-6.2381,-6.2381,-6.2381,-6.2381,-6.2381,-6.2381,-6.2381,-6.2381,-6.2381,-6.2381,-6.2381,-6.2381,-6.2381,0.0,0.0,0.0,0.0,-5.2418,0.0,0.0,0.0,-5.2638,-5.3348,0.0,0.0,0.0,0.0,0.0,0.0,0.0,0.0,0.0,0.0,0.0,0.0,0.0,0.0,0.0,0.0,-5.4718,-5.4684,-5.5377,-5.5764,-5.5764,-5.6421,-5.6737,-5.6556,-5.7177,-5.7402,-5.7252,-5.7063,-5.6949,-5.6949,-5.6812,-5.668,-5.668,-5.668,-5.668,-5.668,-5.668,-5.668,-5.668,-5.668,-5.673,-5.6962,-5.8436,-5.9413,-6.0092,-6.0837,-6.1102,-6.1144,-6.1318,-6.1359,-6.14,-6.1547,-6.1628,-6.1645,-6.1669,-6.1773,-6.1957,-6.1957,-6.215,-6.2341,-6.2341,-6.2381,-6.2381,-6.2381,-6.2381,-6.2381,-6.2381,-6.2381,-6.2381,-6.2381,-6.2381,-6.2381,-6.2381,-6.2381,-6.2381,-6.2381,-6.2381,-6.2381,-6.2381,-6.2381,-6.2381,-6.2381,-6.2381,-6.2381,-6.2381,-6.2381,-6.2381,-6.2381,-6.2381,-6.2381,-6.2381,-6.2381,-6.2381,-6.2381,-6.2381,-6.2381,-6.2381,-6.2381,-6.2381,-6.2381,-6.2381,-6.2381,0.0,0.0,0.0,0.0,0.0,0.0,-5.2756,0.0,-5.3095,0.0,0.0,0.0,0.0,0.0,0.0,0.0,0.0,0.0,0.0,0.0,0.0,0.0,0.0,0.0,0.0,0.0,0.0,0.0,-5.4634,-5.5057,-5.5057,-5.5662,-5.6145,-5.6494,-5.6687,-5.6929,-5.7289,-5.7214,-5.7176,-5.7176,-5.7101,-5.7063,-5.7025,-5.6911,-5.6872,-5.6872,-5.6757,-5.668,-5.668,-5.668,-5.668,-5.6835,-5.7997,-5.8837,-5.9446,-6.0191,-6.0738,-6.1102,-6.1227,-6.121,-6.1252,-6.1482,-6.1588,-6.1709,-6.1709,-6.175,-6.1854,-6.1957,-6.2093,-6.2206,-6.2341,-6.2381,-6.2381,-6.2381,-6.2381,-6.2381,-6.2381,-6.2381,-6.2381,-6.2381,-6.2381,-6.2381,-6.2381,-6.2381,-6.2381,-6.2381,-6.2381,-6.2381,-6.2381,-6.2381,-6.2381,-6.2381,-6.2381,-6.2381,-6.2381,-6.2381,-6.2381,-6.2381,-6.2381,-6.2381,-6.2381,-6.2381,-6.2381,-6.2381,-6.2381,-6.2381,-6.2381,-6.2381,-6.2381,-6.2381,-6.2381,-6.2381,-5.3501,0.0,0.0,0.0,0.0,0.0,0.0,0.0,0.0,0.0,0.0,0.0,0.0,0.0,0.0,0.0,0.0,0.0,0.0,0.0,0.0,0.0,0.0,0.0,0.0,0.0,0.0,-5.3501,-5.3991,-5.4296,-5.4296,-5.485,-5.5437,-5.596,-5.6219,-5.6617,-5.7174,-5.7301,-5.7402,-5.7402,-5.7327,-5.7289,-5.7289,-5.7139,-5.7101,-5.7063,-5.6911,-5.6834,-5.6796,-5.6796,-5.6757,-5.6785,-5.7432,-5.8096,-5.8717,-5.9766,-6.0488,-6.0986,-6.1268,-6.1375,-6.1458,-6.1645,-6.1766,-6.1887,-6.1887,-6.1887,-6.1911,-6.2053,-6.211,-6.2167,-6.2341,-6.2381,-6.2381,-6.2381,-6.2381,-6.2381,-6.2381,-6.2381,-6.2381,-6.2381,-6.2381,-6.2381,-6.2381,-6.2381,-6.2381,-6.2381,-6.2381,-6.2381,-6.2381,-6.2381,-6.2381,-6.2381,-6.2381,-6.2381,-6.2381,-6.2381,-6.2381,-6.2381,-6.2381,-6.2381,-6.2381,-6.2381,-6.2381,-6.2381,-6.2381,-6.2381,-6.2381,-6.2381,-6.2381,-6.2381,-6.2381,-6.2381,0.0,0.0,0.0,-5.3281,0.0,0.0,0.0,0.0,-5.3501,0.0,0.0,0.0,0.0,0.0,-5.3247,-5.2469,0.0,0.0,0.0,0.0,0.0,0.0,0.0,0.0,0.0,0.0,0.0,-5.3501,-5.3518,-5.3551,-5.3551,-5.4228,-5.4634,-5.4668,-5.6055,-5.678,-5.6797,-5.7308,-5.7588,-5.7588,-5.7402,-5.7289,-5.7289,-5.7289,-5.7289,-5.7289,-5.7289,-5.7176,-5.6987,-5.6987,-5.6872,-5.668,-5.6752,-5.7177,-5.8045,-5.991,-6.0604,-6.0738,-6.1665,-6.215,-6.2341,-6.2358,-6.2381,-6.2398,-6.2398,-6.2398,-6.2381,-6.2398,-6.2398,-6.2398,-6.2381,-6.2381,-6.2381,-6.2381,-6.2381,-6.2381,-6.2381,-6.2381,-6.2381,-6.2381,-6.2381,-6.2381,-6.2381,-6.2381,-6.2381,-6.2381,-6.2381,-6.2381,-6.2381,-6.2381,-6.2381,-6.2381,-6.2381,-6.2381,-6.2381,-6.2381,-6.2381,-6.2381,-6.2381,-6.2381,-6.2381,-6.2381,-6.2381,-6.2381,-6.2381,-6.2381,-6.2381,-6.2381,-6.2381,-6.2381,-6.2381,-6.2381,0.0,0.0,-5.3162,-5.3433,0.0,0.0,0.0,0.0,0.0,0.0,0.0,0.0,0.0,0.0,-5.3416,-5.3145,-5.3331,0.0,0.0,0.0,0.0,0.0,0.0,0.0,0.0,0.0,0.0,-5.3501,-5.3501,-5.3501,-5.3501,-5.3737,-5.4093,-5.4566,-5.5074,-5.5801,-5.6799,-5.6981,-5.7299,-5.7808,-5.7735,-5.7698,-5.7698,-5.7551,-5.7514,-5.7476,-5.7364,-5.7252,-5.7214,-5.7214,-5.7176,-5.7101,-5.7252,-5.744,-5.7804,-5.9035,-5.9868,-6.0545,-6.1482,-6.1934,-6.2133,-6.2133,-6.2246,-6.2381,-6.2381,-6.2381,-6.2381,-6.2381,-6.2381,-6.2381,-6.2381,-6.2381,-6.2381,-6.2381,-6.2381,-6.2381,-6.2381,-6.2381,-6.2381,-6.2381,-6.2381,-6.2381,-6.2381,-6.2381,-6.2381,-6.2381,-6.2381,-6.2381,-6.2381,-6.2381,-6.2381,-6.2381,-6.2381,-6.2381,-6.2381,-6.2381,-6.2381,-6.2381,-6.2381,-6.2381,-6.2381,-6.2381,-6.2381,-6.2381,-6.2381,-6.2381,-6.2381,-6.2381,-6.2381,-6.2381,-6.2381,-6.2381,-5.3501,-5.3501,0.0,-5.3501,-5.3501,0.0,-5.3501,0.0,-5.3501,0.0,0.0,0.0,0.0,0.0,0.0,-5.3501,-5.3501,-5.3501,0.0,-5.3501,0.0,0.0,0.0,0.0,0.0,0.0,-5.3501,-5.3501,-5.3501,-5.3501,0.0,0.0,-5.3721,-5.4194,-5.4448,-5.5057,-5.6004,-5.6545,-5.7036,-5.7509,-5.7763,-5.7881,-5.7898,-5.7772,-5.7698,-5.7698,-5.7588,-5.7476,-5.7402,-5.7402,-5.7364,-5.7327,-5.7439,-5.7476,-5.7628,-5.8585,-5.9689,-6.0761,-6.1675,-6.203,-6.2133,-6.2133,-6.2246,-6.2381,-6.2381,-6.2381,-6.2431,-6.2719,-6.2601,-6.2448,-6.2719,-6.2601,-6.2381,-6.2381,-6.2381,-6.2381,-6.2381,-6.2381,-6.2381,-6.2381,-6.2381,-6.2381,-6.2381,-6.2381,-6.2381,-6.2381,-6.2381,-6.2381,-6.2381,-6.2381,-6.2381,-6.2381,-6.2381,-6.2381,-6.2381,-6.2381,-6.2381,-6.2381,-6.2381,-6.2381,-6.2381,-6.2381,-6.2381,-6.2381,-6.2381,-6.2381,-6.2381,-6.2381,-6.2381,-6.2381,-6.2381,-6.2381]}]]